[[{"header":{"parameterUnit":"m.s-1","parameterCategory":1,"la1":30.6,"la2":29.2853,"lo1":-89.7004,"lo2":-87.6739,"dy":0.0162,"dx":0.0183,"nx":112,"ny":82,"refTime":"2026-05-10T00:00:00:Z","depth":0,"parameterNumber":2,"parameterNumberName":"U-component_of_WINDS"},"data":[0.0,0.0,0.0,0.0,0.0,0.0,0.0,0.0,0.0,0.0,0.0,0.0,0.0,0.0,0.0,0.0,0.0,0.0,0.0,0.0,0.0,0.0,0.0,0.0,0.0,0.0,0.0,0.0,0.0,0.0,0.0,0.0,0.0,0.0,0.0,0.0,0.0,0.0,0.0,0.0,0.0,0.0,0.0,0.0,0.0,0.0,0.0,0.0,0.0,0.0,0.0,0.0,0.0,0.0,0.0,0.0,0.0,0.0,0.0,0.0,0.0,0.0,0.0,0.0,0.0,0.0,0.0,0.0,0.0,0.0,0.0,0.0,0.0,0.0,0.0,0.0,0.0,0.0,0.0,0.0,0.0,0.0,0.0,0.0,0.0,0.0,0.0,0.0,0.0,0.0,0.0,0.743,0.7554,0.752,0.7494,0.5905,0.4853,0.4719,0.0,0.0,0.0,0.0,0.0,0.0,0.0,0.0,0.0,0.0,0.0,0.0,0.0,0.0,0.0,0.0,0.0,0.0,0.0,0.0,0.0,0.0,0.0,0.0,0.0,0.0,0.0,0.0,0.0,0.0,0.0,0.0,0.0,0.0,0.0,0.0,0.0,0.0,0.0,0.0,0.0,0.0,0.0,0.0,0.0,0.0,0.0,0.0,0.0,0.0,0.0,0.0,0.0,0.0,0.0,0.0,0.0,0.0,0.0,0.0,0.0,0.0,0.0,0.0,0.0,0.0,0.0,0.0,0.0,0.0,0.0,0.0,0.0,0.0,0.0,0.0,0.0,0.0,0.0,0.0,0.0,0.0,0.0,0.0,0.0,0.0,0.0,0.0,0.0,0.0,0.0,0.0,0.0,0.0,0.0,0.0,0.0,0.0,0.0,0.0,0.0,0.0,0.0,0.0,0.5773,0.7491,0.7621,0.7563,0.7499,0.5947,0.4906,0.4719,0.0,0.0,0.0,0.0,0.0,0.0,0.0,0.0,0.0,0.0,0.0,0.0,0.0,0.0,0.0,0.0,0.0,0.0,0.0,0.0,0.0,0.0,0.0,0.0,0.0,0.0,0.0,0.0,0.0,0.0,0.0,0.0,0.0,0.0,0.0,0.0,0.0,0.0,0.0,0.0,0.0,0.0,0.0,0.0,0.0,0.0,0.0,0.0,0.0,0.0,0.0,0.0,0.0,0.0,0.0,0.0,0.0,0.0,0.0,0.0,0.0,0.0,0.0,0.0,0.0,0.0,0.0,0.0,0.0,0.0,0.0,0.0,0.0,0.0,0.0,0.0,0.0,0.0,0.0,0.0,0.0,0.0,0.0,0.0,0.0,0.0,0.0,0.0,0.0,0.0,0.0,0.0,0.0,0.0,0.0,0.0,0.0,0.0,0.0,0.0,0.0,0.0,0.0,0.5843,0.66,0.695,0.7364,0.7372,0.6833,0.5694,0.4902,0.4657,0.4666,0.0,0.0,0.0,0.0,0.0,0.0,0.0,0.0,0.0,0.0,0.0,0.0,0.0,0.0,0.0,0.0,0.0,0.0,0.0,0.0,0.0,0.0,0.0,0.0,0.0,0.0,0.0,0.0,0.0,0.0,0.0,0.0,0.0,0.0,0.0,0.0,0.0,0.0,0.0,0.0,0.0,0.0,0.0,0.0,0.0,0.0,0.0,0.0,0.0,0.0,0.0,0.0,0.0,0.0,0.0,0.0,0.0,0.0,0.0,0.0,0.0,0.0,0.0,0.0,0.0,0.0,0.0,0.0,0.0,0.0,0.0,0.0,0.0,0.0,0.0,0.0,0.0,0.0,0.0,0.0,0.0,0.0,0.0,0.0,0.0,0.0,0.0,0.0,0.0,0.0,0.0,0.0,0.0,0.0,0.0,0.0,0.0,0.0,0.0,0.0,0.0,0.0,0.6708,0.7475,0.7053,0.7541,0.7504,0.6578,0.5735,0.5056,0.4652,0.4606,0.0,0.0,0.0,0.0,0.0,0.0,0.0,0.0,0.0,0.0,0.0,0.0,0.0,0.0,0.0,0.0,0.0,0.0,0.0,0.0,0.0,0.0,0.0,0.0,0.0,0.0,0.0,0.0,0.0,0.0,0.0,0.0,0.0,0.0,0.0,0.0,0.0,0.0,0.0,0.0,0.0,0.0,0.0,0.0,0.0,0.0,0.0,0.0,0.0,0.0,0.0,0.0,0.0,0.0,0.0,0.0,0.0,0.0,0.0,0.0,0.0,0.0,0.0,0.0,0.0,0.0,0.0,0.0,0.0,0.0,0.0,0.0,0.0,0.0,0.0,0.0,0.0,0.0,0.0,0.0,0.0,0.0,0.0,0.0,0.0,0.0,0.0,0.0,0.0,0.0,0.0,0.0,0.0,0.0,0.0,0.0,0.0,0.0,0.0,0.0,0.0,0.0,0.7275,0.7989,0.8738,0.8752,0.8352,0.7483,0.6496,0.5575,0.4746,0.4629,0.0,0.0,0.0,0.0,0.0,0.0,0.0,0.0,0.0,0.0,0.0,0.0,0.0,0.0,0.0,0.0,0.0,0.0,0.0,0.0,0.0,0.0,0.0,0.0,0.0,0.0,0.0,0.0,0.0,0.0,0.0,0.0,0.0,0.0,0.0,0.0,0.0,0.0,0.0,0.0,0.0,0.0,0.0,0.0,0.0,0.0,0.0,0.0,0.0,0.0,0.0,0.0,0.0,0.0,0.0,0.0,0.0,0.0,0.0,0.0,0.0,0.0,0.0,0.0,0.0,0.0,0.0,0.0,0.0,0.0,0.0,0.0,0.0,0.0,0.0,0.0,0.0,0.0,0.0,0.0,0.0,0.0,0.0,0.0,0.0,0.0,0.0,0.0,0.0,0.0,0.0,0.0,0.0,0.0,0.0,0.0,0.0,0.0,0.0,0.0,0.0,0.0,0.7319,0.7827,0.0,0.8559,0.823,0.6811,0.6259,0.5607,0.4697,0.0,0.0,0.0,0.0,0.0,0.0,0.0,0.0,0.0,0.0,0.0,0.0,0.0,0.0,0.0,0.0,0.0,0.0,0.0,0.0,0.0,0.0,0.0,0.0,0.0,0.0,0.0,0.0,0.0,0.0,0.0,0.0,0.0,0.0,0.0,0.0,0.0,0.0,0.0,0.0,0.0,0.0,0.0,0.0,0.0,0.0,0.0,0.0,0.0,0.0,0.0,0.0,0.0,0.0,0.0,0.0,0.0,0.0,0.0,0.0,0.0,0.0,0.0,0.0,0.0,0.0,0.0,0.0,0.0,0.0,0.0,0.0,0.0,0.0,0.0,0.0,0.0,0.0,0.0,0.0,0.0,0.0,0.0,0.0,0.0,0.0,0.0,0.0,0.0,0.0,0.0,0.0,0.0,0.0,0.0,0.0,0.0,0.0,0.0,0.0,0.0,0.0,0.6539,0.7036,0.7391,0.0,0.8092,0.7782,0.6293,0.6048,0.5581,0.4659,0.0,0.0,0.0,0.0,0.0,0.0,0.0,0.0,0.0,0.0,0.0,0.0,0.0,0.0,0.0,0.0,0.0,0.0,0.0,0.0,0.0,0.0,0.0,0.0,0.0,0.0,0.0,0.0,0.0,0.0,0.0,0.0,0.0,0.0,0.0,0.0,0.0,0.0,0.0,0.0,0.0,0.0,0.0,0.0,0.0,0.0,0.0,0.0,0.0,0.0,0.0,0.0,0.0,0.0,0.0,0.0,0.0,0.0,0.0,0.0,0.0,0.0,0.0,0.0,0.0,0.0,0.0,0.0,0.0,0.0,0.0,0.0,0.0,0.0,0.0,0.0,0.0,0.0,0.0,0.0,0.0,0.0,0.0,0.0,0.0,0.0,0.0,0.0,0.0,0.0,0.0,0.0,0.0,0.0,0.0,0.0,0.0,0.0,0.0,0.0,0.0,0.0,0.6284,0.6402,0.6707,0.7523,0.7534,0.7118,0.6188,0.5981,0.552,0.0,0.0,0.0,0.0,0.0,0.0,0.0,0.0,0.0,0.0,0.0,0.0,0.0,0.0,0.0,0.0,0.0,0.0,0.0,0.0,0.0,0.0,0.0,0.0,0.0,0.0,0.0,0.0,0.0,0.0,0.0,0.0,0.0,0.0,0.0,0.0,0.0,0.0,0.0,0.0,0.0,0.0,0.0,0.0,0.0,0.0,0.0,0.0,0.0,0.0,0.0,0.0,0.0,0.0,0.0,0.0,0.0,0.0,0.0,0.0,0.0,0.0,0.0,0.0,0.0,0.0,0.0,0.0,0.0,0.0,0.0,0.0,0.0,0.0,0.0,0.0,0.0,0.0,0.0,0.0,0.0,0.0,0.0,0.0,0.0,0.0,0.0,0.0,0.0,0.0,0.0,0.0,0.0,0.0,0.0,0.0,0.0,0.0,0.0,0.0,0.0,0.0,0.0,0.5454,0.6027,0.6928,0.8309,0.7829,0.7303,0.6967,0.626,0.5453,0.4584,0.0,0.0,0.0,0.0,0.0,0.0,0.0,0.0,0.0,0.0,0.0,0.0,0.0,0.0,0.0,0.0,0.0,0.0,0.0,0.0,0.0,0.0,0.0,0.0,0.0,0.0,0.0,0.0,0.0,0.0,0.0,0.0,0.0,0.0,0.0,0.0,0.0,0.0,0.0,0.0,0.0,0.0,0.0,0.0,0.0,0.0,0.0,0.0,0.0,0.0,0.0,0.0,0.0,0.0,0.0,0.0,0.0,0.0,0.0,0.0,0.0,0.0,0.0,0.0,0.0,0.0,0.0,0.0,0.0,0.0,0.0,0.0,0.0,0.0,0.0,0.0,0.0,0.0,0.0,0.0,0.0,0.0,0.0,0.0,0.0,0.0,0.0,0.0,0.0,0.0,0.0,0.0,0.0,0.0,0.0,0.0,0.0,0.0,0.0,0.0,0.0,0.0,0.5018,0.5868,0.6747,0.7661,0.7517,0.7171,0.673,0.6078,0.5323,0.4465,0.0,0.0,0.0,0.0,0.0,0.0,0.0,0.0,0.0,0.0,0.0,0.0,0.0,0.0,0.0,0.0,0.0,0.0,0.0,0.0,0.0,0.0,0.0,0.0,0.0,0.0,0.0,0.0,0.0,0.0,0.0,0.0,0.0,0.0,0.0,0.0,0.0,0.0,0.0,0.0,0.0,0.0,0.0,0.0,0.0,0.0,0.0,0.0,0.0,0.0,0.0,0.0,0.0,0.0,0.0,0.0,0.0,0.0,0.0,0.0,0.0,0.0,0.0,0.0,0.0,0.0,0.0,0.0,0.0,0.0,0.0,0.0,0.0,0.0,0.0,0.0,0.0,0.0,0.0,0.0,0.0,0.0,0.0,0.0,0.0,0.0,0.0,0.0,0.0,0.0,0.0,0.0,0.0,0.0,0.0,0.0,0.0,0.0,0.0,0.0,0.0,0.0,0.488,0.5787,0.6254,0.62,0.6702,0.6694,0.5847,0.551,0.5039,0.4322,0.0,0.0,0.0,0.0,0.0,0.0,0.0,0.0,0.0,0.0,0.0,0.0,0.0,0.0,0.0,0.0,0.0,0.0,0.0,0.0,0.0,0.0,0.0,0.0,0.0,0.0,0.0,0.0,0.0,0.0,0.0,0.0,0.0,0.0,0.0,0.0,0.0,0.0,0.0,0.0,0.0,0.0,0.0,0.0,0.0,0.0,0.0,0.0,0.0,0.0,0.0,0.0,0.0,0.0,0.0,0.0,0.0,0.0,0.0,0.0,0.6167,0.0,0.0,0.0,0.0,0.0,0.0,0.0,0.0,0.0,0.0,0.0,0.0,0.0,0.0,0.0,0.0,0.0,0.0,0.0,0.0,0.0,0.0,0.0,0.0,0.0,0.0,0.0,0.0,0.0,0.0,0.0,0.0,0.0,0.0,0.0,0.0,0.0,0.0,0.0,0.0,0.0,0.4884,0.521,0.5512,0.6066,0.5452,0.5163,0.5541,0.4744,0.4184,0.4069,0.4242,0.0,0.0,0.0,0.0,0.0,0.0,0.0,0.0,0.0,0.0,0.0,0.0,0.0,0.0,0.0,0.0,0.0,0.0,0.0,0.0,0.0,0.0,0.0,0.0,0.0,0.0,0.0,0.0,0.0,0.0,0.0,0.0,0.0,0.0,0.0,0.0,0.0,0.0,0.0,0.0,0.0,0.0,0.0,0.0,0.0,0.0,0.0,0.0,0.0,0.0,0.0,0.0,0.0,0.0,0.0,0.0,0.0,0.0,0.0,0.0,0.6391,0.0,0.0,0.0,0.0,0.0,0.0,0.0,0.0,0.0,0.0,0.0,0.0,0.0,0.0,0.0,0.0,0.0,0.0,0.0,0.0,0.0,0.0,0.0,0.0,0.0,0.0,0.0,0.0,0.0,0.0,0.0,0.0,0.0,0.0,0.0,0.0,0.0,0.0,0.0,0.0,0.5581,0.5947,0.6311,0.6984,0.6439,0.598,0.5856,0.4937,0.4265,0.3977,0.4051,0.0,0.0,0.0,0.0,0.0,0.0,0.0,0.0,0.0,0.0,0.0,0.0,0.0,0.0,0.0,0.0,0.0,0.0,0.0,0.0,0.0,0.0,0.0,0.0,0.0,0.0,0.0,0.0,0.0,0.0,0.0,0.0,0.0,0.0,0.0,0.0,0.0,0.0,0.0,0.0,0.0,0.0,0.0,0.0,0.0,0.0,0.0,0.0,0.0,0.0,0.0,0.0,0.0,1.3396,1.2556,1.1023,1.1207,1.081,0.992,0.8807,0.8194,0.7906,0.0,0.0,0.0,0.0,0.0,0.0,0.0,0.0,0.0,0.0,0.0,0.0,0.0,0.0,0.0,0.0,0.0,0.0,0.0,0.0,0.0,0.0,0.0,0.0,0.0,0.6923,0.7292,0.0,0.0,0.0,0.0,0.0,0.0,0.0,0.0,0.0,0.0,0.0,0.0,0.6293,0.6841,0.7281,0.7622,0.7465,0.6951,0.6001,0.5121,0.4441,0.403,0.3913,0.392,0.0,0.0,0.0,0.0,0.0,0.0,0.0,0.0,0.0,0.0,0.0,0.0,0.0,0.0,0.0,0.0,0.0,0.0,0.0,0.0,0.0,0.0,0.0,0.0,0.0,0.0,0.0,0.0,0.0,0.0,0.0,0.0,0.2978,0.3268,0.0,0.0,0.0,0.0,0.0,0.0,0.0,0.0,0.0,0.0,0.0,0.0,0.0,0.8634,1.1251,1.2211,1.2924,1.3396,1.3396,1.244,1.0704,1.1857,1.2077,1.1499,1.1329,0.0,0.8233,0.8123,0.0,0.0,0.0,0.0,0.0,0.0,0.0,0.0,0.0,0.0,0.0,0.0,0.0,0.0,0.0,0.0,0.0,0.0,0.0,0.0,0.0,0.0,0.9157,0.8628,0.8799,0.9061,0.0,0.7478,0.6271,0.6671,0.6029,0.0,0.0,0.0,0.0,0.0,0.0,0.0,0.5986,0.6538,0.668,0.5997,0.5638,0.5291,0.4843,0.4016,0.3774,0.4382,0.3934,0.3728,0.392,0.3913,0.0,0.0,0.0,0.0,0.0,0.0,0.0,0.0,0.0,0.0,0.0,0.0,0.0,0.0,0.0,0.0,0.0,0.0,0.0,0.0,0.0,0.0,0.0,0.0,0.0,0.0,0.0,0.0,0.0,0.2688,0.3764,0.5009,0.4478,0.3715,0.0,0.0,0.0,0.0,0.0,0.0,0.0,0.0,0.0,1.0084,1.0684,1.1547,1.2689,1.3173,1.3396,1.3396,1.3396,1.2958,1.219,1.2468,1.2475,1.222,1.1683,1.0813,0.9793,1.0142,0.9878,0.9169,0.0,0.0,0.0,0.0,0.783,0.7562,0.8851,0.9251,0.0,0.9381,0.0,0.0,0.0,0.0,0.0,0.0,0.0,0.0,0.0,0.0,0.0,0.8967,0.9006,0.9105,0.9105,0.8381,0.7693,0.0,0.7109,0.6381,0.5452,0.0,0.0,0.0,0.0,0.0,0.6914,0.7247,0.7424,0.7292,0.6586,0.6021,0.5791,0.4939,0.449,0.4666,0.4424,0.4164,0.3913,0.3825,0.3578,0.0,0.0,0.0,0.0,0.0,0.0,0.0,0.0,0.0,0.0,0.0,0.0,0.0,0.0,0.0,0.0,0.0,0.0,0.0,0.0,0.0,0.0,0.0,0.0,0.0,0.0,0.0,0.0,0.3789,0.4758,0.6399,0.5943,0.4998,0.0,0.0,0.0,0.0,0.0,0.0,0.7922,1.0392,1.1805,1.1805,1.2852,1.3396,1.3396,1.3396,1.3396,1.3396,1.3396,1.326,1.298,1.2572,1.2534,1.2717,1.1997,1.1483,1.1113,1.149,1.1343,1.0757,0.946,0.8678,0.8372,0.9221,0.9189,0.8891,1.002,1.0496,1.0546,1.0051,0.0,1.006,0.8905,0.0,0.0,0.0,0.0,0.8855,0.9536,0.9597,0.9453,0.9221,0.9221,0.9284,0.9284,0.9226,0.8983,0.0,0.7988,0.7459,0.6408,0.0,0.0,0.0,0.0,0.6959,0.7636,0.7953,0.8172,0.8353,0.7486,0.6827,0.6672,0.5811,0.5193,0.494,0.4848,0.4526,0.3899,0.378,0.3704,0.3658,0.0,0.0,0.0,0.0,0.0,0.0,0.0,0.0,0.0,0.0,0.0,0.0,0.0,0.0,0.0,0.0,0.0,0.0,0.0,0.0,0.0,0.0,0.0,0.0,0.0,0.0,0.0,0.0,0.0,0.6586,0.6564,0.0,0.0,0.0,0.0,0.6436,0.8487,1.0248,1.1467,1.1694,1.1805,1.1805,1.2852,1.3396,1.3396,1.3396,1.3396,1.3396,1.3396,1.2871,1.1876,1.1854,1.2329,1.3177,1.3118,1.2522,1.1548,1.131,1.1103,1.0828,1.0101,0.939,0.8867,0.9603,0.9527,0.92,1.0095,1.0415,1.0514,1.1031,1.0891,1.0416,1.0078,0.9594,0.0,0.0,0.9487,0.9753,0.9483,0.987,1.0268,0.9932,1.0083,1.0303,1.0303,1.0076,0.9659,0.0,0.8994,0.8687,0.7357,0.0,0.7096,0.6052,0.6504,0.7113,0.747,0.8187,0.8431,0.781,0.7239,0.6802,0.6527,0.576,0.5297,0.5282,0.4966,0.4499,0.383,0.3794,0.3701,0.3508,0.3366,0.0,0.0,0.0,0.0,0.0,0.0,0.0,0.0,0.0,0.0,0.0,0.0,0.0,0.0,0.0,0.0,0.0,0.0,0.0,0.0,0.0,0.0,0.0,0.0,0.0,0.0,0.0,0.0,0.861,0.7683,0.0,0.8599,0.8725,0.8725,0.8725,0.9453,1.0084,1.0543,1.1341,1.1805,1.1805,1.2174,1.2376,1.2376,1.2376,1.2376,1.2376,1.2376,1.2485,1.2654,1.1414,1.139,1.2268,1.1555,1.1046,1.0661,1.0175,1.0131,1.0328,0.9742,0.9348,0.9173,0.9474,0.9466,0.9392,1.0148,1.0391,1.047,1.0902,1.0911,1.0692,1.0395,1.0143,0.9913,0.9665,0.9573,0.9542,0.9367,0.9361,0.9334,0.9224,0.9292,0.936,0.936,0.9283,0.9116,0.8885,0.8934,0.8745,0.7858,0.8103,0.8021,0.6899,0.7475,0.8002,0.791,0.8363,0.8558,0.8185,0.786,0.7546,0.7243,0.6799,0.6188,0.5421,0.5254,0.4735,0.3715,0.3547,0.3487,0.3492,0.3285,0.2937,0.0,0.0,0.0,0.0,0.0,0.0,0.0,0.0,0.0,0.0,0.0,0.0,0.0,0.0,0.0,0.0,0.0,0.0,0.0,0.0,0.0,0.0,0.0,0.0,0.0,0.0,0.7955,0.8654,0.8376,0.8332,0.8926,0.954,0.9686,0.9197,0.9621,0.9905,0.9905,1.0712,1.1363,1.1805,1.1805,1.1579,1.1159,1.1897,1.2267,1.2267,1.2267,1.2238,1.2175,1.1228,1.1107,1.1586,1.0633,1.0288,1.0391,0.9649,0.9538,0.9824,0.9456,0.9305,0.9336,0.9554,0.9731,0.9936,1.0348,1.038,1.026,1.0496,1.0496,1.0335,1.0135,1.0046,1.0021,0.974,0.9609,0.9528,0.9387,0.9174,0.8953,0.8844,0.8695,0.8601,0.8601,0.8479,0.8424,0.8574,0.8738,0.8686,0.8093,0.8427,0.8422,0.7354,0.7831,0.8222,0.7928,0.8129,0.8264,0.8198,0.7965,0.7709,0.7485,0.7239,0.6631,0.5542,0.5527,0.4993,0.3692,0.3507,0.3414,0.3366,0.3127,0.2869,0.2591,0.0,0.0,0.0,0.0,0.0,0.0,0.0,0.0,0.0,0.0,0.0,0.0,0.0,0.0,0.0,0.0,0.0,0.0,0.0,0.0,0.0,0.0,0.0,0.5294,0.6654,0.7336,0.6588,0.847,0.9127,0.7426,0.8806,0.9251,0.7802,0.9035,0.9854,0.9905,0.9905,1.047,1.1703,1.1814,1.1249,1.0032,1.2121,1.3198,1.3198,1.3082,1.2048,1.0315,1.125,1.1513,1.1196,1.0439,1.039,1.0723,0.9692,0.9332,0.9358,0.9284,0.9242,0.9315,0.985,1.0362,1.0792,1.073,1.0381,0.9956,0.9905,0.9709,0.9444,0.9405,0.9417,0.9444,0.9405,0.9632,0.9814,0.9461,0.9343,0.9262,0.8871,0.8462,0.815,0.8161,0.7856,0.7675,0.8065,0.8452,0.8579,0.8112,0.8289,0.8204,0.7364,0.7567,0.0,0.7524,0.75,0.7577,0.7766,0.7428,0.7195,0.718,0.6996,0.65,0.5648,0.5765,0.522,0.3777,0.3709,0.3526,0.3108,0.29,0.255,0.2024,0.0,0.0,0.0,0.0,0.0,0.0,0.0,0.0,0.0,0.0,0.0,0.0,0.0,0.0,0.0,0.0,0.0,0.0,0.0,0.0,0.0,0.0,0.5267,0.5303,0.5695,0.6137,0.6659,0.731,0.7891,0.8316,0.8339,0.8138,0.7725,0.808,0.8761,0.9841,0.9905,1.0072,1.0396,1.1992,1.2639,1.2284,1.2897,1.3198,1.3163,1.0117,0.9199,1.012,0.9413,0.9413,0.9864,0.8863,0.8542,0.856,0.7445,0.7599,0.843,0.8362,0.837,0.8405,0.8912,0.9817,1.0852,1.1229,1.1249,1.1019,1.0355,1.0247,1.0297,0.9672,0.9927,1.0225,0.9296,0.9343,0.9523,0.8789,0.8393,0.8138,0.8031,0.7695,0.7336,0.7032,0.6892,0.6824,0.6952,0.7071,0.7434,0.841,0.842,0.8174,0.7825,0.7993,0.0,0.7293,0.7513,0.7604,0.7322,0.7204,0.7028,0.6789,0.6536,0.6072,0.5288,0.5285,0.4941,0.4093,0.3962,0.3685,0.3184,0.3067,0.2874,0.0,0.0,0.0,0.0,0.0,0.0,0.0,0.0,0.0,0.0,0.0,0.0,0.0,0.0,0.0,0.0,0.0,0.0,0.0,0.0,0.0,0.0,0.4931,0.5309,0.5309,0.5494,0.5822,0.6348,0.6293,0.662,0.7738,0.7136,0.6957,0.7637,0.7695,0.8378,0.9993,1.0858,1.127,1.127,1.2522,1.3198,1.3198,1.148,1.0584,1.0583,0.8749,0.8219,0.8784,0.8419,0.8281,0.0,0.7459,0.71,0.7032,0.641,0.6587,0.0,0.0,0.0,0.0,0.0,1.035,1.0922,1.1463,1.1486,1.1137,1.0389,1.0205,1.0196,0.9709,0.9903,1.0132,0.9414,0.9486,0.9655,0.8974,0.8504,0.8109,0.7793,0.7266,0.6721,0.6336,0.6121,0.6037,0.6213,0.6121,0.0,0.7618,0.7915,0.782,0.7319,0.7766,0.7804,0.6735,0.6888,0.6926,0.6477,0.6432,0.6355,0.6159,0.6094,0.0,0.0,0.0,0.4995,0.4363,0.401,0.0,0.0,0.0,0.0,0.0,0.0,0.0,0.0,0.4555,0.4573,0.0,0.0,0.0,0.0,0.0,0.0,0.0,0.0,0.0,0.0,0.0,0.0,0.0,0.0,0.0,0.0,0.4795,0.5449,0.5474,0.5814,0.6009,0.5861,0.5396,0.5416,0.615,0.5649,0.5897,0.7324,0.756,0.8408,1.0205,0.0,0.0,0.0,0.0,1.2695,1.2695,0.9025,0.7138,0.7021,0.8162,0.808,0.6903,0.7772,0.7645,0.6797,0.6241,0.6033,0.609,0.609,0.6125,0.6265,0.6862,0.7945,0.9338,1.1071,1.1413,1.108,1.166,0.0,0.0,1.0374,1.0015,0.9734,0.9615,0.9669,0.9734,0.9716,0.9949,1.0122,0.9769,0.9299,0.8725,0.795,0.7107,0.6366,0.5851,0.546,0.5302,0.5634,0.5428,0.546,0.6152,0.6961,0.7224,0.6407,0.7223,0.7418,0.613,0.6062,0.5962,0.5503,0.0,0.0,0.5403,0.5611,0.5622,0.5387,0.5368,0.512,0.4555,0.3979,0.3735,0.3871,0.4208,0.4375,0.4361,0.4633,0.4985,0.5412,0.6043,0.6164,0.0,0.0,0.0,0.0,0.0,0.0,0.0,0.0,0.0,0.0,0.0,0.0,0.0,0.0,0.0,0.6942,0.6542,0.6332,0.6554,0.6215,0.5822,0.5456,0.4902,0.4549,0.4496,0.4966,0.5435,0.5742,0.6615,0.8079,1.0186,1.0649,1.0049,0.8261,0.9111,0.9554,0.9554,0.8773,0.7898,0.6979,0.0,0.0,0.6099,0.5964,0.6056,0.6288,0.5695,0.5728,0.6131,0.5658,0.5776,0.6307,0.7341,0.8174,0.8976,1.0501,1.1309,1.1745,1.2616,1.2572,1.2024,1.1183,1.0843,1.0573,0.9826,1.0138,0.0,1.0351,1.0547,1.0877,1.0728,0.9889,0.893,0.8389,0.736,0.6206,0.5099,0.4788,0.4666,0.4403,0.457,0.4794,0.4941,0.5689,0.6403,0.6863,0.7117,0.7044,0.6377,0.6327,0.6034,0.5273,0.4982,0.4846,0.4846,0.4708,0.4587,0.4527,0.4527,0.458,0.4656,0.4345,0.4034,0.3741,0.4116,0.4237,0.4075,0.4457,0.4908,0.5412,0.5756,0.6017,0.0,0.0,0.0,0.0,0.0,0.0,0.0,0.0,0.0,0.0,0.0,0.537,0.6246,0.0,0.6747,0.7578,0.7368,0.7145,0.7271,0.6669,0.6052,0.5659,0.496,0.4371,0.4026,0.4377,0.4826,0.5277,0.6563,0.8197,1.0186,0.9804,0.8976,0.7881,0.7282,0.6982,0.6982,0.7188,0.6798,0.5867,0.6264,0.6136,0.5604,0.5696,0.5744,0.5739,0.5437,0.5491,0.5766,0.5765,0.6083,0.6723,0.787,0.847,0.8884,1.0392,1.13,1.1813,1.2048,1.2106,1.199,1.1032,1.0491,1.0213,1.0,1.025,1.0608,1.0681,1.1057,1.133,1.0797,1.0036,0.9099,0.7957,0.7097,0.6144,0.4877,0.4602,0.4473,0.4086,0.4156,0.4377,0.457,0.4979,0.554,0.6366,0.6841,0.6958,0.6496,0.6185,0.5744,0.512,0.4601,0.4289,0.4289,0.4305,0.4313,0.4313,0.4171,0.4163,0.4289,0.4163,0.4003,0.3805,0.4401,0.4713,0.4746,0.5195,0.566,0.6158,0.65,0.6694,0.0,0.0,0.0,0.0,0.0,0.0,0.0,0.0,0.6022,0.5478,0.5497,0.6042,0.7442,0.6626,0.6199,0.748,0.7695,0.7695,0.7695,0.7125,0.6525,0.6003,0.524,0.4602,0.428,0.4151,0.4409,0.5246,0.6697,0.8203,0.9679,0.8989,0.8526,0.8388,0.6581,0.5582,0.5489,0.5787,0.5615,0.5014,0.613,0.6167,0.5308,0.5572,0.548,0.513,0.5366,0.5539,0.569,0.6168,0.6681,0.7259,0.83,0.8776,0.9023,1.0484,1.1248,1.16,1.1279,1.1364,1.1523,1.0678,1.006,0.9731,1.0186,1.0322,1.0468,1.1012,1.1511,1.1718,1.0842,1.0233,0.9414,0.7619,0.6837,0.6144,0.4782,0.4473,0.4344,0.3826,0.3793,0.3956,0.4307,0.4436,0.482,0.5758,0.6518,0.6857,0.6556,0.6039,0.5523,0.5043,0.4354,0.39,0.3835,0.4027,0.4171,0.4211,0.3973,0.3841,0.3902,0.3862,0.3841,0.3902,0.46,0.5126,0.5507,0.592,0.6394,0.6908,0.7239,0.7344,0.4268,0.4118,0.3966,0.3868,0.4028,0.4142,0.0,0.0,0.4977,0.6107,0.6922,0.7472,0.7666,0.7549,0.748,0.7666,0.7695,0.7695,0.7695,0.7618,0.7193,0.6191,0.5571,0.5214,0.5151,0.4654,0.4622,0.5246,0.6419,0.7258,0.7717,0.8014,0.7873,0.7189,0.6948,0.6597,0.6107,0.6142,0.6122,0.6007,0.5685,0.542,0.5265,0.4316,0.4096,0.4561,0.5652,0.6386,0.6803,0.6888,0.7245,0.7852,0.8464,0.8981,0.9531,1.0595,1.1029,1.1162,1.1589,1.1424,1.106,1.0957,1.0603,1.0225,1.0288,1.0597,1.1005,1.1571,1.2059,1.2317,1.1783,1.1017,0.9973,0.8219,0.7129,0.6052,0.4436,0.4058,0.3826,0.301,0.3134,0.3388,0.3421,0.3788,0.45,0.5727,0.6275,0.6563,0.6501,0.6221,0.5761,0.5068,0.4395,0.386,0.3568,0.3569,0.3689,0.3931,0.3689,0.3647,0.3883,0.3668,0.3668,0.3903,0.4224,0.4756,0.5507,0.5797,0.6266,0.6908,0.6944,0.7148,0.3816,0.3622,0.3564,0.0,0.3456,0.3341,0.3829,0.4431,0.5302,0.6831,0.7434,0.7695,0.7695,0.841,0.8981,0.0,0.8269,0.7695,0.7695,0.6897,0.6106,0.5634,0.5106,0.4908,0.5252,0.4764,0.4662,0.5246,0.593,0.6456,0.6797,0.6962,0.6709,0.5966,0.5019,0.4228,0.3626,0.3632,0.348,0.3125,0.3887,0.4073,0.3803,0.3635,0.3851,0.4448,0.5673,0.6319,0.6554,0.6881,0.714,0.7419,0.8031,0.8374,0.8724,1.0087,1.0582,1.0538,1.049,1.0288,1.0087,1.0087,0.9791,0.9481,1.0116,1.043,1.0718,1.1561,1.2154,1.2319,1.1582,1.1126,1.0256,0.7969,0.7149,0.6315,0.4399,0.3993,0.3733,0.2878,0.2841,0.3035,0.3257,0.3458,0.3946,0.4973,0.5494,0.593,0.6428,0.6018,0.5428,0.4736,0.4391,0.4168,0.4024,0.3881,0.3849,0.3962,0.3664,0.3478,0.3429,0.3478,0.3563,0.3668,0.4081,0.4618,0.526,0.5547,0.5881,0.6331,0.6441,0.6519,0.2945,0.2811,0.0,0.3007,0.2852,0.2918,0.3789,0.4729,0.5761,0.6914,0.7433,0.7676,0.7695,0.8899,0.9764,0.9357,0.841,0.7383,0.6455,0.4903,0.3944,0.4231,0.3626,0.3403,0.3955,0.4183,0.4422,0.4712,0.5042,0.5242,0.5261,0.5122,0.4728,0.4053,0.2526,0.1406,0.0842,0.0832,0.0524,0.0,0.139,0.1866,0.1524,0.2055,0.2631,0.3243,0.4453,0.5079,0.5261,0.5995,0.6458,0.6826,0.7404,0.7841,0.8275,0.9439,0.9836,0.977,0.9554,0.9376,0.9275,0.9625,0.934,0.9071,1.0021,1.0371,1.0621,1.1534,1.213,1.2293,1.1333,1.1082,1.0438,0.7741,0.7114,0.6551,0.4584,0.4086,0.3761,0.3006,0.2779,0.2779,0.3101,0.3134,0.3392,0.414,0.4483,0.5042,0.6014,0.5488,0.4814,0.4202,0.4094,0.4045,0.4045,0.383,0.3761,0.391,0.3577,0.3389,0.3349,0.3439,0.3541,0.3605,0.3999,0.4458,0.4982,0.5184,0.5423,0.5686,0.583,0.5775,0.1642,0.0,0.2081,0.1908,0.2272,0.2918,0.3718,0.4983,0.6003,0.6045,0.6892,0.7618,0.7686,0.8899,0.9437,0.7994,0.7725,0.6554,0.3318,0.1292,0.0605,0.1761,0.0856,0.0297,0.0,0.2737,0.3814,0.3399,0.362,0.3344,0.2391,0.208,0.1674,0.1062,-0.0134,-0.1029,-0.1598,-0.16,-0.1881,-0.2409,-0.182,-0.1556,-0.1558,-0.0992,-0.0438,0.0221,0.1417,0.2223,0.28,0.3971,0.5124,0.6181,0.6784,0.7682,0.8675,0.8716,0.8751,0.8811,0.9323,0.9154,0.888,0.9918,0.9934,0.9568,1.0128,1.0634,1.1106,1.164,1.2144,1.2293,1.1333,1.1105,1.0429,0.7738,0.7114,0.6649,0.4939,0.428,0.3858,0.3392,0.297,0.2712,0.2712,0.2712,0.2874,0.3294,0.3355,0.3802,0.508,0.4587,0.3977,0.3565,0.3297,0.3144,0.3144,0.3012,0.3164,0.3676,0.3325,0.3362,0.3948,0.3659,0.3626,0.389,0.3911,0.4175,0.4709,0.4729,0.4866,0.5126,0.5126,0.4982,0.1358,0.0,0.2218,0.2998,0.3563,0.4158,0.499,0.5945,0.673,0.6989,0.7778,0.856,0.9058,0.9569,0.8312,0.3393,0.1571,0.0609,0.0131,-0.0622,-0.1374,-0.2096,-0.2019,0.0,0.0,0.0,0.0,0.0287,0.0261,-0.0456,-0.2023,-0.2039,-0.269,-0.4311,-0.5139,-0.5927,-0.6716,-0.6748,-0.6827,-0.698,-0.5551,-0.4726,-0.4445,-0.3521,-0.301,-0.2789,-0.1586,-0.0752,-0.0176,0.0616,0.1624,0.2715,0.3317,0.4256,0.5291,0.5716,0.6372,0.7161,0.8107,0.8078,0.7719,0.8451,0.883,0.9071,0.9616,1.0128,1.0644,1.1126,1.1395,1.134,1.0671,1.0498,0.9845,0.7209,0.6562,0.6062,0.4148,0.3621,0.3397,0.2973,0.2779,0.2712,0.2712,0.2447,0.2172,0.1986,0.2744,0.357,0.4301,0.3634,0.3173,0.3339,0.2998,0.2901,0.3212,0.3013,0.3138,0.3677,0.3419,0.3358,0.3659,0.3559,0.3626,0.389,0.3737,0.3806,0.4171,0.4001,0.3953,0.4047,0.4224,0.4163,0.0743,0.1823,0.2984,0.3731,0.4804,0.5775,0.5983,0.6811,0.7635,0.7956,0.8648,0.9081,0.8785,0.7076,0.3855,-0.1819,-0.3375,-0.3642,-0.309,-0.3651,-0.4442,-0.539,-0.5335,-0.5703,0.0,0.0,0.0,-0.3575,-0.3854,-0.4753,-0.6465,-0.6573,-0.728,-0.8827,-0.9488,-1.0186,-1.0962,-1.0987,-1.0924,-1.0837,-0.9479,-0.8585,-0.8018,-0.6949,-0.6492,-0.6441,-0.5281,-0.4578,-0.417,-0.3212,-0.224,-0.1306,-0.0344,0.0688,0.1818,0.2593,0.3492,0.4604,0.6818,0.733,0.7124,0.7908,0.8299,0.8567,0.9277,0.9616,0.9867,1.0537,1.0579,1.0313,0.9731,0.9609,0.8987,0.6636,0.5906,0.5335,0.3718,0.3096,0.2758,0.2501,0.2305,0.2208,0.2208,0.1702,0.1129,0.0691,0.1079,0.1733,0.2668,0.2145,0.1849,0.2315,0.2087,0.2087,0.2554,0.2551,0.2747,0.3322,0.3191,0.3192,0.3424,0.3328,0.3287,0.3298,0.3123,0.3075,0.3147,0.2973,0.2931,0.3042,0.321,0.3258,-0.0241,0.1966,0.4077,0.3944,0.5774,0.7394,0.6641,0.7473,0.8474,0.8664,0.9264,0.9042,0.0,0.0,-0.3161,-0.6924,-0.6739,-0.6133,-0.6206,-0.755,-0.8375,0.0,0.0,0.0,0.0,0.0,0.0,-0.8273,0.0,-0.9469,-1.0833,-1.1402,-1.196,-1.2552,-1.3151,-1.3685,-1.4197,-1.4214,-1.4064,-1.3802,-1.3433,-1.2845,-1.2055,-1.1115,-1.0692,-1.0605,-0.9537,-0.9056,-0.8907,-0.7392,-0.6371,-0.5658,-0.4148,-0.2864,-0.1716,-0.0631,0.0126,0.1235,0.5144,0.6651,0.7021,0.8139,0.8196,0.8063,0.9063,0.9041,0.8833,0.9798,0.9663,0.9099,0.8479,0.8292,0.7802,0.5953,0.505,0.4404,0.3499,0.2574,0.189,0.189,0.1532,0.1238,0.1204,0.0464,-0.023,-0.0655,-0.1505,-0.147,0.0262,0.0132,0.0066,0.0534,0.0567,0.0735,0.1171,0.1495,0.1952,0.2577,0.2612,0.2819,0.3193,0.2993,0.2632,0.2177,0.2172,0.2025,0.1764,0.1764,0.1894,0.2129,0.2151,0.2311,-0.2087,-0.0095,0.1984,0.3506,0.5146,0.6306,0.6031,0.6713,0.7388,0.7386,0.7452,0.671,0.0,0.0,0.0,-0.5331,-0.735,0.0,-0.804,-0.9204,0.0,-1.0795,0.0,-1.3324,-1.411,-1.5329,0.0,0.0,-1.3665,-1.3346,-1.4967,-1.521,-1.5668,-1.651,-1.6598,-1.6811,-1.7199,-1.7206,-1.694,-1.641,-1.5855,-1.513,-1.4324,-1.369,-1.3329,-1.3165,-1.2866,-1.2493,-1.2064,-1.1651,-1.0912,-0.9926,-0.8848,-0.7701,-0.65,-0.5222,-0.385,-0.2414,-0.0636,0.193,0.4502,0.5261,0.6271,0.7293,0.7536,0.7807,0.8086,0.8333,0.7646,0.6757,0.6181,0.5707,0.4918,0.3195,0.2667,0.2249,0.1135,0.0702,0.0497,0.0497,0.0398,0.0233,-0.0133,-0.0926,-0.1648,-0.2085,-0.2911,-0.2831,-0.1044,-0.1478,-0.1652,-0.0859,-0.1093,-0.0995,-0.0267,0.0198,0.0708,0.1308,0.1647,0.1916,0.2179,0.2114,0.2027,0.1894,0.1654,0.1504,0.1438,0.122,0.1156,0.1242,0.1438,0.1463,-0.4269,-0.2085,0.0183,0.1902,0.3961,0.5583,0.5506,0.6232,0.6793,0.6324,0.6211,0.0,0.2684,0.0,0.0,0.0,0.0,0.0,-1.0105,-1.1335,-1.2515,0.0,-1.4693,0.0,-1.664,-1.7627,-1.8419,0.0,-1.7344,-1.6854,-1.7949,-1.8005,-1.8254,-1.8776,-1.8652,-1.8639,-1.8733,-1.8733,-1.852,-1.8109,-1.7542,-1.7,-1.6462,-1.6,-1.5747,-1.5591,0.0,-1.5442,-1.5123,-1.4897,-1.4393,-1.3666,-1.2737,-1.1756,-1.072,-0.9621,-0.8379,-0.7082,-0.5743,-0.344,-0.0682,0.1982,0.3713,0.4808,0.5267,0.5644,0.5961,0.6179,0.5432,0.438,0.3846,0.3268,0.2519,0.1312,0.0817,0.0432,-0.0261,-0.0571,-0.0686,-0.0602,-0.073,-0.1027,-0.1499,-0.2312,-0.3026,-0.3477,-0.414,-0.4124,-0.2909,-0.3029,-0.2943,-0.2243,-0.2252,-0.2027,-0.1331,-0.0667,-0.0164,0.019,0.0657,0.0951,0.1019,0.1067,0.1076,0.1016,0.0819,0.0733,0.0735,0.0581,0.0559,0.069,0.0844,0.0822,-0.6337,-0.396,-0.151,-0.0095,0.2599,0.4926,0.5045,0.5796,0.6245,0.5513,0.0,0.4548,0.2183,-0.068,-0.3811,-0.7297,0.0,-1.0223,-1.2104,-1.34,-1.4491,-1.5467,-1.6458,-1.7487,-1.8619,-1.9136,-1.9511,-1.9879,-1.9615,-1.9577,-1.9854,-1.9835,-1.9815,-1.9769,-1.9654,-1.9506,-1.9305,-1.9341,-1.9234,-1.9054,-1.8715,-1.845,-1.8209,-1.7915,-1.7731,-1.766,-1.7695,0.0,-1.7896,-1.7467,-1.7228,-1.7042,-1.6072,-1.5266,-1.4528,-1.3624,-1.2804,-1.1924,-1.023,-0.8794,-0.6845,-0.1575,0.0664,0.1514,0.2517,0.295,0.314,0.3677,0.3043,0.2047,0.1558,0.0977,0.0398,-0.0176,-0.0768,-0.1245,-0.1235,-0.161,-0.1877,-0.1686,-0.1994,-0.2386,-0.2794,-0.3538,-0.4215,-0.4564,-0.4953,-0.5055,-0.4666,-0.4344,-0.3946,-0.3375,-0.3053,-0.2659,-0.2123,-0.1333,-0.0869,-0.0869,-0.0315,-0.003,-0.0139,-0.0026,-0.0024,-0.0111,-0.0067,-0.0045,-0.0045,-0.0022,0.0112,0.0357,0.0338,0.034,-0.7007,-0.5334,-0.3537,-0.0649,0.1696,0.3572,0.4679,0.4821,0.0,0.0,0.4591,0.3671,0.2291,-0.0774,-0.399,-0.6721,0.0,0.0,0.0,0.0,-1.4641,0.0,0.0,0.0,0.0,0.0,0.0,0.0,0.0,-1.9873,-2.0208,-2.0054,-1.9854,-1.9635,-1.9611,-1.9493,-1.9305,-1.9467,-1.9448,-1.9253,-1.936,-1.9198,-1.884,-1.877,-1.8628,-1.8414,-1.8414,0.0,-1.9653,-1.9405,-1.9758,-2.0318,-1.8836,-1.8178,-1.7856,-1.6408,-1.5528,-1.4864,-1.3467,-1.2341,-1.0716,-0.5616,-0.2689,-0.0986,-0.0264,0.0266,0.071,0.1336,0.0623,-0.0311,-0.0399,-0.0889,-0.1451,-0.1969,-0.2483,-0.2939,-0.3086,-0.3377,-0.3581,-0.3536,-0.3588,-0.3686,-0.3756,-0.4172,-0.4526,-0.4596,-0.4666,-0.4698,-0.4602,-0.489,-0.4628,-0.3416,-0.3588,-0.3462,-0.2639,-0.2075,-0.1778,-0.1778,-0.1298,-0.1012,-0.0924,-0.0889,-0.0824,-0.0738,-0.0468,-0.0334,-0.0335,-0.0112,0.0022,0.0067,0.0072,0.0074,-0.8881,-0.7283,-0.5177,-0.196,0.0588,0.2694,0.4233,0.0,0.0,0.0,0.4347,0.3491,0.2141,0.0,0.0,0.0,0.0,0.0,0.0,0.0,0.0,0.0,0.0,0.0,0.0,0.0,0.0,0.0,0.0,-1.9587,-2.0019,-1.9952,-1.9797,-1.9616,-1.9602,-1.9504,-1.9305,-1.9281,-1.9281,-1.9289,-1.9287,-1.9241,-1.9153,-1.9168,-1.9097,-1.8974,-1.9068,0.0,-1.9849,-1.9815,-2.0221,-2.0691,-1.9377,-1.8976,-1.9018,-1.7833,-1.7286,-1.7012,-1.59,-1.4994,-1.3749,-1.0246,-0.6955,-0.414,-0.3005,-0.2075,-0.1287,-0.0667,-0.1157,-0.1825,-0.1821,-0.2487,-0.3221,-0.3432,-0.3929,-0.4348,-0.4392,-0.4335,-0.4302,-0.422,-0.4268,-0.4312,-0.4312,-0.4666,-0.489,-0.4634,-0.4602,-0.4436,-0.3978,-0.4339,-0.4377,-0.3723,-0.3658,-0.3397,-0.2739,-0.2477,-0.2247,-0.2014,-0.1967,-0.1905,-0.1823,-0.1739,-0.1466,-0.1011,-0.0858,-0.0581,-0.0203,-0.0051,0.0,0.0,0.0,-0.008,-0.9313,-0.7954,-0.572,-0.2306,0.0404,0.2609,0.4067,0.4584,0.0,0.0,0.415,0.3364,0.2062,0.0,-0.2374,0.0,0.0,0.0,0.0,0.0,0.0,0.0,0.0,0.0,0.0,0.0,0.0,0.0,0.0,0.0,-1.964,-1.9724,-1.9684,-1.954,-1.954,-1.9444,-1.9231,-1.9093,-1.9058,-1.9152,-1.9001,-1.9,-1.9146,-1.9212,-1.9246,-1.9243,-1.9499,0.0,0.0,-2.0031,-2.0489,-2.1001,-1.9685,-1.9416,-1.9661,-1.8582,-1.8217,-1.8151,-1.7394,-1.6644,-1.5683,-1.368,-1.05,-0.7185,-0.5618,-0.425,-0.3146,-0.2534,-0.2627,-0.2898,-0.2898,-0.3558,-0.4308,-0.4517,-0.4995,-0.5407,-0.5422,-0.5115,-0.4792,-0.4706,-0.471,-0.4762,-0.4762,-0.5055,-0.5151,-0.4666,-0.4538,-0.4178,-0.3388,-0.356,-0.3728,-0.3728,-0.3392,-0.2958,-0.2431,-0.2405,-0.2245,-0.1878,-0.2182,-0.2394,-0.2361,-0.2198,-0.1816,-0.123,-0.1035,-0.0673,-0.0084,0.0084,0.0084,0.0,0.0114,-0.0029,-0.5636,-0.532,-0.4031,-0.0032,0.2453,0.4038,0.4614,0.0,0.0,0.4464,0.3754,0.2846,0.233,0.0572,-0.1529,0.0,0.0,-0.796,0.0,0.0,0.0,0.0,0.0,0.0,0.0,0.0,0.0,0.0,0.0,0.0,-1.9203,-1.9479,-1.9522,-1.9341,-1.9341,-1.9235,-1.9035,-1.9019,-1.8887,-1.8665,-1.8656,-1.8642,-1.8679,-1.8931,-1.9018,-1.9052,-1.9427,0.0,0.0,-2.0982,-2.1958,-2.3284,-2.1166,-2.0662,-2.0877,-1.8854,-1.7956,-1.7706,-1.7312,-1.6666,-1.571,-1.3997,-1.1766,-0.9409,-0.7939,-0.6373,-0.4952,-0.4343,-0.3829,-0.3534,-0.3534,-0.3578,-0.3928,-0.4961,-0.5465,-0.582,-0.6361,-0.6019,-0.5593,-0.5594,-0.5379,-0.5246,-0.5246,-0.5277,-0.5151,-0.4666,-0.428,-0.3858,-0.336,-0.3003,-0.2812,-0.2812,-0.2768,-0.2398,-0.1505,-0.1438,-0.1405,-0.1371,-0.1802,-0.1985,-0.1876,-0.1833,-0.1747,-0.1561,-0.0837,-0.0419,-0.0363,0.0307,0.042,0.0,0.0447,0.0397,-0.2595,-0.2462,-0.1512,0.2246,0.3784,0.4466,0.4793,0.0,0.3703,0.4347,0.3595,0.2763,0.2525,0.1106,-0.0676,-0.2598,-0.4235,-0.6059,-0.8377,0.0,0.0,0.0,0.0,0.0,0.0,0.0,0.0,0.0,0.0,0.0,-1.7512,-1.8287,-1.8755,-1.8863,-1.8878,-1.8728,-1.8454,-1.8504,-1.8336,-1.7997,-1.8053,-1.8038,-1.8007,-1.811,-1.8268,-1.8495,-1.8886,0.0,0.0,-2.0403,-2.1222,-2.2181,-2.0547,-2.0045,-2.0011,-1.782,-1.6886,-1.6621,-1.6245,-1.5935,-1.5507,-1.4349,-1.2784,-1.0835,-0.8102,-0.6331,-0.5087,-0.4184,-0.3751,-0.3581,-0.3581,-0.41,-0.4836,-0.5658,-0.6459,-0.701,-0.6957,-0.6915,-0.6702,-0.6149,-0.5855,-0.5585,-0.534,-0.5055,-0.473,-0.4312,-0.3853,-0.3429,-0.3006,-0.2812,-0.258,-0.2314,-0.2278,-0.2006,-0.1371,-0.1305,-0.1305,-0.1305,-0.1742,-0.1961,-0.1915,-0.1913,-0.1635,-0.1065,-0.0752,-0.0439,-0.0157,0.0408,0.0597,0.044,0.0866,0.0971,0.0263,0.037,0.0989,0.3247,0.4036,0.4284,0.0,0.389,0.3589,0.3973,0.3329,0.2647,0.2427,0.1331,-0.0108,-0.1824,-0.3052,-0.4592,-0.6961,0.0,0.0,0.0,0.0,0.0,0.0,0.0,0.0,0.0,0.0,0.0,0.0,-1.6577,-1.7395,-1.8293,-1.8312,-1.8151,-1.783,-1.789,-1.7666,-1.7189,-1.7231,-1.7091,-1.6775,-1.6702,-1.6764,-1.7036,0.0,0.0,0.0,-1.9554,-2.0419,-2.1155,-1.9992,-1.9585,-1.9398,-1.7044,-1.612,-1.5961,-1.5122,-1.4978,-1.5046,-1.4153,-1.2939,-1.1267,-0.8477,-0.6642,-0.5336,-0.4355,-0.384,-0.3581,-0.3581,-0.4443,-0.5394,-0.583,-0.681,-0.7549,-0.719,-0.7243,-0.7158,-0.6424,-0.6076,-0.5765,-0.5372,-0.5023,-0.4634,-0.4086,-0.3723,-0.3298,-0.2779,-0.2712,-0.258,-0.2247,-0.2081,-0.1811,-0.1338,-0.1305,-0.1305,-0.1305,-0.1742,-0.2014,-0.2014,-0.1878,-0.1509,-0.0873,-0.0639,-0.0336,0.0,0.0471,0.0639,0.0504,0.0938,0.1039,0.3,0.3102,0.322,0.2577,0.297,0.3415,0.3095,0.3125,0.3204,0.3214,0.2831,0.2374,0.1987,0.1193,0.0045,-0.1628,-0.2531,-0.389,-0.6452,-0.7374,0.0,0.0,0.0,0.0,0.0,0.0,0.0,0.0,0.0,0.0,0.0,-1.4316,-1.5336,-1.7533,-1.761,-1.7484,-1.7226,-1.7226,-1.6876,-1.6219,-1.6219,-1.574,-1.4819,-1.4544,-1.4428,0.0,0.0,0.0,0.0,-1.8659,-1.9984,-2.0909,-1.9974,-1.9717,-1.9561,-1.6837,-1.5991,-1.6031,-1.418,-1.3906,-1.4251,-1.3244,-1.1955,-1.0637,-0.9579,-0.7802,-0.5993,-0.5427,-0.4487,-0.3581,-0.3581,-0.4443,-0.5303,-0.5308,-0.6161,-0.7021,-0.7021,-0.6905,-0.6688,-0.63,-0.6037,-0.5765,-0.5372,-0.5309,-0.4992,-0.4123,-0.3993,-0.3663,-0.2812,-0.2712,-0.2712,-0.2679,-0.2281,-0.1811,-0.1338,-0.1305,-0.1305,-0.1305,-0.1742,-0.2014,-0.2014,-0.154,-0.1305,-0.1305,-0.0436,0.0,0.0,0.0471,0.0471,0.0034,0.0504,0.0471,0.4556,0.4412,0.4008,0.2884,0.3058,0.3392,0.2962,0.2886,0.2935,0.2935,0.2407,0.1858,0.1542,0.0703,-0.0515,-0.2234,-0.3218,-0.4401,0.0,0.0,0.0,0.0,0.0,0.0,0.0,0.0,0.0,0.0,0.0,0.0,0.0,-1.2805,-1.396,-1.6094,-1.6484,-1.6472,-1.6111,-1.6375,-1.5994,-1.496,-1.4917,-1.4256,-1.2997,-1.2498,0.0,0.0,0.0,0.0,0.0,-1.0078,-1.214,-1.6072,-1.33,-1.4553,-1.772,-1.607,-1.4848,-1.3856,-1.2476,-1.1722,-1.1331,-1.0978,-1.0315,-0.96,-0.902,-0.7847,-0.6428,-0.5077,-0.418,-0.3667,-0.4049,-0.47,-0.5394,-0.583,-0.6768,-0.7507,-0.7197,-0.7243,-0.713,-0.6404,-0.6083,-0.5765,-0.5372,-0.4794,-0.4312,-0.4026,-0.3504,-0.301,-0.2746,-0.2712,-0.2712,-0.2712,-0.258,-0.2281,-0.1811,-0.1473,-0.144,-0.1744,-0.1911,-0.2014,-0.2014,-0.1845,-0.1642,-0.1305,-0.1037,-0.0904,-0.0904,-0.0468,-0.0167,0.0,0.0166,-0.0033,0.491,0.4566,0.3912,0.2968,0.2874,0.2916,0.2579,0.2541,0.2526,0.2346,0.1868,0.1357,0.0951,0.0102,-0.1033,-0.2548,-0.3405,-0.4463,0.0,0.0,0.0,0.0,0.0,0.0,0.0,0.0,0.0,0.0,0.0,0.0,0.0,-1.1271,-1.2234,-1.3706,-1.4755,-1.5272,-1.5197,-1.5272,-1.4825,-1.3899,-1.348,-1.266,-1.1406,-1.018,0.0,0.0,0.0,0.0,0.0,-0.6182,-0.8484,-1.2517,-1.0762,-1.2711,-1.6268,-1.4717,-1.3517,-1.2489,-1.0829,-1.0026,-0.963,-0.921,-0.9006,-0.888,-0.8472,-0.757,-0.641,-0.5125,-0.4482,-0.4316,-0.4652,-0.5173,-0.5739,-0.6093,-0.6901,-0.748,-0.7185,-0.7069,-0.6837,-0.6138,-0.569,-0.5282,-0.489,-0.4344,-0.3928,-0.3756,-0.3266,-0.2874,-0.2712,-0.2712,-0.2712,-0.2712,-0.2712,-0.258,-0.2281,-0.2009,-0.1942,-0.2247,-0.2281,-0.2281,-0.2281,-0.2081,-0.1878,-0.1573,-0.1406,-0.1305,-0.1305,-0.1036,-0.0767,-0.0499,-0.0499,-0.0633,0.0,0.3749,0.3134,0.2802,0.2451,0.2142,0.1999,0.206,0.0,0.1557,0.1239,0.0853,0.0237,-0.0599,-0.1589,-0.2812,-0.3414,0.0,0.0,0.0,0.0,0.0,0.0,0.0,0.0,0.0,0.0,0.0,0.0,0.0,0.0,-0.9864,-1.0379,-1.0884,-1.2706,-1.3887,-1.4392,-1.403,-1.3532,-1.3026,-1.2071,-1.1068,-1.0012,-0.7805,0.0,0.0,0.0,0.0,0.0,-0.5747,-0.7908,-1.0039,-1.1175,-1.3162,-1.5155,-1.2981,-1.2164,-1.1779,-0.9337,-0.8709,-0.8828,-0.7862,-0.7901,-0.827,-0.7923,-0.7112,-0.613,-0.5524,-0.5346,-0.5308,-0.5351,-0.583,-0.6264,-0.6264,-0.6641,-0.6972,-0.6952,-0.6448,-0.5892,-0.5485,-0.4957,-0.4451,-0.4053,-0.3961,-0.3793,-0.336,-0.3257,-0.3064,-0.2712,-0.2646,-0.2646,-0.2646,-0.2679,-0.2712,-0.2712,-0.2712,-0.2712,-0.2712,-0.2712,-0.2712,-0.2712,-0.2281,-0.2047,-0.2047,-0.1607,-0.1405,-0.1438,-0.1438,-0.1471,-0.1505,-0.1471,-0.1471,0.3043,0.0,0.3123,0.2187,0.2005,0.1972,0.0,0.1639,0.1546,0.112,0.0704,0.0193,-0.0502,-0.1439,-0.2752,-0.4768,-0.5538,0.0,0.0,0.0,0.0,0.0,0.0,0.0,0.0,0.0,0.0,0.0,0.0,0.0,0.0,-0.9359,-1.005,-1.0964,-1.1813,-1.2648,-1.3411,-1.3729,-1.345,-1.2554,-1.1997,-1.0816,-0.9022,-0.7539,-0.6193,0.0,0.0,0.0,-0.1479,-0.0231,-0.2749,-0.7252,-0.6244,-0.9046,-1.3483,-1.254,-1.1731,-1.0809,-0.8529,-0.7337,-0.6706,-0.6066,-0.6259,-0.6784,-0.7098,-0.7014,-0.6706,-0.613,-0.5653,-0.5394,-0.5873,-0.6416,-0.679,-0.681,-0.693,-0.6857,-0.6281,-0.5531,-0.4877,-0.468,-0.4379,-0.4113,-0.4026,-0.3691,-0.3425,-0.3327,-0.2735,-0.2278,-0.2181,-0.2181,-0.2181,-0.2181,-0.248,-0.2712,-0.2712,-0.2712,-0.2712,-0.2712,-0.2712,-0.2712,-0.2712,-0.2583,-0.2547,-0.2547,-0.2411,-0.2537,-0.2827,-0.2827,-0.3024,-0.336,-0.2995,-0.3024,0.2423,0.2611,0.2682,0.2008,0.1757,0.1631,0.1445,0.1263,0.1031,0.0,0.0,-0.0472,-0.1298,-0.2643,-0.4135,-0.5691,-0.7027,0.0,0.0,0.0,0.0,0.0,0.0,0.0,0.0,0.0,0.0,0.0,0.0,0.0,0.0,-0.9079,-0.9628,-0.9923,-1.0922,-1.1886,-1.2834,-1.3101,-1.2998,-1.2425,-1.1729,-1.0778,-0.9661,-0.7989,-0.6737,0.0,0.0,0.0,-0.0894,-0.0124,-0.2146,-0.5769,-0.5421,-0.8015,-1.1895,-1.122,-1.0497,-0.9644,-0.8446,-0.7175,-0.5993,-0.5465,-0.5524,-0.583,-0.6124,-0.624,-0.6277,-0.6507,-0.6337,-0.6081,-0.6179,-0.6428,-0.6543,-0.6289,-0.624,-0.6023,-0.5345,-0.4576,-0.3914,-0.3549,-0.3086,-0.2761,-0.2761,-0.2563,-0.2465,-0.2669,-0.2311,-0.2081,-0.2281,-0.2314,-0.2314,-0.2314,-0.2547,-0.2712,-0.2712,-0.2712,-0.2712,-0.2712,-0.2712,-0.2712,-0.2712,-0.2712,-0.2779,-0.297,-0.297,-0.32,-0.3626,-0.3626,-0.3761,-0.3993,-0.3728,-0.3756,0.1994,0.1907,0.189,0.1841,0.1473,0.1115,0.1084,0.0,0.0,0.0,0.0,0.0,0.0,-0.4008,0.0,0.0,0.0,0.0,0.0,0.0,0.0,0.0,0.0,0.0,0.0,0.0,0.0,0.0,0.0,0.0,0.0,-0.8958,-0.9279,-0.8837,-1.0234,-1.1457,-1.2389,-1.2532,-1.2591,-1.2591,-1.1757,-1.1248,-1.1015,-0.9014,-0.8071,-0.785,0.0,0.0,-0.2052,-0.3149,-0.4315,-0.5578,-0.7043,-0.8989,-1.0845,-1.0012,-0.9518,-0.9212,-0.8937,-0.7739,-0.6258,-0.5859,-0.5533,-0.5313,-0.5474,-0.542,-0.5518,-0.6465,-0.6725,-0.6641,-0.6179,-0.6044,-0.5905,-0.5303,-0.5077,-0.4842,-0.4242,-0.3556,-0.2895,-0.2343,-0.1723,-0.1284,-0.1306,-0.1371,-0.154,-0.1947,-0.2014,-0.2147,-0.2547,-0.258,-0.258,-0.258,-0.265,-0.2712,-0.2712,-0.2712,-0.2712,-0.2712,-0.2712,-0.2712,-0.2712,-0.2712,-0.2874,-0.3196,-0.3196,-0.3462,-0.3993,-0.3923,-0.3956,-0.4091,-0.3956,-0.3923,0.119,0.0795,0.0593,0.0979,0.0708,0.0306,0.008,-0.041,0.0,0.0,0.0,0.0,0.0,0.0,0.0,0.0,0.0,0.0,0.0,0.0,0.0,0.0,0.0,0.0,0.0,0.0,0.0,0.0,0.0,0.0,0.0,-0.9159,-0.9478,-0.9399,-1.0437,-1.1282,-1.1884,-1.2648,-1.3004,-1.3004,-1.3251,-1.2871,-1.1978,-1.0777,-1.018,-0.9923,0.0,-0.6266,-0.652,-0.764,-0.778,-0.7551,-1.001,-1.12,-1.1491,-1.0818,-1.1113,-1.1627,-1.0276,-0.8786,-0.7469,-0.7615,-0.6591,-0.543,-0.6164,-0.5903,-0.5346,-0.5518,-0.5561,-0.5561,-0.548,-0.5401,-0.5199,-0.4669,-0.4129,-0.3598,-0.2864,-0.225,-0.1784,-0.1528,-0.1376,-0.1309,-0.1316,-0.1642,-0.1911,-0.1981,-0.2014,-0.2014,-0.2114,-0.2114,-0.2114,-0.2114,-0.2447,-0.2712,-0.2712,-0.2712,-0.2712,-0.2712,-0.2712,-0.2712,-0.2712,-0.2712,-0.2712,-0.2779,-0.2779,-0.3204,-0.3993,-0.3593,-0.3784,-0.45,-0.3751,-0.3626,0.042,-0.0042,-0.0462,-0.071,-0.0808,-0.0966,-0.1492,-0.1938,0.0,0.0,0.0,0.0,0.0,0.0,0.0,0.0,0.0,0.0,0.0,0.0,0.0,0.0,0.0,0.0,0.0,0.0,0.0,0.0,0.0,0.0,0.0,0.0,-0.9804,-0.9518,-1.0225,-1.0992,-1.1774,-1.2634,-1.3217,-1.355,-1.4151,-1.411,-1.3408,-1.2893,-1.2516,-1.2185,0.0,-0.9834,-1.0026,-1.0563,-1.0531,-1.024,-1.1492,-1.1977,-1.1942,-1.1658,-1.2267,-1.3065,-1.1762,-1.0852,-1.0139,-0.9379,-0.7933,-0.6548,-0.6669,-0.6046,-0.5221,-0.4913,-0.5043,-0.513,-0.4509,-0.4318,-0.4046,-0.3187,-0.2786,-0.2417,-0.1735,-0.1404,-0.1119,-0.0676,-0.0848,-0.1079,-0.0991,-0.1438,-0.1839,-0.1988,-0.2014,-0.2081,-0.2347,-0.238,-0.2477,-0.2673,-0.2904,-0.3138,-0.3368,-0.3405,-0.3204,-0.2746,-0.2712,-0.2812,-0.3003,-0.2808,-0.3039,-0.3723,-0.3499,-0.3826,-0.4698,-0.4494,-0.4462,-0.4602,-0.43,-0.4155,-0.0347,-0.0867,-0.1503,-0.2336,-0.2222,-0.2148,-0.3031,-0.3452,-0.3835,0.0,0.0,0.0,0.0,0.0,0.0,0.0,0.0,0.0,0.0,0.0,0.0,0.0,0.0,0.0,0.0,0.0,0.0,0.0,0.0,0.0,0.0,0.0,-1.004,-0.9518,-1.0,-1.0736,-1.1579,-1.2448,-1.3251,-1.4052,-1.4897,-1.5182,-1.4923,-1.4795,-1.4675,-1.4426,-1.3218,-1.2746,-1.2835,-1.2835,-1.27,-1.2531,-1.2843,-1.291,-1.2847,-1.312,-1.3844,-1.4543,-1.3615,-1.3281,-1.2979,-1.1372,-0.9729,-0.8217,-0.7527,-0.6508,-0.5533,-0.4957,-0.5038,-0.4995,-0.3679,-0.3193,-0.2841,-0.1828,-0.1607,-0.1474,-0.0984,-0.1002,-0.1018,-0.0714,-0.0896,-0.1135,-0.1155,-0.1572,-0.1966,-0.2168,-0.2426,-0.2702,-0.2973,-0.3072,-0.3233,-0.3425,-0.3458,-0.3626,-0.3956,-0.3993,-0.3761,-0.3167,-0.3072,-0.3138,-0.3458,-0.3171,-0.3467,-0.4441,-0.4156,-0.4318,-0.4992,-0.489,-0.4657,-0.4361,-0.4255,-0.4115,-0.1107,-0.1836,-0.2661,-0.3402,-0.3059,-0.2896,-0.4252,-0.4771,0.0,-0.5974,0.0,0.0,0.0,0.0,0.0,0.0,0.0,0.0,0.0,0.0,0.0,0.0,0.0,0.0,0.0,0.0,0.0,0.0,0.0,0.0,0.0,0.0,0.0,-0.9518,-1.0,-1.0544,-1.1057,-1.1997,-1.3107,-1.447,-1.5637,-1.6203,-1.6176,-1.6099,-1.6246,-1.648,-1.4859,-1.4359,-1.4711,-1.4711,-1.4197,-1.3525,-1.4701,-1.4979,-1.4813,-1.581,-1.638,-1.6599,-1.6082,-1.5737,-1.5246,-1.3793,-1.2084,-1.0326,-0.9133,-0.777,-0.6597,-0.6099,-0.5669,-0.4908,-0.3199,-0.2361,-0.1739,-0.1118,-0.0984,-0.0939,-0.0895,-0.1337,-0.1886,-0.2389,-0.2077,-0.1923,-0.2449,-0.2707,-0.2805,-0.284,-0.3727,-0.429,-0.3956,-0.4231,-0.4322,-0.3988,-0.3961,-0.3961,-0.3993,-0.3993,-0.4145,-0.4445,-0.4108,-0.3928,-0.3961,-0.3928,-0.3961,-0.4026,-0.4026,-0.4026,-0.4091,-0.3653,-0.3516,-0.3664,-0.2665,-0.2557,-0.1559,-0.2554,-0.3557,-0.3924,-0.4716,0.0,0.0,-0.7053,-0.7798,-0.8514,-0.9658,0.0,0.0,0.0,0.0,0.0,0.0,0.0,0.0,0.0,0.0,0.0,0.0,0.0,0.0,0.0,0.0,0.0,0.0,0.0,0.0,0.0,0.0,-1.0437,-1.0351,-1.0544,-1.1019,-1.1925,-1.297,-1.4095,-1.5534,-1.6254,-1.6313,-1.6716,-1.6843,-1.6763,-1.6123,-1.5955,-1.6065,-1.6065,-1.5854,-1.5585,-1.6088,-1.62,-1.6138,-1.653,-1.7032,-1.7456,-1.7412,-1.7107,-1.6739,-1.6355,-1.4671,-1.268,-1.2246,-1.08,-0.9193,-0.8388,-0.7717,-0.6613,-0.3909,-0.3017,-0.2708,-0.2133,-0.2001,-0.2131,-0.2436,-0.27,-0.2906,-0.3156,-0.3606,-0.3965,-0.4104,-0.4563,-0.4848,-0.4733,-0.5077,-0.519,-0.4808,-0.4865,-0.4913,-0.4756,-0.4934,-0.5144,-0.535,-0.5401,-0.5392,-0.5298,-0.4487,-0.4215,-0.4712,-0.4274,-0.4248,-0.4794,-0.4285,-0.4123,-0.4377,-0.4019,-0.3565,-0.3036,-0.2806,-0.2314,-0.2148,-0.3144,-0.4235,-0.4797,0.0,0.0,-0.8166,-0.8912,-0.9642,-1.03,-1.1386,0.0,0.0,0.0,0.0,0.0,0.0,0.0,0.0,0.0,0.0,0.0,0.0,0.0,0.0,0.0,0.0,0.0,0.0,0.0,0.0,0.0,0.0,-1.1008,-1.0687,-1.0611,-1.0802,-1.1729,-1.2601,-1.3365,-1.5036,-1.6044,-1.6474,-1.7035,-1.7224,-1.7117,-1.7002,-1.6968,-1.6968,-1.6968,-1.7018,-1.7117,-1.7117,-1.7043,-1.6968,-1.6968,-1.7316,-1.7841,-1.8212,-1.8199,-1.8019,-1.8068,-1.6784,-1.5149,-1.466,-1.3242,-1.1661,-1.0832,-0.9899,-0.8601,-0.6163,-0.4777,-0.3876,-0.3346,-0.3346,-0.3608,-0.3951,-0.4336,-0.4595,-0.4604,-0.5344,-0.5955,-0.5913,-0.6335,-0.6644,-0.6328,-0.662,-0.6643,-0.6076,-0.6264,-0.6316,-0.6065,-0.6222,-0.6384,-0.6455,-0.6484,-0.6387,-0.6055,-0.5181,-0.4865,-0.5226,-0.4692,-0.4704,-0.5277,-0.4645,-0.4355,-0.4482,-0.4016,-0.3382,-0.2621,-0.243,-0.1762,-0.2915,-0.3639,-0.4666,-0.6138,0.0,0.0,-0.9792,-1.0216,-1.0404,-1.1084,-1.1661,-1.2459,-1.3856,0.0,0.0,0.0,0.0,0.0,0.0,0.0,0.0,0.0,0.0,0.0,0.0,0.0,0.0,0.0,0.0,0.0,0.0,0.0,-1.2008,-1.1046,-1.1008,-1.0802,-1.0322,-1.1292,-1.2006,-1.2413,-1.4142,-1.562,-1.6815,-1.715,-1.7462,-1.7789,-1.7439,-1.732,-1.732,-1.732,-1.7502,-1.7811,-1.7811,-1.7595,-1.7304,-1.7304,-1.7532,-1.7912,-1.8639,-1.9043,-1.9137,-1.8768,-1.8351,-1.7701,-1.6113,-1.4807,-1.373,-1.3325,-1.2084,-1.0683,-1.0099,-0.7611,-0.5132,-0.4474,-0.4782,-0.5222,-0.5222,-0.6109,-0.6927,-0.7022,-0.7409,-0.7732,-0.7814,-0.7991,-0.7977,-0.7487,-0.8371,-0.8785,-0.7921,-0.8546,-0.8751,-0.7877,-0.7815,-0.7602,-0.7049,-0.7006,-0.6941,-0.6796,-0.6439,-0.5927,-0.5342,-0.5322,-0.5322,-0.5322,-0.5055,-0.4657,-0.4202,-0.3328,-0.275,-0.2472,-0.1257,-0.077,-0.2334,-0.3622,0.0,-0.5995,0.0,0.0,0.0,-1.1,0.0,0.0,-1.3427,-1.3552,-1.4245,0.0,0.0,0.0,0.0,0.0,0.0,0.0,0.0,0.0,0.0,0.0,0.0,0.0,0.0,0.0,0.0,0.0,0.0,-1.3808,-1.3094,-1.2507,-1.1841,-1.1287,-1.0791,-1.1479,-1.2006,-1.2413,-1.3939,-1.5271,-1.6396,-1.7019,-1.7602,-1.8078,-1.7794,-1.7755,-1.7915,-1.7732,-1.7704,-1.7811,-1.7811,-1.7743,-1.7658,-1.7658,-1.804,-1.8685,-1.9434,-1.986,-2.0166,-2.0575,-1.9834,-1.8629,-1.7927,-1.6849,-1.5627,-1.4485,-1.3876,-1.3223,-1.1881,-1.0833,-0.962,-0.7719,-0.7399,-0.7551,-0.7658,-0.8181,-0.8665,-0.869,-0.9103,-0.9557,-0.9916,-1.01,-1.0147,-1.0006,-1.0004,-0.9672,-0.8776,-0.8636,-0.8467,-0.8126,-0.8085,-0.811,-0.8172,-0.7885,-0.7545,-0.7243,-0.6841,-0.6528,-0.6348,-0.6068,-0.5934,-0.5934,-0.513,-0.4608,-0.4465,-0.3231,-0.2355,-0.1848,-0.0734,0.022,-0.2619,-0.3956,0.0,-0.6591,-0.8127,-0.9566,-1.0396,0.0,0.0,0.0,0.0,0.0,0.0,0.0,0.0,0.0,0.0,0.0,0.0,0.0,0.0,0.0,0.0,0.0,0.0,0.0,0.0,0.0,0.0,0.0,0.0,-1.4807,-1.4156,-1.3398,-1.2634,-1.2021,-1.1546,-1.1898,-1.2294,-1.2693,-1.3914,-1.5002,-1.5985,-1.6751,-1.7462,-1.8035,-1.7992,-1.8233,-1.8662,-1.8616,-1.8789,-1.907,-1.907,-1.8875,-1.8629,-1.8966,-1.8874,-1.8774,-1.9833,-2.0152,-2.0151,-2.0595,-2.0136,-1.9326,-1.8808,-1.8152,-1.734,-1.6186,-1.5783,-1.5448,-1.4146,-1.3409,-1.2531,-1.0467,-0.9839,-0.9762,-0.9838,-1.0108,-1.0272,-1.0031,-1.0737,-1.137,-1.1491,-1.1697,-1.1836,-1.1641,-1.1244,-1.0827,-1.0433,-0.981,-0.9398,-0.9338,-0.9147,-0.8945,-0.8699,-0.8437,-0.7984,-0.7263,-0.6816,-0.6564,-0.6564,-0.6084,-0.5856,-0.5856,-0.488,-0.4256,-0.4017,-0.2808,-0.1805,-0.0946,-0.0044,0.1025,-0.3335,0.0,0.0,-0.7519,-0.8409,0.0,-1.0378,0.0,0.0,0.0,0.0,0.0,0.0,0.0,0.0,0.0,0.0,0.0,0.0,0.0,0.0,0.0,0.0,0.0,0.0,0.0,0.0,0.0,0.0,0.0,0.0,-1.5677,-1.5124,-1.3971,-1.3465,-1.2992,-1.2483,-1.2579,-1.2777,-1.3094,-1.4076,-1.4956,-1.569,-1.6454,-1.7199,-1.7896,-1.8138,-1.8683,-1.9404,-1.9676,-2.0243,-2.0904,-2.0957,-2.0545,-1.9992,-2.0702,-1.9931,-1.871,-1.9987,-2.0111,-1.9652,-1.9503,-1.9662,-1.9773,-1.901,-1.8847,-1.8776,-1.7955,-1.7571,-1.7277,-1.646,-1.5373,-1.4141,-1.2881,-1.2165,-1.1788,-1.1752,-1.1854,-1.1813,-1.1206,-1.2236,-1.3039,-1.2566,-1.2867,-1.2992,-1.2425,-1.2031,-1.192,-1.2246,-1.1505,-1.0943,-1.0943,-1.0534,-0.9883,-0.8878,-0.8675,-0.8177,-0.7056,-0.6435,-0.6136,-0.6136,-0.5607,-0.529,-0.529,-0.4463,-0.3723,-0.3137,-0.2184,-0.1114,0.0,0.0847,0.1827,-0.2495,-0.3847,0.0,0.0,-0.8842,-0.9995,-1.018,-0.9828,0.0,0.0,0.0,0.0,0.0,0.0,0.0,0.0,0.0,0.0,0.0,0.0,0.0,0.0,0.0,0.0,0.0,0.0,0.0,0.0,0.0,0.0,-1.6145,-1.616,-1.5737,-1.4847,-1.4355,-1.3736,-1.2958,-1.3344,-1.3377,0.0,-1.4351,-1.5345,-1.6095,-1.6575,-1.7486,-1.8646,-1.8572,-1.881,-1.9339,-1.9656,-1.9903,-2.0116,-2.0761,-2.0886,-2.072,-2.064,-2.0726,-2.08,-2.0294,-2.0805,-2.1479,-2.0269,-1.9906,-1.9784,-1.8792,-1.8849,-1.8974,-1.7444,-1.7752,-1.8266,-1.7014,-1.6266,-1.5792,-1.5489,-1.4353,-1.32,-1.279,-1.3044,-1.323,-1.2726,-1.3183,-1.3524,-1.3091,-1.3421,-1.3327,-1.2115,-1.1872,-1.1553,-1.0878,-1.0572,-1.0467,-1.0467,-1.0361,-1.004,-0.9399,-0.8513,-0.7728,-0.7036,-0.607,-0.548,-0.548,-0.5387,-0.5292,-0.5292,-0.4654,-0.4022,-0.341,-0.1853,-0.0711,0.0044,0.2505,0.3771,-0.2302,0.0,0.0,-0.7446,0.0,-0.9461,-0.9057,0.0,0.0,0.0,0.0,0.0,0.0,0.0,0.0,0.0,0.0,0.0,0.0,0.0,0.0,0.0,0.0,0.0,0.0,0.0,0.0,0.0,0.0,-1.6301,-1.6301,-1.6301,-1.6037,-1.5448,-1.497,-1.454,-1.4068,-1.4127,-1.4127,-1.4082,-1.4755,-1.5593,-1.6507,-1.7052,-1.7695,-1.8375,-1.8402,-1.8831,-1.9587,-2.0285,-2.0873,-2.1402,-2.2236,-2.2073,-2.1402,-2.1479,-2.1154,-2.0655,-2.0336,-2.0901,-2.1515,-1.9976,-1.9697,-1.9757,-1.8492,-1.861,-1.8867,-1.7436,-1.8048,-1.8771,-1.7209,-1.6779,-1.6704,-1.6378,-1.5345,-1.4337,-1.4073,-1.4068,-1.4063,-1.3822,-1.3966,-1.4076,-1.3868,-1.3643,-1.3213,-1.227,-1.1957,-1.1627,-1.1105,-1.0562,-1.0244,-1.0244,-0.9825,-0.9319,-0.8797,-0.7941,-0.7189,-0.667,-0.5245,-0.4422,-0.4422,-0.3894,-0.3894,-0.4422,-0.3858,-0.3152,-0.2266,-0.1065,0.0265,0.1715,0.354,0.4838,-0.2162,0.0,-0.5629,-0.7596,-0.8413,0.0,-0.7859,0.0,0.0,0.0,0.0,0.0,0.0,0.0,0.0,0.0,0.0,0.0,0.0,0.0,0.0,0.0,0.0,0.0,0.0,0.0,0.0,0.0,0.0,-1.6301,-1.6301,-1.6301,-1.6151,-1.5799,-1.5418,-1.5165,-1.5104,-1.4907,-1.4954,-1.5196,-1.5404,-1.5963,-1.6917,-1.7519,-1.7879,-1.7997,-1.8151,-1.8787,-1.979,-2.0783,-2.1716,-2.2594,-2.3437,-2.296,-2.1841,-2.2165,-2.1384,-2.0132,-2.0333,-2.0839,-2.1126,-1.9587,-1.9604,-1.9951,-1.8582,-1.8643,-1.8967,-1.7947,-1.8536,-1.9121,-1.7556,-1.7298,-1.731,-1.6766,-1.6083,-1.55,-1.5268,-1.4968,-1.469,-1.4533,-1.4374,-1.4278,-1.4251,-1.3557,-1.2775,-1.2187,-1.1752,-1.1457,-1.1271,-1.0494,-0.9904,-0.9808,-0.9044,-0.83,-0.7641,-0.6939,-0.6349,-0.5916,-0.42,-0.3193,-0.319,-0.2222,-0.1954,-0.2558,-0.2438,-0.1781,-0.058,0.0,0.1456,0.3666,0.4444,0.5682,-0.1344,0.0,-0.6024,0.0,-0.7804,-0.8251,0.0,0.0,0.0,0.0,0.0,0.0,0.0,0.0,0.0,0.0,0.0,0.0,0.0,0.0,0.0,0.0,0.0,0.0,0.0,0.0,0.0,0.0,-1.6301,-1.6301,-1.6301,-1.6301,-1.6151,-1.5799,-1.5741,-1.5507,-1.5104,-1.5739,-1.5879,-1.5563,-1.6538,-1.7085,-1.7248,-1.7635,-1.8149,-1.8731,-1.8375,-1.8645,-1.9421,-2.0095,-2.0427,-2.0681,-2.1715,-2.2005,-2.1751,-2.1299,-2.1369,-2.1532,-2.0453,-2.0983,-2.1904,-2.0339,-2.0399,-2.0856,-1.9968,-1.998,-2.0108,-1.9345,-1.9459,-1.9617,-1.876,-1.8293,-1.8053,-1.796,-1.7637,-1.7052,-1.595,-1.5668,-1.5389,-1.4658,-1.3901,-1.3365,-1.3289,-1.2904,-1.2103,-1.0712,-1.0446,-1.0108,-0.9222,-0.899,-0.8691,-0.8156,-0.8,-0.75,-0.6416,-0.5365,-0.4733,-0.4648,-0.2976,-0.2047,-0.2043,-0.1375,-0.0353,0.1054,-0.0397,-0.0532,0.0665,0.1242,0.2515,0.4324,0.5851,0.7196,-0.1906,-0.3538,-0.5216,0.0,-0.7244,-0.7589,-0.7405,0.0,0.0,0.0,0.0,0.0,0.0,0.0,0.0,0.0,0.0,0.0,0.0,0.0,0.0,0.0,0.0,0.0,0.0,0.0,0.0,0.0,-1.6011,-1.6011,-1.6011,-1.6011,-1.5955,-1.5799,-1.5799,-1.5712,-1.5477,-1.5826,-1.5911,-1.5724,-1.6602,-1.7027,-1.7027,-1.7566,-1.798,-1.8268,-1.808,-1.825,-1.8728,-1.9459,-1.9932,-2.0337,-2.1698,-2.2063,-2.177,-2.1634,-2.1755,-2.1867,-2.0985,-2.1227,-2.1716,-2.0633,-2.0378,-2.0328,-1.9547,-1.9435,-1.9425,-1.8885,-1.909,-1.9311,-1.8408,-1.831,-1.8396,-1.8,-1.7587,-1.7111,-1.6542,-1.6425,-1.6041,-1.48,-1.3769,-1.3037,-1.2744,-1.1897,-1.0977,-1.0292,-0.9864,-0.9377,-0.8781,-0.8566,-0.8177,-0.7412,-0.7071,-0.6434,-0.5267,-0.4396,-0.3749,-0.3453,-0.2091,-0.116,-0.08,-0.0222,0.0931,0.2734,0.1365,0.1059,0.1905,0.248,0.3306,0.4453,0.5826,0.6886,-0.2152,-0.3238,-0.426,-0.5799,-0.6508,-0.6888,0.0,0.0,0.0,0.0,0.0,0.0,0.0,0.0,0.0,0.0,0.0,0.0,0.0,0.0,0.0,0.0,0.0,0.0,0.0,0.0,0.0,0.0,-1.5551,-1.561,-1.561,-1.561,-1.561,-1.561,-1.5522,-1.5477,-1.5477,-1.5653,-1.5854,-1.6052,-1.6659,-1.6942,-1.6942,-1.7542,-1.7811,-1.7811,-1.7811,-1.7905,-1.8155,-1.8814,-1.9439,-2.0095,-2.1357,-2.1728,-2.1533,-2.1525,-2.1593,-2.1625,-2.1056,-2.1123,-2.1379,-2.0793,-2.0313,-1.9878,-1.9325,-1.8998,-1.878,-1.8606,-1.8728,-1.8777,-1.8144,-1.8362,-1.8599,-1.8125,-1.7704,-1.729,-1.6788,-1.6494,-1.5991,-1.4828,-1.368,-1.2733,-1.2204,-1.1104,-1.0213,-0.9875,-0.9368,-0.8862,-0.8524,-0.8326,-0.7811,-0.6791,-0.6363,-0.5556,-0.4073,-0.3433,-0.2917,-0.2483,-0.1327,-0.0459,0.0,0.0726,0.1891,0.3456,0.2953,0.2906,0.3362,0.376,0.4357,0.5061,0.6002,0.6721,-0.1292,-0.2445,-0.3584,-0.4569,0.0,0.0,0.0,0.0,0.0,0.0,0.0,0.0,0.0,0.0,0.0,0.0,0.0,0.0,0.0,0.0,0.0,0.0,0.0,0.0,0.0,0.0,0.0,0.0,-1.4907,-1.5134,-1.5134,-1.5134,-1.5134,-1.5134,-1.4783,-1.4564,-1.4564,-1.5257,-1.6001,-1.6738,-1.7101,-1.7256,-1.7296,-1.7635,-1.7811,-1.7811,-1.7811,-1.7811,-1.7856,-1.8134,-1.8676,-1.9378,-1.9723,-2.0265,-2.0762,-2.0157,-2.0364,-2.0874,-2.0205,-2.0431,-2.1023,-2.0991,-2.062,-2.0177,-2.0146,-1.9512,-1.8914,-1.9394,-1.8875,-1.8271,-1.8717,-1.8858,-1.8873,-1.8844,-1.8829,-1.8312,-1.6509,-1.5369,-1.4713,-1.4636,-1.3427,-1.2225,-1.1463,-1.0977,-1.0246,-0.8959,-0.8751,-0.8533,-0.8024,-0.7943,-0.7355,-0.5911,-0.5908,-0.5146,-0.2957,-0.2347,-0.2019,-0.1849,-0.0737,-0.0049,0.0,0.1134,0.2316,0.3456,0.4552,0.5125,0.5173,0.5173,0.5765,0.6862,0.7181,0.7565,-0.1018,-0.1906,0.0,-0.3817,-0.4921,0.0,0.0,0.0,0.0,0.0,0.0,0.0,0.0,0.0,0.0,0.0,0.0,0.0,0.0,0.0,0.0,0.0,0.0,0.0,0.0,0.0,0.0,0.0,0.0,-1.4721,-1.4721,-1.4721,-1.4721,-1.4721,-1.4269,-1.4063,-1.4063,-1.4603,-1.5167,-1.5724,-1.6056,-1.6369,-1.667,-1.7018,-1.7167,-1.7167,-1.7167,-1.7288,-1.7502,-1.7562,-1.8004,-1.8674,-1.9555,-2.042,-2.1201,-2.1249,-2.1444,-2.158,-2.0839,-2.059,-2.0516,-2.0181,-1.9783,-1.9302,-1.8956,-1.8631,-1.8285,-1.8127,-1.7825,-1.7464,-1.7289,-1.7518,-1.7813,-1.7854,-1.7867,-1.7585,-1.6596,-1.5782,-1.5122,-1.472,-1.3043,-1.1611,-1.1305,-1.0228,-0.9268,-0.8773,-0.8974,-0.8985,-0.8591,-0.8297,-0.7753,-0.6648,-0.577,-0.445,-0.2415,-0.208,-0.1601,-0.0691,-0.0251,0.0151,0.0543,0.0987,0.2003,0.3646,0.412,0.4667,0.5303,0.5696,0.591,0.5942,0.6603,0.6763,-0.0863,-0.1568,0.0,0.0,0.0,0.0,0.0,0.0,0.0,0.0,0.0,0.0,0.0,0.0,0.0,0.0,0.0,0.0,0.0,0.0,0.0,0.0,0.0,0.0,0.0,0.0,0.0,0.0,0.0,0.0,-1.4044,-1.3868,-1.3736,-1.3617,-1.3289,-1.3276,-1.3565,-1.3854,-1.4301,-1.4907,-1.5374,-1.5777,-1.6074,-1.6565,-1.6789,-1.6789,-1.6789,-1.6942,-1.7126,-1.7126,-1.7639,-1.8502,-1.9323,-2.03,-2.1288,-2.145,-2.1406,-2.1176,-2.0536,-1.9974,-1.9498,-1.9207,-1.8774,-1.8249,-1.7679,-1.7382,-1.7164,-1.6751,-1.6498,-1.6328,-1.6065,-1.6473,-1.6902,-1.6705,-1.6995,-1.7063,-1.6095,-1.5574,-1.5191,-1.4767,-1.3038,-1.1505,-1.1125,-1.0018,-0.9084,-0.8776,-0.921,-0.946,-0.9242,-0.899,-0.8486,-0.7582,-0.6481,-0.5124,-0.3255,-0.3168,-0.2474,-0.0817,-0.0725,-0.0311,0.0565,0.1027,0.1884,0.3155,0.385,0.4626,0.553,0.6113,0.6342,0.6169,0.6893,0.7002,0.0,0.0,0.0,0.0,0.0,0.0,0.0,0.0,0.0,0.0,0.0,0.0,0.0,0.0,0.0,0.0,0.0,0.0,0.0,0.0,0.0,0.0,0.0,0.0,0.0,0.0,0.0,0.0,-1.2857,-1.3094,-1.306,-1.2624,-1.2199,-1.1811,-1.1811,-1.2211,-1.306,-1.3073,-1.3544,-1.447,-1.5183,-1.5548,-1.5605,-1.6401,-1.6763,-1.6763,-1.6779,-1.6795,-1.6795,-1.6821,-1.762,-1.885,-1.8882,-1.9729,-2.0894,-2.04,-1.9939,-1.9462,-1.9014,-1.8496,-1.8066,-1.8013,-1.7666,-1.7175,-1.6562,-1.6003,-1.5576,-1.5472,-1.5061,-1.4778,-1.5295,-1.5922,-1.6207,-1.5636,-1.6409,-1.6799,-1.5096,-1.4698,-1.4652,-1.4652,-1.3294,-1.1836,-1.0906,-1.0434,-0.9844,-0.8915,-0.9361,-0.9762,-0.9814,-0.9762,-0.9424,-0.8586,-0.8022,-0.7032,-0.5452,-0.5401,-0.4556,-0.237,-0.2226,-0.1531,-0.0107,0.1224,0.1937,0.2021,0.3916,0.5309,0.6044,0.6599,0.7224,0.7936,0.8286,0.8555,-0.1109,0.0,0.0,0.0,0.0,0.0,0.0,0.0,0.0,0.0,0.0,0.0,0.0,0.0,0.0,0.0,0.0,0.0,0.0,0.0,0.0,0.0,0.0,0.0,0.0,0.0,0.0,0.0,-1.2591,-1.2508,-1.2175,-1.2043,-1.1909,-1.1811,-1.1811,-1.1909,-1.2175,-1.2508,-1.2938,-1.3478,-1.4095,-1.4679,-1.5256,-1.5463,-1.5767,-1.6083,-1.6174,-1.6413,-1.674,-1.7029,-1.7272,-1.7555,-1.8364,-1.8978,-1.9381,-1.9273,-1.8832,-1.8232,-1.7838,-1.7558,-1.7301,-1.6498,-1.6396,-1.6476,-1.5487,-1.505,-1.4869,-1.44,-1.4168,-1.4097,-1.4204,-1.471,-1.5219,-1.552,-1.584,-1.5928,-1.5454,-1.4687,-1.3909,-1.3406,-1.2155,-1.0956,-1.0202,-0.9592,-0.9113,-0.8844,-0.8928,-0.9214,-0.971,-0.8894,-0.8325,-0.8617,-0.76,-0.6518,-0.5518,-0.4965,-0.4235,-0.3054,-0.2485,-0.1775,-0.0828,0.0055,0.1039,0.2116,0.4184,0.5872,0.7149,0.7438,0.797,0.8663,0.946,0.9982,-0.1332,0.0,0.0,0.0,0.0,0.0,0.0,-0.5461,0.0,0.0,0.0,0.0,0.0,0.0,0.0,0.0,0.0,0.0,0.0,0.0,0.0,0.0,0.0,0.0,0.0,-1.2791,-1.272,-1.2246,-1.221,-1.192,-1.1217,-1.118,-1.118,-1.118,-1.1356,-1.1579,-1.1811,-1.2258,-1.2731,-1.3157,-1.3416,-1.3927,-1.4596,-1.4568,-1.4941,-1.5614,-1.5912,-1.6196,-1.6521,-1.7258,-1.7467,-1.7368,-1.7805,-1.82,-1.8517,-1.8517,-1.7981,-1.7236,-1.7261,-1.6915,-1.6439,-1.6034,-1.6145,-1.6287,-1.5365,-1.5062,-1.4915,-1.405,-1.3637,-1.3457,-1.3732,-1.405,-1.4422,-1.4778,-1.5039,-1.4994,-1.4171,-1.3679,-1.3273,-1.287,-1.1944,-1.0914,-0.9969,-0.9242,-0.8672,-0.8368,-0.8277,-0.8292,-0.8384,-0.7688,-0.7418,-0.8168,-0.7245,-0.6671,-0.687,-0.622,-0.535,-0.43,-0.3814,-0.283,-0.1174,-0.0111,0.1158,0.2611,0.505,0.7284,0.9321,0.8856,0.9007,0.9723,1.0876,1.1345,-0.1439,-0.1614,0.0,0.0,0.0,0.0,-0.4209,-0.5078,0.0,0.0,0.0,0.0,0.0,0.0,0.0,0.0,0.0,0.0,0.0,0.0,0.0,0.0,0.0,0.0,-1.2115,-1.2354,-1.2389,-1.192,-1.1774,-1.1367,-1.0505,-1.039,-1.0428,-1.0544,-1.0905,-1.1356,-1.1884,-1.2282,-1.2685,-1.3047,-1.3042,-1.3302,-1.3822,-1.3855,-1.4439,-1.5399,-1.6018,-1.6287,-1.6377,-1.7461,-1.7819,-1.7689,-1.7277,-1.7443,-1.7907,-1.7907,-1.7231,-1.6391,-1.6925,-1.6446,-1.5676,-1.6151,-1.6337,-1.6281,-1.5764,-1.5531,-1.5276,-1.4133,-1.3467,-1.32,-1.3684,-1.3909,-1.4003,-1.3909,-1.4329,-1.4226,-1.2395,-1.2337,-1.2561,-1.2464,-1.1935,-1.1048,-0.9695,-0.8842,-0.8153,-0.7545,-0.7245,-0.6881,-0.6144,-0.61,-0.6367,-0.6934,-0.6605,-0.6972,-0.8415,-0.7877,-0.694,-0.5828,-0.5716,-0.4406,-0.1449,-0.0055,0.1523,0.3366,0.6396,0.9277,1.1923,1.0572,1.0359,1.1157,1.2288,1.2492,-0.1201,-0.1135,-0.1227,-0.1818,0.0,0.0,0.0,-0.4102,0.0,0.0,0.0,0.0,0.0,0.0,0.0,0.0,0.0,0.0,0.0,0.0,0.0,0.0,0.0,0.0,-1.347,-1.3242,-1.2873,-1.2389,-1.1616,-1.1244,-1.1479,-1.1094,-1.1244,-1.2066,-1.1799,-1.1884,-1.2354,-1.2461,-1.2354,-1.2066,-1.2449,-1.2847,-1.3289,-1.4156,-1.5039,-1.5984,-1.7067,-1.7548,-1.7598,-1.7908,-1.7482,-1.665,-1.7076,-1.7096,-1.6795,-1.6795,-1.6343,-1.5752,-1.5884,-1.5808,-1.5543,-1.5152,-1.5377,-1.5764,-1.5572,-1.5241,-1.4744,-1.4003,-1.405,-1.4247,-1.392,-1.4503,-1.5141,-1.4652,-1.4606,-1.4468,-1.3616,-1.226,-1.0989,-1.0436,-0.9739,-0.8888,-0.7486,-0.6597,-0.6093,-0.5936,-0.4895,-0.389,-0.313,-0.3547,-0.3776,-0.3286,-0.419,-0.5429,-0.6919,-0.6377,-0.6328,-0.7219,-0.7245,-0.5864,-0.2989,-0.2565,-0.0324,0.3996,0.8086,1.123,1.3396,1.2033,1.2033,1.3226,1.2977,1.2813,-0.0692,-0.0767,-0.0998,-0.1429,0.0,0.0,0.0,0.0,-0.4412,0.0,0.0,0.0,0.0,0.0,0.0,0.0,0.0,0.0,0.0,0.0,0.0,0.0,0.0,0.0,-1.2927,-1.2871,-1.2728,-1.252,-1.1995,-1.174,-1.1811,-1.174,-1.185,-1.2138,-1.2138,-1.2378,-1.28,-1.2591,-1.2484,-1.2437,-1.197,-1.2235,-1.3107,-1.3393,-1.4356,-1.5755,-1.6961,-1.7512,-1.7548,-1.8204,-1.8004,-1.7222,-1.7558,-1.7544,-1.7312,-1.7312,-1.6744,-1.6046,-1.6361,-1.6058,-1.5588,-1.5599,-1.5788,-1.6083,-1.6336,-1.6182,-1.5867,-1.5592,-1.5504,-1.5504,-1.5504,-1.5724,-1.5823,-1.5229,-1.4869,-1.4103,-1.2173,-1.0939,-0.9599,-0.75,-0.6775,-0.6474,-0.6117,-0.5458,-0.4682,-0.3951,-0.292,-0.1819,-0.071,-0.1211,-0.1654,-0.1634,-0.263,-0.4334,-0.6881,-0.645,-0.6775,-0.8567,-0.9256,-0.7829,-0.3951,-0.3983,-0.0728,0.6312,0.9988,1.2454,1.3815,1.2396,1.2318,1.3324,1.2638,1.2132,0.0,0.0,0.0,0.0,0.0,-0.2124,0.0,0.0,0.0,-0.446,0.0,0.0,0.0,0.0,0.0,0.0,0.0,0.0,0.0,0.0,0.0,0.0,0.0,0.0,0.0,-1.2187,-1.2259,-1.2482,-1.2311,-1.221,-1.2142,-1.2483,-1.2566,-1.2318,-1.2684,-1.3054,-1.3377,-1.3054,-1.302,-1.323,-1.2093,-1.2093,-1.3094,-1.3022,-1.3857,-1.5407,-1.6666,-1.7227,-1.7348,-1.8415,-1.8627,-1.8263,-1.8145,-1.8027,-1.7947,-1.7947,-1.7218,-1.6305,-1.6786,-1.6361,-1.5676,-1.6194,-1.6539,-1.6879,-1.7312,-1.7477,-1.7464,-1.7261,-1.6933,-1.6741,-1.7111,-1.692,-1.6448,-1.5656,-1.5126,-1.3936,-1.0772,-0.9665,-0.8384,-0.5379,-0.4365,-0.4149,-0.474,-0.4252,-0.3317,-0.1981,-0.1161,-0.0111,0.155,0.0833,0.0111,-0.022,-0.1542,-0.3673,-0.6892,-0.7239,-0.8119,-1.0093,-1.1504,-1.0017,-0.5071,-0.3386,0.0904,0.8223,1.1416,1.3215,1.3616,1.2029,1.1755,1.2638,1.1442,1.0656,0.0,0.0,0.0,0.0,-0.1645,0.0,0.0,0.0,-0.3922,-0.3986,0.0,0.0,0.0,0.0,0.0,0.0,0.0,0.0,0.0,0.0,0.0,0.0,0.0,0.0,0.0,-1.2007,-1.1678,-1.2448,-1.1947,-1.2104,-1.3266,-1.3512,-1.3822,-1.4187,-1.4264,-1.4296,-1.4328,-1.4296,-1.4076,-1.373,-1.3565,-1.3365,-1.3141,-1.448,-1.5194,-1.5574,-1.7012,-1.7705,-1.7849,-1.8484,-1.8767,-1.8765,-1.8302,-1.7827,-1.7394,-1.7394,-1.6659,-1.5708,-1.5752,-1.572,-1.5632,-1.5676,-1.6731,-1.7947,-1.7987,-1.8327,-1.8507,-1.7464,-1.7518,-1.7786,-1.7301,-1.7572,-1.7477,-1.5886,-1.5448,-1.4711,-1.2113,-0.9555,-0.7448,-0.6478,-0.4184,-0.245,-0.2559,-0.195,-0.117,-0.0389,0.039,0.1614,0.3762,0.2223,0.1447,0.2652,-0.0711,-0.3764,-0.5486,-0.8228,-1.0531,-1.2072,-1.3855,-1.2421,-0.7013,0.1373,0.6416,0.744,1.158,1.3416,1.2918,1.083,1.0516,1.1786,0.9184,0.7945,0.0,0.0,0.0,0.0,0.0,0.0,-0.2895,0.0,-0.3433,0.0,0.0,0.0,0.0,0.0,0.0,0.0,0.0,0.0,0.0,0.0,0.0,0.0,0.0,0.0,0.0,0.0,0.0,0.0,-1.2143,-1.2374,-1.3429,-1.3797,-1.4226,-1.4774,-1.4788,-1.5018,-1.5491,-1.4762,-1.4491,-1.4726,-1.3767,-1.3618,-1.4151,-1.4594,-1.5139,-1.575,-1.7107,-1.7733,-1.7861,-1.8887,-1.9313,-1.9332,-1.8765,-1.8419,-1.8224,-1.8224,-1.73,-1.6046,-1.6046,-1.562,-1.5062,-1.5062,-1.599,-1.7177,-1.7491,-1.8182,-1.8878,-1.8698,-1.8826,-1.8968,-1.8736,-1.8826,-1.8674,-1.7289,-1.6448,-1.5266,-1.274,-1.0382,-0.8209,-0.6265,-0.4235,-0.2556,-0.1729,-0.1284,-0.0726,0.0446,0.0894,0.1562,0.2945,0.1217,-0.011,0.0164,-0.2605,-0.5694,-0.8648,-1.0157,-1.2252,-1.5396,-1.0997,-0.5292,0.1332,0.7691,1.0904,1.0573,1.305,1.3653,1.219,1.0042,0.8843,0.8635,0.6586,0.5637,-0.3002,0.0,0.0,0.0,0.0,0.0,0.0,0.0,0.0,0.0,0.0,0.0,0.0,0.0,0.0,0.0,0.0,0.0,0.0,0.0,0.0,0.0,0.0,0.0,0.0,0.0,0.0,0.0,0.0,-1.2324,-1.3643,-1.4166,-1.4755,-1.549,-1.5547,-1.5844,-1.6369,-1.5529,-1.5369,-1.5895,-1.47,-1.4564,-1.5312,-1.5111,-1.5301,-1.5829,-1.6952,-1.7518,-1.7772,-1.8957,-1.9525,-1.9639,-1.9132,-1.8817,-1.865,-1.8313,-1.7137,-1.5672,-1.5472,-1.4756,-1.395,-1.4253,-1.5182,-1.6273,-1.6935,-1.797,-1.9006,-1.9566,-1.9782,-1.9874,-1.9874,-1.9874,-1.9579,-1.8446,-1.7451,-1.6136,-1.3777,-1.164,-0.9496,-0.7188,-0.5317,-0.3836,-0.2751,-0.1555,-0.0503,0.039,0.0333,0.0332,0.066,-0.1297,-0.2888,-0.34,-0.5971,-0.8792,-1.1631,-1.2791,-1.391,-1.5154,-0.7952,-0.0176,0.7578,1.1112,1.3057,1.3372,1.3596,1.3234,1.2121,0.9423,0.7389,0.5977,0.4235,0.3406,0.0,0.0,0.0,-0.524,0.0,0.0,0.0,0.0,-0.4274,0.0,0.0,0.0,0.0,0.0,0.0,0.0,0.0,0.0,0.0,0.0,0.0,0.0,0.0,0.0,0.0,0.0,0.0,0.0,0.0,0.0,-1.4132,-1.4891,-1.5718,-1.6706,-1.6995,-1.702,-1.6789,-1.6995,-1.7116,-1.714,-1.7076,-1.6857,-1.6451,-1.6562,-1.6269,-1.565,-1.6398,-1.71,-1.7742,-1.8463,-1.9106,-1.9639,-1.9132,-1.8574,-1.7973,-1.6886,-1.5363,-1.3805,-1.3158,-1.2406,-1.1969,-1.3181,-1.4407,-1.561,-1.6699,-1.7885,-1.9006,-1.9566,-1.9965,-2.028,-2.028,-2.028,-1.9978,-1.8848,-1.8236,-1.7451,-1.5593,-1.3184,-1.1128,-1.0294,-0.8056,-0.6273,-0.622,-0.2789,-0.0279,-0.0937,-0.1583,-0.227,-0.2939,-0.5221,-0.68,-0.6843,-1.0786,-1.3346,-1.3059,-1.632,-1.5597,-0.9102,-0.6292,-0.1013,0.7541,0.9703,1.1901,1.4476,1.2439,1.1876,1.2941,0.9072,0.6341,0.4784,0.2366,0.1228,0.0,0.0,-1.0651,-0.8755,0.0,0.0,0.0,0.0,0.0,0.0,0.0,0.0,0.0,0.0,0.0,0.0,0.0,0.0,0.0,0.0,0.0,0.0,0.0,0.0,0.0,0.0,0.0,0.0,-1.0497,0.0,0.0,-1.4578,-1.5648,-1.6636,-1.7405,-1.7856,-1.7988,-1.7856,-1.7898,-1.8121,-1.7691,-1.7485,-1.7574,-1.7937,-1.7815,-1.745,-1.868,-1.9222,-1.9249,-1.961,-1.989,-2.0019,-1.9214,-1.8545,-1.7918,-1.6789,-1.5552,-1.4179,-1.2677,-1.1697,-1.1232,-1.2125,-1.3246,-1.4507,-1.5671,-1.7113,-1.8496,-1.9006,-1.9722,-2.0314,-2.0314,-2.0701,-2.1006,-2.0607,-1.998,-1.9243,-1.8441,-1.6596,-1.4824,-1.3905,-1.2009,-1.0423,-0.9924,-0.7713,-0.5959,-0.5738,-0.6167,-0.6907,-0.7889,-0.988,-1.1412,-1.2111,-1.4385,-1.6344,-1.7441,-2.0143,-1.5789,-0.1751,-0.4945,0.1036,1.9779,1.6914,1.6423,1.961,1.238,0.9494,1.1287,0.6753,0.403,0.3016,0.1216,0.0114,-1.3298,-1.3729,0.0,-1.1907,-1.1591,0.0,-0.9747,0.0,0.0,0.0,0.0,0.0,0.0,0.0,0.0,0.0,0.0,0.0,0.0,0.0,0.0,0.0,0.0,0.0,0.0,0.0,-0.8984,-1.0803,0.0,0.0,0.0,0.0,-1.5755,-1.6738,-1.7885,-1.8554,-1.8681,-1.8592,-1.8663,-1.8892,-1.8752,-1.8821,-1.9039,-1.9507,-1.9577,-1.9355,-2.0331,-2.0561,-2.0315,-2.0607,-2.0651,-2.0449,-1.9528,-1.8896,-1.8384,-1.6709,-1.5071,-1.3501,-1.2209,-1.1375,-1.0864,-1.1316,-1.2464,-1.3918,-1.508,-1.6671,-1.8263,-1.8968,-1.9722,-2.0382,-2.0635,-2.1116,-2.1569,-2.1933,-2.1434,-2.0883,-2.0783,-1.95,-1.8142,-1.7508,-1.5936,-1.4498,-1.386,-1.2923,-1.1621,-0.9779,-0.981,-1.0602,-1.2215,-1.4494,-1.6233,-1.7036,-1.8604,-2.0029,-2.0966,-2.2856,-1.7881,-0.3457,-0.7872,-0.1094,2.1068,1.6383,1.5784,2.1067,1.3015,0.8995,0.9413,0.538,0.3045,0.2304,0.0757,-0.0514]},{"header":{"parameterUnit":"m.s-1","parameterCategory":1,"la1":30.6,"la2":29.2853,"lo1":-89.7004,"lo2":-87.6739,"dy":0.0162,"dx":0.0183,"nx":112,"ny":82,"refTime":"2026-05-10T00:00:00:Z","depth":0,"parameterNumber":3,"parameterNumberName":"V-component_of_WINDS"},"data":[0.0,0.0,0.0,0.0,0.0,0.0,0.0,0.0,0.0,0.0,0.0,0.0,0.0,0.0,0.0,0.0,0.0,0.0,0.0,0.0,0.0,0.0,0.0,0.0,0.0,0.0,0.0,0.0,0.0,0.0,0.0,0.0,0.0,0.0,0.0,0.0,0.0,0.0,0.0,0.0,0.0,0.0,0.0,0.0,0.0,0.0,0.0,0.0,0.0,0.0,0.0,0.0,0.0,0.0,0.0,0.0,0.0,0.0,0.0,0.0,0.0,0.0,0.0,0.0,0.0,0.0,0.0,0.0,0.0,0.0,0.0,0.0,0.0,0.0,0.0,0.0,0.0,0.0,0.0,0.0,0.0,0.0,0.0,0.0,0.0,0.0,0.0,0.0,0.0,0.0,0.0,0.1277,0.1468,0.1633,0.1747,0.1582,0.1624,0.1979,0.0,0.0,0.0,0.0,0.0,0.0,0.0,0.0,0.0,0.0,0.0,0.0,0.0,0.0,0.0,0.0,0.0,0.0,0.0,0.0,0.0,0.0,0.0,0.0,0.0,0.0,0.0,0.0,0.0,0.0,0.0,0.0,0.0,0.0,0.0,0.0,0.0,0.0,0.0,0.0,0.0,0.0,0.0,0.0,0.0,0.0,0.0,0.0,0.0,0.0,0.0,0.0,0.0,0.0,0.0,0.0,0.0,0.0,0.0,0.0,0.0,0.0,0.0,0.0,0.0,0.0,0.0,0.0,0.0,0.0,0.0,0.0,0.0,0.0,0.0,0.0,0.0,0.0,0.0,0.0,0.0,0.0,0.0,0.0,0.0,0.0,0.0,0.0,0.0,0.0,0.0,0.0,0.0,0.0,0.0,0.0,0.0,0.0,0.0,0.0,0.0,0.0,0.0,0.0,0.1005,0.127,0.143,0.1522,0.1543,0.1414,0.1523,0.1979,0.0,0.0,0.0,0.0,0.0,0.0,0.0,0.0,0.0,0.0,0.0,0.0,0.0,0.0,0.0,0.0,0.0,0.0,0.0,0.0,0.0,0.0,0.0,0.0,0.0,0.0,0.0,0.0,0.0,0.0,0.0,0.0,0.0,0.0,0.0,0.0,0.0,0.0,0.0,0.0,0.0,0.0,0.0,0.0,0.0,0.0,0.0,0.0,0.0,0.0,0.0,0.0,0.0,0.0,0.0,0.0,0.0,0.0,0.0,0.0,0.0,0.0,0.0,0.0,0.0,0.0,0.0,0.0,0.0,0.0,0.0,0.0,0.0,0.0,0.0,0.0,0.0,0.0,0.0,0.0,0.0,0.0,0.0,0.0,0.0,0.0,0.0,0.0,0.0,0.0,0.0,0.0,0.0,0.0,0.0,0.0,0.0,0.0,0.0,0.0,0.0,0.0,0.0,0.1162,0.1031,0.093,0.1068,0.1267,0.1484,0.138,0.1534,0.2073,0.2053,0.0,0.0,0.0,0.0,0.0,0.0,0.0,0.0,0.0,0.0,0.0,0.0,0.0,0.0,0.0,0.0,0.0,0.0,0.0,0.0,0.0,0.0,0.0,0.0,0.0,0.0,0.0,0.0,0.0,0.0,0.0,0.0,0.0,0.0,0.0,0.0,0.0,0.0,0.0,0.0,0.0,0.0,0.0,0.0,0.0,0.0,0.0,0.0,0.0,0.0,0.0,0.0,0.0,0.0,0.0,0.0,0.0,0.0,0.0,0.0,0.0,0.0,0.0,0.0,0.0,0.0,0.0,0.0,0.0,0.0,0.0,0.0,0.0,0.0,0.0,0.0,0.0,0.0,0.0,0.0,0.0,0.0,0.0,0.0,0.0,0.0,0.0,0.0,0.0,0.0,0.0,0.0,0.0,0.0,0.0,0.0,0.0,0.0,0.0,0.0,0.0,0.0,0.1093,0.0984,0.0897,0.1077,0.1306,0.1549,0.1537,0.1692,0.2132,0.2185,0.0,0.0,0.0,0.0,0.0,0.0,0.0,0.0,0.0,0.0,0.0,0.0,0.0,0.0,0.0,0.0,0.0,0.0,0.0,0.0,0.0,0.0,0.0,0.0,0.0,0.0,0.0,0.0,0.0,0.0,0.0,0.0,0.0,0.0,0.0,0.0,0.0,0.0,0.0,0.0,0.0,0.0,0.0,0.0,0.0,0.0,0.0,0.0,0.0,0.0,0.0,0.0,0.0,0.0,0.0,0.0,0.0,0.0,0.0,0.0,0.0,0.0,0.0,0.0,0.0,0.0,0.0,0.0,0.0,0.0,0.0,0.0,0.0,0.0,0.0,0.0,0.0,0.0,0.0,0.0,0.0,0.0,0.0,0.0,0.0,0.0,0.0,0.0,0.0,0.0,0.0,0.0,0.0,0.0,0.0,0.0,0.0,0.0,0.0,0.0,0.0,0.0,0.0653,0.0787,0.1619,0.194,0.2024,0.1796,0.2001,0.2098,0.2015,0.2134,0.0,0.0,0.0,0.0,0.0,0.0,0.0,0.0,0.0,0.0,0.0,0.0,0.0,0.0,0.0,0.0,0.0,0.0,0.0,0.0,0.0,0.0,0.0,0.0,0.0,0.0,0.0,0.0,0.0,0.0,0.0,0.0,0.0,0.0,0.0,0.0,0.0,0.0,0.0,0.0,0.0,0.0,0.0,0.0,0.0,0.0,0.0,0.0,0.0,0.0,0.0,0.0,0.0,0.0,0.0,0.0,0.0,0.0,0.0,0.0,0.0,0.0,0.0,0.0,0.0,0.0,0.0,0.0,0.0,0.0,0.0,0.0,0.0,0.0,0.0,0.0,0.0,0.0,0.0,0.0,0.0,0.0,0.0,0.0,0.0,0.0,0.0,0.0,0.0,0.0,0.0,0.0,0.0,0.0,0.0,0.0,0.0,0.0,0.0,0.0,0.0,0.0,0.0608,0.0616,0.0,0.1996,0.2263,0.1667,0.1973,0.218,0.2128,0.0,0.0,0.0,0.0,0.0,0.0,0.0,0.0,0.0,0.0,0.0,0.0,0.0,0.0,0.0,0.0,0.0,0.0,0.0,0.0,0.0,0.0,0.0,0.0,0.0,0.0,0.0,0.0,0.0,0.0,0.0,0.0,0.0,0.0,0.0,0.0,0.0,0.0,0.0,0.0,0.0,0.0,0.0,0.0,0.0,0.0,0.0,0.0,0.0,0.0,0.0,0.0,0.0,0.0,0.0,0.0,0.0,0.0,0.0,0.0,0.0,0.0,0.0,0.0,0.0,0.0,0.0,0.0,0.0,0.0,0.0,0.0,0.0,0.0,0.0,0.0,0.0,0.0,0.0,0.0,0.0,0.0,0.0,0.0,0.0,0.0,0.0,0.0,0.0,0.0,0.0,0.0,0.0,0.0,0.0,0.0,0.0,0.0,0.0,0.0,0.0,0.0,0.0904,0.0693,0.0679,0.0,0.185,0.2195,0.1642,0.2053,0.2297,0.221,0.0,0.0,0.0,0.0,0.0,0.0,0.0,0.0,0.0,0.0,0.0,0.0,0.0,0.0,0.0,0.0,0.0,0.0,0.0,0.0,0.0,0.0,0.0,0.0,0.0,0.0,0.0,0.0,0.0,0.0,0.0,0.0,0.0,0.0,0.0,0.0,0.0,0.0,0.0,0.0,0.0,0.0,0.0,0.0,0.0,0.0,0.0,0.0,0.0,0.0,0.0,0.0,0.0,0.0,0.0,0.0,0.0,0.0,0.0,0.0,0.0,0.0,0.0,0.0,0.0,0.0,0.0,0.0,0.0,0.0,0.0,0.0,0.0,0.0,0.0,0.0,0.0,0.0,0.0,0.0,0.0,0.0,0.0,0.0,0.0,0.0,0.0,0.0,0.0,0.0,0.0,0.0,0.0,0.0,0.0,0.0,0.0,0.0,0.0,0.0,0.0,0.0,0.0897,0.09,0.0972,0.1192,0.1567,0.1808,0.1804,0.2296,0.2487,0.0,0.0,0.0,0.0,0.0,0.0,0.0,0.0,0.0,0.0,0.0,0.0,0.0,0.0,0.0,0.0,0.0,0.0,0.0,0.0,0.0,0.0,0.0,0.0,0.0,0.0,0.0,0.0,0.0,0.0,0.0,0.0,0.0,0.0,0.0,0.0,0.0,0.0,0.0,0.0,0.0,0.0,0.0,0.0,0.0,0.0,0.0,0.0,0.0,0.0,0.0,0.0,0.0,0.0,0.0,0.0,0.0,0.0,0.0,0.0,0.0,0.0,0.0,0.0,0.0,0.0,0.0,0.0,0.0,0.0,0.0,0.0,0.0,0.0,0.0,0.0,0.0,0.0,0.0,0.0,0.0,0.0,0.0,0.0,0.0,0.0,0.0,0.0,0.0,0.0,0.0,0.0,0.0,0.0,0.0,0.0,0.0,0.0,0.0,0.0,0.0,0.0,0.0,0.09,0.0901,0.1082,0.1577,0.1682,0.1872,0.2197,0.2545,0.263,0.2361,0.0,0.0,0.0,0.0,0.0,0.0,0.0,0.0,0.0,0.0,0.0,0.0,0.0,0.0,0.0,0.0,0.0,0.0,0.0,0.0,0.0,0.0,0.0,0.0,0.0,0.0,0.0,0.0,0.0,0.0,0.0,0.0,0.0,0.0,0.0,0.0,0.0,0.0,0.0,0.0,0.0,0.0,0.0,0.0,0.0,0.0,0.0,0.0,0.0,0.0,0.0,0.0,0.0,0.0,0.0,0.0,0.0,0.0,0.0,0.0,0.0,0.0,0.0,0.0,0.0,0.0,0.0,0.0,0.0,0.0,0.0,0.0,0.0,0.0,0.0,0.0,0.0,0.0,0.0,0.0,0.0,0.0,0.0,0.0,0.0,0.0,0.0,0.0,0.0,0.0,0.0,0.0,0.0,0.0,0.0,0.0,0.0,0.0,0.0,0.0,0.0,0.0,0.0896,0.0903,0.1099,0.1628,0.1979,0.2261,0.2466,0.277,0.2845,0.2578,0.0,0.0,0.0,0.0,0.0,0.0,0.0,0.0,0.0,0.0,0.0,0.0,0.0,0.0,0.0,0.0,0.0,0.0,0.0,0.0,0.0,0.0,0.0,0.0,0.0,0.0,0.0,0.0,0.0,0.0,0.0,0.0,0.0,0.0,0.0,0.0,0.0,0.0,0.0,0.0,0.0,0.0,0.0,0.0,0.0,0.0,0.0,0.0,0.0,0.0,0.0,0.0,0.0,0.0,0.0,0.0,0.0,0.0,0.0,0.0,0.0,0.0,0.0,0.0,0.0,0.0,0.0,0.0,0.0,0.0,0.0,0.0,0.0,0.0,0.0,0.0,0.0,0.0,0.0,0.0,0.0,0.0,0.0,0.0,0.0,0.0,0.0,0.0,0.0,0.0,0.0,0.0,0.0,0.0,0.0,0.0,0.0,0.0,0.0,0.0,0.0,0.0,0.0893,0.0917,0.1089,0.1532,0.2373,0.2824,0.2665,0.2992,0.3103,0.2847,0.0,0.0,0.0,0.0,0.0,0.0,0.0,0.0,0.0,0.0,0.0,0.0,0.0,0.0,0.0,0.0,0.0,0.0,0.0,0.0,0.0,0.0,0.0,0.0,0.0,0.0,0.0,0.0,0.0,0.0,0.0,0.0,0.0,0.0,0.0,0.0,0.0,0.0,0.0,0.0,0.0,0.0,0.0,0.0,0.0,0.0,0.0,0.0,0.0,0.0,0.0,0.0,0.0,0.0,0.0,0.0,0.0,0.0,0.0,0.0,0.5409,0.0,0.0,0.0,0.0,0.0,0.0,0.0,0.0,0.0,0.0,0.0,0.0,0.0,0.0,0.0,0.0,0.0,0.0,0.0,0.0,0.0,0.0,0.0,0.0,0.0,0.0,0.0,0.0,0.0,0.0,0.0,0.0,0.0,0.0,0.0,0.0,0.0,0.0,0.0,0.0,0.0,0.0872,0.1036,0.1387,0.2059,0.2542,0.2892,0.3056,0.32,0.321,0.3038,0.2861,0.0,0.0,0.0,0.0,0.0,0.0,0.0,0.0,0.0,0.0,0.0,0.0,0.0,0.0,0.0,0.0,0.0,0.0,0.0,0.0,0.0,0.0,0.0,0.0,0.0,0.0,0.0,0.0,0.0,0.0,0.0,0.0,0.0,0.0,0.0,0.0,0.0,0.0,0.0,0.0,0.0,0.0,0.0,0.0,0.0,0.0,0.0,0.0,0.0,0.0,0.0,0.0,0.0,0.0,0.0,0.0,0.0,0.0,0.0,0.0,0.6118,0.0,0.0,0.0,0.0,0.0,0.0,0.0,0.0,0.0,0.0,0.0,0.0,0.0,0.0,0.0,0.0,0.0,0.0,0.0,0.0,0.0,0.0,0.0,0.0,0.0,0.0,0.0,0.0,0.0,0.0,0.0,0.0,0.0,0.0,0.0,0.0,0.0,0.0,0.0,0.0,0.143,0.1649,0.2066,0.2839,0.3193,0.347,0.3713,0.3704,0.3547,0.322,0.3094,0.0,0.0,0.0,0.0,0.0,0.0,0.0,0.0,0.0,0.0,0.0,0.0,0.0,0.0,0.0,0.0,0.0,0.0,0.0,0.0,0.0,0.0,0.0,0.0,0.0,0.0,0.0,0.0,0.0,0.0,0.0,0.0,0.0,0.0,0.0,0.0,0.0,0.0,0.0,0.0,0.0,0.0,0.0,0.0,0.0,0.0,0.0,0.0,0.0,0.0,0.0,0.0,0.0,0.7695,0.7695,0.7719,0.8068,0.837,0.8624,0.7965,0.7508,0.7244,0.0,0.0,0.0,0.0,0.0,0.0,0.0,0.0,0.0,0.0,0.0,0.0,0.0,0.0,0.0,0.0,0.0,0.0,0.0,0.0,0.0,0.0,0.0,0.0,0.0,0.5939,0.5985,0.0,0.0,0.0,0.0,0.0,0.0,0.0,0.0,0.0,0.0,0.0,0.0,0.2121,0.2389,0.2777,0.3433,0.3763,0.4054,0.43,0.4166,0.3912,0.355,0.3417,0.3289,0.0,0.0,0.0,0.0,0.0,0.0,0.0,0.0,0.0,0.0,0.0,0.0,0.0,0.0,0.0,0.0,0.0,0.0,0.0,0.0,0.0,0.0,0.0,0.0,0.0,0.0,0.0,0.0,0.0,0.0,0.0,0.0,0.3518,0.3861,0.0,0.0,0.0,0.0,0.0,0.0,0.0,0.0,0.0,0.0,0.0,0.0,0.0,0.7213,0.9441,0.8197,0.7613,0.7695,0.7695,0.7549,0.7322,0.8264,0.906,0.9692,0.9591,0.0,0.8638,0.8635,0.0,0.0,0.0,0.0,0.0,0.0,0.0,0.0,0.0,0.0,0.0,0.0,0.0,0.0,0.0,0.0,0.0,0.0,0.0,0.0,0.0,0.0,0.8102,0.8553,0.8461,0.8267,0.0,0.622,0.4494,0.45,0.3767,0.0,0.0,0.0,0.0,0.0,0.0,0.0,0.2388,0.2792,0.3097,0.3072,0.3472,0.3915,0.4341,0.4104,0.4065,0.4401,0.3883,0.3477,0.3289,0.3298,0.0,0.0,0.0,0.0,0.0,0.0,0.0,0.0,0.0,0.0,0.0,0.0,0.0,0.0,0.0,0.0,0.0,0.0,0.0,0.0,0.0,0.0,0.0,0.0,0.0,0.0,0.0,0.0,0.0,0.3175,0.4465,0.597,0.6639,0.6244,0.0,0.0,0.0,0.0,0.0,0.0,0.0,0.0,0.0,0.8462,0.7656,0.7679,0.864,0.8033,0.7695,0.7695,0.7695,0.7633,0.7507,0.841,0.8981,0.9292,0.9716,0.9736,0.9457,0.9457,0.9052,0.8438,0.0,0.0,0.0,0.0,0.8928,0.8435,0.9046,0.8779,0.0,0.8083,0.0,0.0,0.0,0.0,0.0,0.0,0.0,0.0,0.0,0.0,0.0,0.9125,0.9085,0.8987,0.8987,0.8023,0.6897,0.0,0.5001,0.4124,0.3212,0.0,0.0,0.0,0.0,0.0,0.3466,0.3673,0.3968,0.436,0.459,0.4854,0.5215,0.5004,0.4732,0.4447,0.4162,0.3782,0.3327,0.3369,0.3293,0.0,0.0,0.0,0.0,0.0,0.0,0.0,0.0,0.0,0.0,0.0,0.0,0.0,0.0,0.0,0.0,0.0,0.0,0.0,0.0,0.0,0.0,0.0,0.0,0.0,0.0,0.0,0.0,0.4495,0.5671,0.7659,0.8332,0.777,0.0,0.0,0.0,0.0,0.0,0.0,0.8422,0.9357,0.9905,0.9905,0.8467,0.7695,0.7695,0.7695,0.7695,0.7695,0.7695,0.7889,0.8269,0.8844,0.9065,0.9113,0.9672,1.007,1.0363,1.0033,0.9904,0.9857,0.9378,0.9347,0.9673,1.0514,1.0386,0.9918,1.1031,1.0634,0.9537,0.921,0.0,0.7966,0.7406,0.0,0.0,0.0,0.0,0.8403,0.8586,0.9067,0.9578,0.9802,0.9802,0.9741,0.9741,0.9554,0.8944,0.0,0.6584,0.5775,0.4571,0.0,0.0,0.0,0.0,0.4306,0.4431,0.4545,0.479,0.5245,0.5414,0.5628,0.5929,0.5735,0.533,0.4668,0.4423,0.4022,0.3374,0.3449,0.3531,0.3579,0.0,0.0,0.0,0.0,0.0,0.0,0.0,0.0,0.0,0.0,0.0,0.0,0.0,0.0,0.0,0.0,0.0,0.0,0.0,0.0,0.0,0.0,0.0,0.0,0.0,0.0,0.0,0.0,0.0,0.7884,0.7928,0.0,0.0,0.0,0.0,0.7704,1.0114,1.1087,0.9881,0.9856,0.9905,0.9905,0.8467,0.7695,0.7695,0.7695,0.7695,0.7695,0.7695,0.8439,0.979,0.9816,0.9851,0.984,0.9885,1.06,1.1599,1.0409,0.991,1.001,1.1169,1.1647,1.166,1.1701,1.1204,1.0584,1.1461,1.1516,1.1079,1.0422,0.9678,0.9095,0.9439,0.9184,0.0,0.0,0.9323,0.9968,1.0304,1.0771,1.1254,1.1577,1.1446,1.1195,1.1195,1.0525,0.9786,0.0,0.8877,0.8352,0.7198,0.0,0.6334,0.5033,0.522,0.536,0.4921,0.5216,0.5268,0.4786,0.5188,0.5658,0.606,0.5785,0.5582,0.5542,0.4754,0.4051,0.351,0.3492,0.359,0.3779,0.3855,0.0,0.0,0.0,0.0,0.0,0.0,0.0,0.0,0.0,0.0,0.0,0.0,0.0,0.0,0.0,0.0,0.0,0.0,0.0,0.0,0.0,0.0,0.0,0.0,0.0,0.0,0.0,0.0,1.0215,1.1024,0.0,1.0478,1.0398,1.0398,1.0398,1.1266,1.1601,1.1159,1.0347,0.9905,0.9905,0.9384,0.9116,0.9116,0.9116,0.9116,0.9116,0.9116,1.0155,1.206,1.3188,1.3695,1.3685,1.371,1.3949,1.4343,1.3876,1.268,1.1173,1.161,1.1805,1.1794,1.1805,1.1586,1.1393,1.1674,1.1591,1.1227,1.0808,1.0491,1.0325,1.0624,1.0596,1.0491,1.0641,1.1061,1.1422,1.1515,1.1821,1.2164,1.2296,1.222,1.2143,1.2143,1.1882,1.1616,1.1424,1.0142,0.8822,0.7996,0.8138,0.7916,0.6576,0.6643,0.6567,0.5826,0.5588,0.5505,0.5469,0.5763,0.6138,0.6579,0.6624,0.6297,0.5517,0.5186,0.4572,0.3604,0.3689,0.3772,0.3794,0.3949,0.3827,0.0,0.0,0.0,0.0,0.0,0.0,0.0,0.0,0.0,0.0,0.0,0.0,0.0,0.0,0.0,0.0,0.0,0.0,0.0,0.0,0.0,0.0,0.0,0.0,0.0,0.0,1.0415,1.2132,1.2655,1.2237,1.0638,1.127,1.1961,1.2316,1.1988,1.1805,1.1805,1.0996,1.0322,0.9905,0.9905,1.011,1.0543,1.1439,1.1898,1.1898,1.1898,1.2673,1.413,1.5742,1.6467,1.647,1.6453,1.6464,1.6469,1.6463,1.5641,1.4293,1.3953,1.3227,1.2334,1.2339,1.2399,1.2436,1.2224,1.1836,1.1445,1.1256,1.1256,1.1378,1.1557,1.1608,1.163,1.1815,1.1972,1.2086,1.2123,1.2285,1.2494,1.2572,1.2652,1.2692,1.2692,1.275,1.2787,1.2711,1.1439,1.0125,0.9475,0.9651,0.9395,0.799,0.7831,0.7534,0.6564,0.6153,0.6004,0.6094,0.6364,0.6672,0.698,0.7207,0.6927,0.5995,0.5875,0.5331,0.4192,0.4273,0.4197,0.3906,0.4075,0.4023,0.3717,0.0,0.0,0.0,0.0,0.0,0.0,0.0,0.0,0.0,0.0,0.0,0.0,0.0,0.0,0.0,0.0,0.0,0.0,0.0,0.0,0.0,0.0,0.0,0.9077,1.1584,1.3441,1.3432,1.2498,1.0877,0.832,1.0356,1.2276,1.3312,1.2435,1.1848,1.1805,1.1805,1.1227,0.9995,1.0046,1.0675,1.1903,1.4509,1.5799,1.5799,1.587,1.5915,1.5961,1.724,1.7814,1.7831,1.7811,1.7817,1.7846,1.7851,1.8415,1.9187,1.822,1.6089,1.3553,1.3557,1.3688,1.3751,1.3075,1.2426,1.1865,1.1856,1.2043,1.2252,1.2257,1.2272,1.2252,1.2257,1.2054,1.1906,1.2164,1.2231,1.2291,1.2553,1.2785,1.2917,1.2934,1.3075,1.316,1.297,1.2769,1.2424,1.1749,1.1408,1.0741,0.9216,0.882,0.0,0.7109,0.6963,0.6822,0.6545,0.6927,0.7195,0.7211,0.747,0.7444,0.7037,0.684,0.6277,0.5271,0.5248,0.4898,0.4163,0.424,0.3816,0.2851,0.0,0.0,0.0,0.0,0.0,0.0,0.0,0.0,0.0,0.0,0.0,0.0,0.0,0.0,0.0,0.0,0.0,0.0,0.0,0.0,0.0,0.0,1.2955,1.2961,1.3665,1.4199,1.42,1.3677,1.294,1.1988,1.2539,1.3086,1.3379,1.3122,1.263,1.1833,1.1805,1.1637,1.1296,1.3145,1.4348,1.4704,1.5439,1.5799,1.5827,1.7523,1.8351,1.8352,1.8374,1.8374,1.8358,1.7972,1.8214,1.8893,1.8899,1.9048,1.9272,1.9003,1.7949,1.6585,1.6585,1.602,1.5074,1.3928,1.3406,1.319,1.2902,1.3235,1.3664,1.3373,1.3477,1.3693,1.3589,1.3343,1.3047,1.2848,1.2924,1.3086,1.3106,1.3261,1.3441,1.358,1.3674,1.3686,1.3644,1.3582,1.3275,1.2468,1.2367,1.2062,1.102,1.0704,0.0,0.8463,0.8056,0.7671,0.701,0.7048,0.7278,0.7606,0.7824,0.7772,0.7312,0.7241,0.6863,0.6097,0.616,0.5897,0.5196,0.4504,0.4067,0.0,0.0,0.0,0.0,0.0,0.0,0.0,0.0,0.0,0.0,0.0,0.0,0.0,0.0,0.0,0.0,0.0,0.0,0.0,0.0,0.0,0.0,1.2205,1.4488,1.4488,1.4502,1.45,1.4512,1.4387,1.4196,1.3888,1.3856,1.3728,1.343,1.3396,1.3672,1.4271,1.3774,1.349,1.349,1.4989,1.5799,1.5799,1.5801,1.6298,1.7269,1.8656,1.9363,1.95,1.9021,1.8932,0.0,1.8578,1.8864,1.9721,1.9727,1.9545,0.0,0.0,0.0,0.0,0.0,1.6725,1.5671,1.4739,1.4247,1.4001,1.3912,1.4241,1.4629,1.4395,1.4476,1.4674,1.4566,1.4332,1.3983,1.343,1.3479,1.363,1.3362,1.3523,1.378,1.3983,1.4078,1.4136,1.4038,1.4078,0.0,1.3261,1.3108,1.2823,1.2122,1.1677,1.0891,0.9399,0.9018,0.8591,0.7823,0.7733,0.7847,0.81,0.8198,0.0,0.0,0.0,0.7655,0.7016,0.6773,0.0,0.0,0.0,0.0,0.0,0.0,0.0,0.0,0.3432,0.307,0.0,0.0,0.0,0.0,0.0,0.0,0.0,0.0,0.0,0.0,0.0,0.0,0.0,0.0,0.0,0.0,1.2574,1.4477,1.4447,1.4482,1.4508,1.4505,1.4726,1.4781,1.4576,1.4526,1.4237,1.3559,1.3852,1.5169,1.7676,0.0,0.0,0.0,0.0,1.6031,1.6031,1.6033,1.7127,1.9289,1.9345,1.9506,1.9767,1.9357,1.9408,1.9741,1.9351,1.958,2.0236,2.0236,1.9879,1.9281,1.9243,1.9181,1.8936,1.7378,1.6376,1.5751,1.5474,0.0,0.0,1.4815,1.513,1.5428,1.5387,1.5399,1.5428,1.5324,1.5103,1.4728,1.3951,1.3917,1.3963,1.3497,1.3652,1.3969,1.4214,1.4411,1.4469,1.4302,1.4422,1.4411,1.4065,1.3661,1.3235,1.2781,1.2202,1.1368,1.0102,0.9892,0.9541,0.8722,0.0,0.0,0.8646,0.8559,0.8575,0.8748,0.876,0.8521,0.797,0.7329,0.6951,0.6876,0.6605,0.6425,0.6316,0.612,0.5811,0.5388,0.4637,0.4099,0.0,0.0,0.0,0.0,0.0,0.0,0.0,0.0,0.0,0.0,0.0,0.0,0.0,0.0,0.0,1.2654,1.3715,1.4391,1.4055,1.4293,1.45,1.4496,1.4651,1.4764,1.4821,1.4629,1.4441,1.4301,1.6686,1.8039,1.7822,1.7549,1.7405,1.7417,1.7409,1.7415,1.7415,1.7406,1.8055,1.9305,0.0,0.0,1.9641,1.9662,1.9655,1.9643,1.9538,1.9651,1.9897,1.9895,1.9657,1.9267,1.8877,1.8467,1.8004,1.7136,1.6377,1.58,1.572,1.5805,1.5884,1.5606,1.6151,1.6839,1.6517,1.6625,0.0,1.617,1.5785,1.532,1.4366,1.4058,1.4018,1.3962,1.3916,1.402,1.4501,1.4627,1.4687,1.4747,1.4717,1.4645,1.4555,1.4259,1.3888,1.3469,1.3315,1.2643,1.1045,1.0849,1.0295,0.8908,0.885,0.8925,0.8925,0.9043,0.9149,0.9179,0.9179,0.9087,0.885,0.8811,0.8506,0.7932,0.77,0.7229,0.6459,0.6249,0.5901,0.5388,0.4959,0.4575,0.0,0.0,0.0,0.0,0.0,0.0,0.0,0.0,0.0,0.0,0.0,0.9349,1.0873,0.0,1.3833,1.3463,1.3712,1.3873,1.3675,1.3827,1.4087,1.4459,1.4611,1.4757,1.4895,1.4776,1.4635,1.4499,1.5652,1.6994,1.8471,1.8057,1.7807,1.7806,1.8606,1.9054,1.9054,1.8726,1.8934,1.965,1.9569,1.9609,1.9707,1.9701,1.9707,1.9688,1.9774,1.98,1.9782,1.962,1.9442,1.9251,1.8768,1.8269,1.7722,1.7042,1.6596,1.6259,1.5915,1.592,1.6129,1.6589,1.7119,1.7513,1.732,1.7401,1.7482,1.7093,1.6548,1.5885,1.5137,1.474,1.442,1.3922,1.3854,1.4047,1.4577,1.4707,1.4747,1.4859,1.4859,1.4776,1.4717,1.4563,1.4338,1.3969,1.3721,1.3156,1.1964,1.151,1.086,0.9731,0.9382,0.9249,0.9249,0.9285,0.9303,0.9303,0.9367,0.935,0.9249,0.935,0.9206,0.8803,0.8499,0.8082,0.7559,0.7283,0.6927,0.6489,0.6088,0.5543,0.0,0.0,0.0,0.0,0.0,0.0,0.0,0.0,0.9317,0.9781,0.9816,1.0517,1.2956,1.3891,1.4087,1.3495,1.3396,1.3396,1.3396,1.3399,1.368,1.4404,1.4596,1.4707,1.4804,1.4841,1.4766,1.4511,1.4527,1.5591,1.8013,1.7932,1.7875,1.8091,1.9526,2.0301,2.0306,1.9695,1.9582,1.9926,1.9591,1.9559,1.9809,1.9757,1.9762,1.9836,1.9854,1.9806,1.9682,1.9415,1.9265,1.9159,1.8753,1.8297,1.7805,1.7192,1.6914,1.6722,1.6184,1.6005,1.6155,1.7256,1.7691,1.783,1.7912,1.7879,1.7771,1.7623,1.7066,1.6352,1.5702,1.5243,1.4706,1.3887,1.3789,1.4047,1.4608,1.4747,1.4785,1.4928,1.4936,1.4894,1.4776,1.4738,1.4616,1.4252,1.3899,1.3385,1.2595,1.2047,1.1387,1.0513,1.0012,0.9715,0.9552,0.943,0.9367,0.9349,0.9474,0.9507,0.9419,0.9499,0.9507,0.9419,0.9077,0.879,0.8603,0.83,0.7966,0.7605,0.7207,0.6555,0.8849,1.1013,1.339,1.3378,1.1067,0.9699,0.0,0.0,1.3673,1.3401,1.3087,1.3007,1.3345,1.3479,1.3495,1.3413,1.3396,1.3396,1.3396,1.3396,1.3672,1.441,1.4514,1.4522,1.4545,1.465,1.466,1.4511,1.7055,1.7309,1.4212,1.6431,1.8215,1.9102,1.9896,2.0303,2.0292,1.9935,1.9716,1.9649,1.9826,1.988,1.9821,2.0088,2.0134,1.9954,1.9551,1.9365,1.9346,1.9316,1.9123,1.8839,1.868,1.8415,1.8115,1.7809,1.7313,1.6784,1.6706,1.6701,1.671,1.6872,1.7303,1.789,1.837,1.8171,1.7697,1.7074,1.6828,1.6495,1.5356,1.4686,1.4309,1.438,1.4145,1.4087,1.4738,1.4886,1.4928,1.5133,1.5068,1.4973,1.4966,1.4917,1.4718,1.4264,1.4011,1.3531,1.2623,1.2546,1.201,1.0566,1.061,1.0463,0.9738,0.9675,0.9609,0.9491,0.9609,0.9625,0.949,0.9617,0.9617,0.9482,0.9322,0.904,0.8603,0.8434,0.8092,0.7605,0.7545,0.7242,1.1162,1.1575,1.2429,0.0,1.3732,1.3036,1.4806,1.4494,1.3634,1.2848,1.3073,1.3396,1.3396,1.2889,1.2475,0.0,1.298,1.3396,1.3396,1.3759,1.4213,1.4678,1.4726,1.4669,1.4529,1.4553,1.4565,1.4511,1.5757,1.6601,1.6823,1.5821,1.6501,1.9212,1.9763,2.0107,2.0304,2.0084,1.9992,2.0011,1.9997,2.002,2.0033,2.0104,2.0044,1.9859,1.9463,1.9305,1.9308,1.9298,1.9225,1.9077,1.8806,1.8699,1.8603,1.8012,1.7612,1.7365,1.7372,1.7378,1.7383,1.7383,1.7574,1.7831,1.8063,1.7974,1.7576,1.6511,1.6202,1.62,1.6089,1.5527,1.4992,1.4831,1.4658,1.4612,1.485,1.4904,1.4971,1.5159,1.5146,1.5088,1.5002,1.4977,1.4856,1.4545,1.4314,1.3969,1.3401,1.3055,1.2484,1.1505,1.1515,1.1452,1.1131,1.0663,1.0363,1.032,0.9932,0.9687,0.9684,0.9687,0.9657,0.9555,0.9386,0.9112,0.8711,0.8624,0.8399,0.8066,0.7954,0.7839,1.2269,1.1598,0.0,1.4456,1.5204,1.5191,1.5199,1.4235,1.317,1.2603,1.2939,1.3362,1.3396,1.2533,1.1897,1.2195,1.2889,1.3527,1.3842,1.4238,1.4593,1.4879,1.4957,1.4889,1.4631,1.4588,1.4578,1.461,1.4541,1.5896,1.9134,1.6754,1.6626,1.9485,1.9859,2.0107,2.0295,2.0061,1.9993,2.0098,1.9873,1.9834,1.9922,1.9973,1.9984,1.9913,1.9678,1.9465,1.9296,1.9306,1.93,1.9276,1.9041,1.8929,1.8807,1.8229,1.7928,1.7808,1.7969,1.8107,1.8203,1.8197,1.8038,1.7803,1.7803,1.7783,1.7589,1.6625,1.6097,1.5949,1.6645,1.6508,1.5997,1.5192,1.5,1.4977,1.4876,1.4859,1.4944,1.5114,1.5177,1.5177,1.5075,1.5068,1.4992,1.4803,1.4662,1.4438,1.4082,1.3497,1.2963,1.2558,1.2326,1.2178,1.2178,1.1447,1.1078,1.1275,1.0315,0.9843,1.0083,0.9847,0.9665,0.9578,0.9421,0.9191,0.885,0.8801,0.8679,0.851,0.8364,0.8402,1.1682,0.0,1.2959,1.474,1.5202,1.5191,1.5196,1.4169,1.3405,1.4069,1.3674,1.3261,1.3379,1.2533,1.2133,1.3174,1.3379,1.3818,1.4969,1.4768,1.4597,1.4877,1.5073,1.5114,0.0,1.4768,1.4749,1.487,1.4657,1.5902,1.9128,1.9793,2.0145,2.0265,2.0468,2.0482,2.0308,1.9779,1.9538,1.9618,1.9348,1.9234,1.9253,1.976,2.0093,2.0272,2.0263,1.9896,1.931,1.9303,1.9292,1.9308,1.9291,1.9014,1.8604,1.8585,1.8244,1.7867,1.8397,1.8874,1.9263,1.9256,1.8586,1.7807,1.781,1.7786,1.7773,1.7755,1.6791,1.5949,1.6645,1.7264,1.7271,1.5435,1.5,1.4934,1.4762,1.4804,1.4919,1.4992,1.5101,1.5189,1.5189,1.5189,1.514,1.5014,1.498,1.4833,1.4445,1.3809,1.3427,1.3542,1.2865,1.238,1.238,1.1648,1.1506,1.2213,1.0707,1.012,1.0847,1.0121,0.9633,0.9508,0.95,0.9323,0.8998,0.8988,0.8915,0.879,0.879,0.885,1.3486,0.0,1.3431,1.4737,1.5133,1.5122,1.4807,1.4005,1.3208,1.274,1.3008,1.3118,1.2467,1.203,1.244,1.4411,1.4642,1.4694,1.496,1.4987,1.4956,1.4912,1.508,0.0,0.0,0.0,0.0,1.4626,1.7068,1.9018,2.0094,2.0249,2.0094,1.965,1.9692,1.9694,1.9645,1.9324,1.8757,1.7948,1.8298,1.8608,1.8878,1.9231,1.9555,1.9844,2.0152,2.0259,2.0155,2.0166,2.0071,1.9953,1.9822,1.9602,1.9409,1.9451,1.9184,1.8778,1.8646,1.8467,1.8408,1.9092,1.8617,1.7803,1.7803,1.781,1.7803,1.7806,1.6815,1.6046,1.7077,1.7822,1.7945,1.6481,1.6139,1.5895,1.5085,1.4938,1.5011,1.5121,1.5177,1.5189,1.5189,1.5234,1.5217,1.5085,1.4985,1.487,1.4757,1.4573,1.4461,1.4463,1.4258,1.4099,1.4052,1.3316,1.2704,1.2314,1.127,1.0491,1.0121,0.9845,0.9633,0.9508,0.9549,0.9479,0.926,0.9314,0.9313,0.9251,0.9215,0.9242,1.418,1.3845,1.3462,1.469,1.4786,1.4476,1.418,1.3736,1.3092,1.202,1.2351,1.2329,1.0704,1.0845,1.1952,1.4299,1.4475,1.4209,1.3939,1.4509,1.4878,1.4708,1.427,1.3768,0.0,0.0,0.0,1.4608,1.775,1.9608,1.9606,1.8433,1.7575,1.7138,1.7117,1.7121,1.7124,1.6289,1.612,1.653,1.7278,1.7999,1.8663,1.8837,1.9124,1.9532,2.0059,2.003,1.962,1.9998,2.0051,1.9918,1.9724,1.9715,1.978,1.9693,1.9554,1.9362,1.8989,1.8608,1.8437,1.9091,1.886,1.8267,1.7916,1.7803,1.78,1.7799,1.718,1.6747,1.783,1.8558,1.8737,1.7515,1.7032,1.6544,1.5638,1.5216,1.5062,1.5146,1.5197,1.5231,1.5231,1.5237,1.5192,1.5082,1.4961,1.4919,1.4939,1.5023,1.5063,1.5038,1.5091,1.5091,1.5058,1.4286,1.3652,1.3323,1.2227,1.1316,1.0696,1.0398,1.0042,0.9647,0.9685,0.9679,0.9615,0.965,0.9663,0.9649,0.9594,0.9599,1.3806,1.3155,1.3131,1.4593,1.4203,1.3409,1.3319,1.3276,1.2987,1.198,1.1698,1.0872,0.0,0.0,1.0756,1.282,1.2808,1.2437,1.205,1.3344,1.4289,0.0,0.0,0.0,0.0,0.0,0.0,1.4258,0.0,1.7261,1.7252,1.4464,1.2882,1.2885,1.2867,1.2874,1.2896,1.1056,1.1801,1.5062,1.6009,1.7124,1.83,1.8317,1.8612,1.9132,1.9773,1.9202,1.7864,1.8647,1.9041,1.9101,1.8906,1.9162,1.9613,1.9286,1.9316,1.9492,1.9367,1.9317,1.9289,1.9291,1.9309,1.9111,1.8178,1.784,1.7813,1.786,1.7889,1.8051,1.8823,1.9417,1.9556,1.8458,1.7611,1.6876,1.6288,1.559,1.5117,1.5117,1.5216,1.5302,1.5304,1.5188,1.5076,1.5005,1.4944,1.4928,1.4998,1.5117,1.5215,1.5284,1.5282,1.5295,1.5307,1.4533,1.434,1.4995,1.344,1.2458,1.2348,1.1572,1.0757,0.992,0.9901,0.9952,1.0002,1.0002,0.9978,0.9911,0.9906,0.991,1.4617,1.4472,1.4119,1.4464,1.4235,1.3524,1.203,1.1686,1.1597,1.1319,1.0399,0.9151,0.0,0.0,0.0,0.9818,1.0351,0.0,1.0621,1.1571,0.0,1.1936,0.0,0.9904,0.7942,0.5846,0.0,0.0,0.8539,0.9741,0.9766,0.9004,0.8596,0.8595,0.8595,0.8566,0.8575,0.8069,0.8308,0.919,1.0999,1.2809,1.4512,1.4553,1.5198,1.6331,1.6617,1.7117,1.7636,1.5603,1.5511,1.6685,1.6641,1.7095,1.7858,1.8516,1.851,1.8338,1.9443,1.9593,1.9306,1.9296,1.93,1.9251,1.901,1.8392,1.795,1.8717,1.8924,1.8949,1.9165,1.9738,1.9909,1.8595,1.7849,1.7079,1.574,1.5316,1.5168,1.5168,1.521,1.5233,1.5292,1.5147,1.5047,1.5071,1.4974,1.4909,1.4924,1.5005,1.5086,1.5132,1.5156,1.5182,1.5291,1.5096,1.4749,1.4237,1.3179,1.2273,1.1614,1.0751,1.0191,0.9978,1.0021,1.0064,1.0074,1.0122,1.0149,1.0119,1.0074,1.009,1.3337,1.3749,1.3964,1.4446,1.4407,1.3733,1.1807,1.1418,1.0978,0.9375,0.9474,0.0,0.8081,0.0,0.0,0.0,0.0,0.0,0.9382,0.9854,1.018,0.0,1.0241,0.0,0.7235,0.5855,0.4678,0.0,0.4769,0.5517,0.5488,0.5505,0.5494,0.5517,0.5525,0.5966,0.7004,0.7004,0.7017,0.6997,0.8227,0.9375,1.0437,1.0996,1.1652,1.2402,0.0,1.3015,1.3677,1.1956,1.2077,1.3429,1.3839,1.4582,1.5526,1.6252,1.6533,1.6684,1.7808,1.8789,1.9539,1.9686,1.9791,1.9836,1.9658,1.9207,1.8907,1.9596,1.9755,1.9755,1.9786,2.0068,2.0156,1.937,1.8713,1.8003,1.7107,1.6338,1.5708,1.532,1.5197,1.5161,1.5219,1.5018,1.4871,1.4912,1.4803,1.4747,1.4795,1.489,1.4967,1.5009,1.5067,1.5138,1.5215,1.5278,1.5077,1.455,1.3676,1.2797,1.1949,1.1082,1.0453,1.0086,1.0123,1.0169,1.0188,1.0237,1.0239,1.0191,1.016,1.0162,1.1672,1.237,1.3254,1.455,1.4555,1.3816,1.218,1.1689,1.0602,0.7217,0.0,1.0097,0.8755,0.6468,0.5294,0.6895,0.0,0.7916,0.8319,0.8373,0.8493,0.8795,0.9695,0.9544,0.7617,0.7155,0.6058,0.3774,0.3591,0.3584,0.359,0.3587,0.3583,0.3619,0.3909,0.4999,0.6979,0.6992,0.7001,0.6982,0.6997,0.7036,0.7173,0.8164,0.86,0.8613,0.863,0.0,0.8345,0.8519,0.916,1.0089,1.1098,1.2089,1.3024,1.3388,1.4096,1.4923,1.5456,1.7352,1.9601,2.0016,2.0282,2.0373,2.0136,2.0038,2.0108,2.0334,2.036,2.0327,2.037,2.0348,2.0269,2.0116,1.9555,1.9002,1.8846,1.7524,1.6161,1.5396,1.5143,1.5066,1.5075,1.4878,1.4701,1.4698,1.4592,1.4578,1.4687,1.4785,1.4856,1.4916,1.5005,1.508,1.5105,1.5235,1.5307,1.5307,1.443,1.3555,1.2753,1.1875,1.1035,1.0214,1.0195,1.0234,1.0293,1.0293,1.0273,1.0228,1.0326,1.0385,1.3461,1.3286,1.3085,1.4869,1.4334,1.3217,1.2513,1.1023,0.0,0.0,0.7311,0.7205,0.6606,0.693,0.674,0.5134,0.0,0.0,0.0,0.0,0.7826,0.0,0.0,0.0,0.0,0.0,0.0,0.0,0.0,0.3594,0.3609,0.3581,0.359,0.3595,0.5439,0.6617,0.6979,0.6989,0.6983,0.7007,0.6999,0.7321,0.79,0.8016,0.81,0.8198,0.8198,0.0,0.6386,0.7546,0.8134,0.8468,0.9963,1.0815,1.1266,1.1436,1.2574,1.4044,1.4254,1.6011,1.8283,1.9114,1.9444,1.9624,2.0174,2.033,2.0339,2.0386,2.0381,2.0369,2.0328,2.0352,2.0123,1.9137,1.8861,1.8558,1.7503,1.6235,1.5209,1.5019,1.4946,1.4923,1.4925,1.4794,1.469,1.4688,1.4687,1.4677,1.4707,1.4614,1.4678,1.4947,1.4946,1.4996,1.5163,1.525,1.5307,1.5307,1.4473,1.3615,1.2818,1.1959,1.1083,1.0227,1.0204,1.0209,1.0229,1.0273,1.0293,1.0293,1.1015,1.1367,1.245,1.2552,1.2654,1.3728,1.4167,1.4021,1.2836,0.0,0.0,0.0,0.6208,0.5809,0.5265,0.0,0.0,0.0,0.0,0.0,0.0,0.0,0.0,0.0,0.0,0.0,0.0,0.0,0.0,0.0,0.0,0.4838,0.3665,0.4744,0.5351,0.5348,0.6416,0.7003,0.6979,0.7595,0.7595,0.7021,0.7307,0.7482,0.7545,0.7454,0.7474,0.7522,0.7224,0.0,0.6021,0.6391,0.6963,0.7736,0.8627,0.9565,1.0326,1.0244,1.0593,1.1206,1.2036,1.3441,1.5137,1.672,1.8,1.9067,1.9812,2.0167,2.0311,2.038,2.0377,2.0348,2.0309,2.0258,2.0055,1.9465,1.9311,1.9021,1.7947,1.6914,1.6055,1.5612,1.5132,1.4794,1.4794,1.4687,1.4614,1.4697,1.4707,1.4738,1.4847,1.4766,1.4776,1.4933,1.495,1.5011,1.5145,1.521,1.5265,1.5298,1.4457,1.3775,1.3392,1.2576,1.1942,1.1557,1.155,1.1567,1.1619,1.164,1.1641,1.166,1.207,1.2265,1.1709,1.1904,1.2267,1.3079,1.4252,1.4613,1.2335,1.0059,0.0,0.0,0.5408,0.4987,0.4448,0.0,0.484,0.0,0.0,0.0,0.0,0.0,0.0,0.0,0.0,0.0,0.0,0.0,0.0,0.0,0.0,0.0,0.4444,0.603,0.7019,0.7016,0.7016,0.7222,0.7721,0.8352,0.8286,0.7496,0.787,0.7821,0.7349,0.7231,0.7196,0.7147,0.6477,0.0,0.0,0.5461,0.5924,0.6976,0.736,0.8392,0.9589,0.9519,0.9332,0.9248,0.9791,1.0912,1.2475,1.467,1.6723,1.8476,1.9276,1.9783,2.0146,2.0272,2.0299,2.0302,2.0302,2.0177,2.005,1.9964,1.985,1.9498,1.8601,1.7693,1.6851,1.6145,1.5287,1.4656,1.4656,1.4578,1.4545,1.4687,1.4727,1.4813,1.4973,1.4973,1.4952,1.4952,1.4992,1.5044,1.5138,1.5182,1.5246,1.5295,1.4603,1.4115,1.3922,1.3316,1.292,1.2773,1.279,1.2834,1.2871,1.2871,1.289,1.2891,1.3085,1.3125,1.369,1.2764,1.2224,1.457,1.4857,1.3633,1.0067,0.0,0.0,0.6316,0.5167,0.43,0.4224,0.4495,0.5757,0.0,0.0,0.6919,0.0,0.0,0.0,0.0,0.0,0.0,0.0,0.0,0.0,0.0,0.0,0.0,0.68,0.6898,0.7009,0.6992,0.6992,0.7968,0.9962,0.9123,0.8807,0.9003,0.8749,0.8594,0.8513,0.8036,0.7829,0.7746,0.6689,0.0,0.0,0.5134,0.517,0.559,0.632,0.7418,0.8701,0.9195,1.0107,1.0691,0.8211,0.9333,1.2219,1.4558,1.6269,1.7604,1.8591,1.9328,1.9861,2.0003,2.0167,2.03,2.03,2.0292,2.0208,1.9899,1.9705,1.9338,1.8342,1.7117,1.6128,1.5797,1.5085,1.4511,1.4511,1.4499,1.4545,1.4687,1.4804,1.4919,1.4999,1.5095,1.5171,1.5171,1.512,1.5143,1.5278,1.5284,1.5287,1.529,1.5226,1.4829,1.4016,1.3923,1.3501,1.2717,1.2766,1.2806,1.2807,1.2809,1.2845,1.293,1.3645,1.3998,1.4,1.3786,1.3529,1.4594,1.4898,1.3951,1.0221,0.0,0.6545,0.525,0.4602,0.4214,0.4041,0.4354,0.5131,0.6681,0.7523,0.8004,0.8054,0.0,0.0,0.0,0.0,0.0,0.0,0.0,0.0,0.0,0.0,0.0,1.0784,0.9621,0.8996,0.8997,0.8356,0.8733,1.0177,0.9839,0.9904,1.0391,0.9853,0.9591,0.9524,0.9327,0.9058,0.8723,0.7583,0.0,0.0,0.443,0.4029,0.4111,0.5266,0.6755,0.8443,1.0031,1.0862,1.1159,1.0701,1.1158,1.2225,1.41,1.5508,1.6764,1.8413,1.9342,1.9847,2.0116,2.0241,2.0312,2.0312,2.0153,1.995,1.9732,1.9444,1.9002,1.8125,1.7007,1.6081,1.561,1.4865,1.4362,1.4476,1.4578,1.4666,1.4794,1.49,1.5004,1.5114,1.5171,1.5212,1.5255,1.5241,1.524,1.529,1.5296,1.5296,1.5296,1.5292,1.5147,1.4798,1.4779,1.4635,1.4335,1.4355,1.4368,1.4355,1.4369,1.4382,1.4407,1.4681,1.4812,1.3376,1.4116,1.4595,1.4644,1.4933,1.4233,0.0,0.8487,0.6895,0.5272,0.4582,0.4196,0.3941,0.4127,0.4491,0.501,0.7234,0.8729,0.8259,0.0,0.0,0.0,0.0,0.0,0.0,0.0,0.0,0.0,0.0,0.0,0.0,1.2435,1.1405,1.1155,1.0151,0.9958,1.0713,1.0803,1.1092,1.154,1.1084,1.0941,1.1103,1.1002,1.0835,1.044,0.0,0.0,0.0,0.447,0.3646,0.3635,0.457,0.6081,0.8085,1.065,1.1605,1.1757,1.303,1.3135,1.2908,1.4214,1.5353,1.6548,1.8179,1.9154,1.9741,2.006,2.0225,2.0312,2.0312,2.0041,1.9786,1.9682,1.9365,1.8921,1.837,1.7273,1.6268,1.59,1.4945,1.427,1.4464,1.4589,1.4697,1.4859,1.4933,1.5033,1.5177,1.5189,1.5212,1.5265,1.5289,1.5303,1.5293,1.5296,1.5296,1.5296,1.5292,1.5298,1.5298,1.5295,1.5316,1.5366,1.5397,1.5406,1.5391,1.5403,1.5397,1.5402,1.5342,1.5336,1.1812,1.3436,1.499,1.4995,1.5101,1.4225,1.0531,0.9273,0.8456,0.6971,0.5352,0.4132,0.3942,0.3904,0.416,0.4975,0.7247,0.8893,0.888,0.8906,0.0,0.0,0.0,0.0,0.0,0.0,0.0,0.0,0.0,0.0,0.0,1.4955,1.4053,1.3212,1.2273,1.1905,1.2174,1.2174,1.2261,1.239,1.239,1.2746,1.346,1.3211,1.3106,0.0,0.0,0.0,0.0,0.5705,0.4339,0.4588,0.4382,0.5422,0.7411,1.083,1.227,1.2695,1.4242,1.459,1.4502,1.5168,1.6156,1.719,1.7735,1.8606,1.9449,1.9736,2.0031,2.0312,2.0312,2.0041,1.979,1.9809,1.954,1.9289,1.9289,1.7872,1.6657,1.6849,1.5423,1.427,1.4464,1.4488,1.46,1.4868,1.4904,1.4968,1.5171,1.5189,1.5189,1.5195,1.526,1.5303,1.5293,1.5296,1.5296,1.5296,1.5292,1.5298,1.5298,1.5294,1.5296,1.5296,1.5365,1.5391,1.5391,1.5403,1.5403,1.5391,1.5402,1.5403,1.0478,1.092,1.124,1.1459,1.1616,1.136,1.0,0.772,0.576,0.5296,0.4802,0.4431,0.4323,0.4318,0.5229,0.8055,0.8722,0.9023,0.0,0.0,0.0,0.0,0.0,0.0,0.0,0.0,0.0,0.0,0.0,0.0,0.0,1.6243,1.5235,1.4114,1.2878,1.2412,1.2815,1.2508,1.2836,1.3769,1.3729,1.4194,1.515,1.5161,0.0,0.0,0.0,0.0,0.0,0.8799,0.7476,0.7072,0.5139,0.6253,0.9274,1.1675,1.3428,1.4665,1.5406,1.5987,1.641,1.6507,1.6998,1.759,1.8091,1.8714,1.9351,1.9809,2.0097,2.0277,2.0124,1.9962,1.9786,1.9682,1.938,1.8937,1.8388,1.7273,1.6302,1.595,1.4963,1.427,1.4464,1.4645,1.4794,1.4895,1.5027,1.5133,1.5183,1.5189,1.5189,1.5189,1.5212,1.526,1.5303,1.53,1.5303,1.5311,1.5291,1.5298,1.5298,1.5299,1.5303,1.5296,1.5316,1.5325,1.5325,1.5325,1.5312,1.5254,1.5253,1.5293,0.8419,0.8366,0.811,0.8439,0.8347,0.8291,0.8708,0.6619,0.4629,0.4679,0.4743,0.4772,0.4729,0.5194,0.652,0.9346,1.025,1.0709,0.0,0.0,0.0,0.0,0.0,0.0,0.0,0.0,0.0,0.0,0.0,0.0,0.0,1.7273,1.6459,1.5698,1.4187,1.3452,1.3624,1.3452,1.3885,1.484,1.5037,1.5634,1.6595,1.6942,0.0,0.0,0.0,0.0,0.0,1.1688,1.0066,0.8887,0.7783,0.8574,1.0666,1.3077,1.4687,1.5771,1.6675,1.7192,1.7462,1.7599,1.777,1.8007,1.8483,1.8975,1.9439,1.9817,2.0012,2.0088,1.9953,1.9824,1.9688,1.9623,1.9353,1.899,1.8476,1.7387,1.6406,1.6096,1.5117,1.4414,1.4614,1.4785,1.4921,1.4925,1.504,1.514,1.5189,1.5189,1.5189,1.5189,1.5189,1.5212,1.526,1.5259,1.5268,1.5265,1.526,1.526,1.526,1.5289,1.5295,1.529,1.5307,1.5296,1.5296,1.5297,1.5274,1.5246,1.5246,1.526,0.0,0.5971,0.5832,0.6042,0.5537,0.537,0.6802,0.5942,0.0,0.4977,0.5065,0.5164,0.5425,0.6516,0.7809,0.9127,1.1435,0.0,0.0,0.0,0.0,0.0,0.0,0.0,0.0,0.0,0.0,0.0,0.0,0.0,0.0,1.798,1.762,1.7588,1.5973,1.4957,1.4582,1.485,1.5228,1.5662,1.6239,1.6962,1.7786,1.8499,0.0,0.0,0.0,0.0,0.0,1.4404,1.2354,1.0533,1.1932,1.206,1.1787,1.4802,1.5925,1.6212,1.7841,1.8156,1.7902,1.8411,1.8501,1.8467,1.8894,1.9277,1.9591,1.975,1.9778,1.9809,1.9797,1.9682,1.9569,1.9569,1.9423,1.9286,1.9231,1.796,1.6872,1.7008,1.5721,1.4672,1.4867,1.4913,1.4936,1.4999,1.5002,1.5062,1.5189,1.5201,1.5201,1.5201,1.5195,1.5189,1.5189,1.5189,1.5189,1.5189,1.5189,1.5189,1.5189,1.526,1.5293,1.5293,1.5287,1.5287,1.5284,1.5284,1.5281,1.5278,1.5281,1.5281,0.4777,0.0,0.5436,0.5183,0.5025,0.5038,0.0,0.5238,0.498,0.5053,0.5088,0.5895,0.852,0.7957,0.7665,0.9408,0.9838,0.0,0.0,0.0,0.0,0.0,0.0,0.0,0.0,0.0,0.0,0.0,0.0,0.0,0.0,1.827,1.7854,1.7377,1.6716,1.6044,1.536,1.5181,1.5404,1.6068,1.6512,1.7309,1.8395,1.8777,1.9202,0.0,0.0,0.0,1.9338,1.7655,1.665,1.6098,1.5551,1.4981,1.4586,1.5555,1.6295,1.6967,1.7982,1.8626,1.907,1.9386,1.9406,1.9291,1.924,1.9271,1.9339,1.9591,1.9713,1.9786,1.9669,1.9458,1.931,1.9365,1.9301,1.9099,1.8638,1.7813,1.701,1.6457,1.5527,1.4831,1.4895,1.4942,1.4985,1.5007,1.5126,1.5241,1.5275,1.5275,1.5275,1.5275,1.5229,1.5189,1.5189,1.5189,1.5189,1.5189,1.5189,1.5189,1.5189,1.5232,1.5218,1.5218,1.522,1.516,1.5069,1.5069,1.5031,1.4999,1.5057,1.5031,0.4463,0.507,0.5624,0.5442,0.5446,0.5506,0.5537,0.5261,0.5012,0.0,0.0,0.6173,0.7862,0.7786,0.7778,0.8763,0.9158,0.0,0.0,0.0,0.0,0.0,0.0,0.0,0.0,0.0,0.0,0.0,0.0,0.0,0.0,1.841,1.8107,1.7902,1.7311,1.6664,1.592,1.5752,1.5838,1.6266,1.6751,1.7332,1.7979,1.8484,1.8893,0.0,0.0,0.0,1.9491,1.8906,1.8135,1.7368,1.7459,1.6994,1.6297,1.6792,1.7299,1.7855,1.8215,1.8815,1.9449,1.9705,1.975,1.9682,1.9572,1.9494,1.9462,1.9448,1.9504,1.9585,1.9596,1.9495,1.9415,1.9499,1.9494,1.9399,1.911,1.8183,1.7297,1.6877,1.5875,1.5081,1.5081,1.5116,1.5133,1.5138,1.5236,1.5289,1.526,1.5255,1.5255,1.5255,1.5218,1.5189,1.5189,1.5189,1.5189,1.5189,1.5189,1.5189,1.5189,1.5189,1.5177,1.5101,1.5101,1.5054,1.4957,1.4957,1.4944,1.4904,1.4952,1.4925,0.4755,0.5499,0.6182,0.6116,0.6255,0.6408,0.6393,0.0,0.0,0.0,0.0,0.0,0.0,0.7269,0.0,0.0,0.0,0.0,0.0,0.0,0.0,0.0,0.0,0.0,0.0,0.0,0.0,0.0,0.0,0.0,0.0,1.8469,1.831,1.8528,1.7726,1.6986,1.6367,1.6258,1.6188,1.6188,1.6636,1.6914,1.7043,1.7788,1.8128,1.8161,0.0,0.0,1.8362,1.882,1.8146,1.6916,1.8112,1.7932,1.7106,1.7786,1.8187,1.8475,1.8632,1.9034,1.955,1.9938,1.995,1.9828,1.9906,1.988,1.9731,1.9462,1.9394,1.9423,1.9596,1.9617,1.9619,1.979,1.9809,1.9787,1.9745,1.8728,1.7774,1.75,1.6394,1.5455,1.5315,1.529,1.5294,1.5306,1.5298,1.5279,1.5218,1.5212,1.5212,1.5212,1.522,1.5189,1.5189,1.5189,1.5189,1.5189,1.5189,1.5189,1.5189,1.5189,1.514,1.5035,1.5035,1.4996,1.4904,1.4902,1.4894,1.4877,1.4894,1.4902,0.5658,0.6475,0.6947,0.6272,0.674,0.7376,0.7304,0.7215,0.0,0.0,0.0,0.0,0.0,0.0,0.0,0.0,0.0,0.0,0.0,0.0,0.0,0.0,0.0,0.0,0.0,0.0,0.0,0.0,0.0,0.0,0.0,1.8371,1.8208,1.8249,1.7631,1.7126,1.6738,1.6044,1.5706,1.5706,1.5447,1.5613,1.6114,1.6755,1.6942,1.6845,0.0,1.8458,1.8037,1.7784,1.7893,1.8118,1.7337,1.6922,1.6797,1.7146,1.7444,1.7904,1.9532,1.9969,1.9977,2.0923,2.0592,1.9918,2.0479,2.0251,1.9778,1.9731,1.9719,1.9719,1.9762,1.9642,1.9575,1.9829,1.9849,1.9654,1.9162,1.9008,1.8528,1.7041,1.6564,1.6178,1.5432,1.5303,1.5291,1.5302,1.5298,1.5298,1.5284,1.5284,1.5284,1.5284,1.5234,1.5189,1.5189,1.5189,1.5189,1.5189,1.5189,1.5189,1.5189,1.5189,1.5189,1.5177,1.5177,1.5073,1.4904,1.4965,1.4898,1.4718,1.4906,1.4957,0.5335,0.6406,0.729,0.676,0.7378,0.8166,0.8463,0.8152,0.0,0.0,0.0,0.0,0.0,0.0,0.0,0.0,0.0,0.0,0.0,0.0,0.0,0.0,0.0,0.0,0.0,0.0,0.0,0.0,0.0,0.0,0.0,0.0,1.8057,1.8187,1.78,1.7337,1.6815,1.5955,1.5475,1.5316,1.4654,1.4612,1.5155,1.5366,1.5525,1.5737,0.0,1.7033,1.6852,1.666,1.6772,1.7043,1.6488,1.626,1.6286,1.6419,1.6653,1.7104,1.8374,1.9083,1.9581,2.0581,2.0532,2.0154,2.0526,2.0249,1.9832,1.989,1.9858,1.9836,1.9926,1.9888,1.9886,2.012,2.014,2.005,1.9827,1.9461,1.8971,1.821,1.7655,1.7036,1.62,1.6029,1.5831,1.536,1.5298,1.5289,1.525,1.5245,1.521,1.5157,1.5114,1.5087,1.5038,1.5049,1.5073,1.5183,1.5189,1.5171,1.5095,1.5152,1.5107,1.4933,1.5008,1.4928,1.4677,1.4699,1.4709,1.4707,1.5245,1.5508,0.5125,0.6268,0.7388,0.7353,0.8079,0.8945,0.9468,0.9052,0.8768,0.0,0.0,0.0,0.0,0.0,0.0,0.0,0.0,0.0,0.0,0.0,0.0,0.0,0.0,0.0,0.0,0.0,0.0,0.0,0.0,0.0,0.0,0.0,1.7927,1.8187,1.7949,1.7519,1.6926,1.6076,1.5447,1.4937,1.3952,1.367,1.4038,1.3918,1.3987,1.43,1.5139,1.5463,1.5364,1.5364,1.5475,1.5613,1.5306,1.525,1.5379,1.543,1.5786,1.6366,1.7271,1.8113,1.8974,2.0203,2.0396,2.021,2.0539,2.0331,1.995,1.988,1.9839,1.985,2.0096,2.0159,2.0211,2.0387,2.0425,2.0435,2.0484,1.9955,1.9426,1.9245,1.865,1.7913,1.7051,1.6704,1.6308,1.5671,1.5317,1.5132,1.5121,1.5101,1.5047,1.4985,1.4977,1.4957,1.4894,1.4904,1.4944,1.5061,1.5101,1.5087,1.4977,1.508,1.5015,1.4756,1.4859,1.4813,1.46,1.4614,1.4771,1.5085,1.5744,1.6204,0.5833,0.6564,0.7262,0.787,0.8883,0.9775,1.0077,1.0059,0.0,1.0668,0.0,0.0,0.0,0.0,0.0,0.0,0.0,0.0,0.0,0.0,0.0,0.0,0.0,0.0,0.0,0.0,0.0,0.0,0.0,0.0,0.0,0.0,0.0,1.8187,1.7949,1.7635,1.7272,1.6512,1.562,1.4533,1.3238,1.2603,1.2638,1.2578,1.2354,1.2139,1.3735,1.4173,1.3779,1.3779,1.4197,1.476,1.3589,1.337,1.3813,1.4111,1.4879,1.596,1.7397,1.7944,1.8413,2.0546,2.0514,1.9836,2.0755,2.0782,2.0303,1.9641,1.9607,1.9871,2.0197,2.0332,2.0395,2.0477,2.0484,2.0486,2.0508,2.0405,2.0048,1.9109,1.8969,1.869,1.7703,1.6854,1.6323,1.6317,1.5375,1.4719,1.4894,1.4757,1.471,1.4885,1.4913,1.4913,1.4904,1.4904,1.4822,1.4653,1.4812,1.4921,1.4913,1.4921,1.4913,1.4895,1.4895,1.4895,1.4877,1.4931,1.5384,1.6192,1.6366,1.6858,0.5181,0.6362,0.7457,0.7115,0.8685,0.0,0.0,1.086,1.1561,1.2159,1.2033,0.0,0.0,0.0,0.0,0.0,0.0,0.0,0.0,0.0,0.0,0.0,0.0,0.0,0.0,0.0,0.0,0.0,0.0,0.0,0.0,0.0,0.0,1.7631,1.7749,1.7635,1.7296,1.6564,1.5734,1.4788,1.3209,1.2472,1.2461,1.1813,1.163,1.1847,1.2483,1.2634,1.2495,1.2495,1.2667,1.2905,1.2401,1.2319,1.2495,1.2627,1.3128,1.3947,1.5069,1.6163,1.7259,1.8649,1.9294,1.9618,1.9984,2.0205,2.0172,1.9524,1.959,1.9907,2.0112,2.0186,2.023,2.0298,2.0312,2.0279,2.0205,2.0172,2.0044,1.965,1.9454,1.9065,1.8135,1.7178,1.6367,1.5851,1.5395,1.4966,1.4579,1.4972,1.512,1.4637,1.5072,1.56,1.6107,1.5575,1.5226,1.5279,1.5028,1.4822,1.461,1.4785,1.4813,1.4645,1.4823,1.4868,1.4776,1.5402,1.5914,1.6381,1.7471,1.8193,0.5029,0.6376,0.7679,0.7012,0.0,0.0,1.0175,1.1054,1.2121,1.272,1.2927,0.0,0.0,0.0,0.0,0.0,0.0,0.0,0.0,0.0,0.0,0.0,0.0,0.0,0.0,0.0,0.0,0.0,0.0,0.0,0.0,0.0,0.0,1.728,1.7526,1.7572,1.7455,1.6751,1.6056,1.5374,1.3657,1.2648,1.2246,1.1383,1.1132,1.133,1.1468,1.1553,1.1553,1.1553,1.1479,1.133,1.133,1.1442,1.1553,1.1553,1.2012,1.2726,1.3476,1.4737,1.6153,1.7221,1.8237,1.9045,1.9106,1.9267,1.9311,1.8667,1.8715,1.8982,1.9109,1.9522,1.9939,1.9995,1.9995,1.995,1.9865,1.9764,1.9706,1.9744,1.9435,1.9031,1.8471,1.7523,1.6653,1.6169,1.5692,1.5278,1.4945,1.5311,1.5438,1.5012,1.5497,1.6105,1.6706,1.6149,1.5809,1.5981,1.5711,1.5197,1.4456,1.4658,1.4695,1.4499,1.4959,1.5189,1.5131,1.6108,1.6812,1.7283,1.8454,1.9177,0.5661,0.6736,0.7882,0.7821,0.0,0.0,0.9792,1.0579,1.1605,1.2202,1.2838,1.3244,1.3035,0.0,0.0,0.0,0.0,0.0,0.0,0.0,0.0,0.0,0.0,0.0,0.0,0.0,0.0,0.0,0.0,0.0,0.0,0.0,1.6528,1.7256,1.728,1.7455,1.7789,1.7142,1.6602,1.6177,1.4581,1.3107,1.1774,1.1244,1.0753,1.0322,1.0791,1.0981,1.0981,1.0981,1.0725,1.0283,1.0283,1.0572,1.0971,1.0971,1.1659,1.2659,1.3051,1.3963,1.5222,1.6604,1.7491,1.8012,1.8212,1.8042,1.7652,1.6903,1.6786,1.6931,1.7059,1.8262,1.9492,1.9573,1.9541,1.9488,1.9488,1.9229,1.9032,1.9164,1.8808,1.8551,1.8749,1.7843,1.7205,1.7531,1.634,1.5607,1.615,1.574,1.5627,1.615,1.6202,1.6303,1.6507,1.6504,1.6553,1.6613,1.6775,1.6175,1.4579,1.4524,1.4524,1.4524,1.5444,1.5976,1.6101,1.7121,1.8132,1.9098,1.9178,1.9594,0.5924,0.7186,0.0,0.8028,0.0,0.0,0.0,1.1097,0.0,0.0,1.4211,1.4469,1.4122,0.0,0.0,0.0,0.0,0.0,0.0,0.0,0.0,0.0,0.0,0.0,0.0,0.0,0.0,0.0,0.0,0.0,0.0,1.5003,1.5605,1.608,1.66,1.7052,1.7439,1.7018,1.6602,1.6177,1.4882,1.357,1.2188,1.1372,1.0524,0.9765,1.0273,1.0302,0.9981,1.0341,1.0428,1.0283,1.0283,1.04,1.0505,1.0505,1.0893,1.145,1.1909,1.2774,1.3795,1.4541,1.5219,1.584,1.6284,1.6849,1.7204,1.6444,1.6759,1.7155,1.6427,1.6602,1.7266,1.8408,1.8665,1.8689,1.8835,1.8592,1.8372,1.8425,1.8158,1.788,1.7705,1.6808,1.616,1.6248,1.6088,1.6177,1.668,1.6157,1.6092,1.6941,1.7047,1.7294,1.7933,1.7505,1.725,1.7379,1.6932,1.6468,1.6014,1.6122,1.6193,1.6193,1.6649,1.6903,1.6961,1.8093,1.8838,1.9189,1.9772,2.0155,0.6777,0.8066,0.0,0.8826,1.0081,1.1299,1.0813,0.0,0.0,0.0,0.0,0.0,0.0,0.0,0.0,0.0,0.0,0.0,0.0,0.0,0.0,0.0,0.0,0.0,0.0,0.0,0.0,0.0,0.0,0.0,0.0,1.399,1.4595,1.5345,1.5955,1.647,1.6878,1.668,1.6389,1.5958,1.4986,1.3868,1.2659,1.1729,1.0753,0.9843,0.9922,0.9848,0.9663,0.9794,0.9885,0.998,0.998,0.9931,0.9853,0.9926,1.0141,1.0406,1.0993,1.1929,1.2899,1.3184,1.3839,1.4563,1.4694,1.5164,1.5477,1.4831,1.5175,1.5515,1.4713,1.4892,1.5613,1.6997,1.748,1.7612,1.7749,1.7686,1.7614,1.773,1.7266,1.6856,1.6797,1.6174,1.5708,1.5877,1.6208,1.6513,1.6696,1.6572,1.6697,1.7288,1.7478,1.7844,1.855,1.8198,1.8039,1.832,1.799,1.7793,1.7793,1.7301,1.7008,1.7008,1.7598,1.7899,1.7934,1.9072,1.9644,1.9684,2.0195,2.0404,0.7857,0.0,0.0,0.9888,1.0431,0.0,1.2479,0.0,0.0,0.0,0.0,0.0,0.0,0.0,0.0,0.0,0.0,0.0,0.0,0.0,0.0,0.0,0.0,0.0,0.0,0.0,0.0,0.0,0.0,0.0,0.0,1.3039,1.3618,1.4852,1.5286,1.569,1.6123,1.6172,1.5991,1.5605,1.4833,1.3946,1.2992,1.2175,1.1276,1.0332,0.9695,0.9622,0.9887,0.9332,0.9225,0.9471,0.9495,0.9363,0.9164,0.9489,0.9614,0.974,1.046,1.1494,1.2519,1.2425,1.3076,1.3781,1.3373,1.3197,1.3025,1.2631,1.2766,1.2901,1.246,1.3246,1.439,1.5351,1.5998,1.6374,1.64,1.6543,1.6716,1.7012,1.6238,1.5677,1.6083,1.5818,1.569,1.6192,1.656,1.6712,1.6474,1.6977,1.7344,1.7344,1.7618,1.8014,1.8508,1.8604,1.8807,1.9256,1.9513,1.9609,1.9609,1.8199,1.7438,1.7438,1.8412,1.8934,1.9001,1.9939,2.0399,2.0391,2.0412,2.0367,0.7403,0.8848,0.0,0.0,1.0632,1.1549,1.2741,1.3404,0.0,0.0,0.0,0.0,0.0,0.0,0.0,0.0,0.0,0.0,0.0,0.0,0.0,0.0,0.0,0.0,0.0,0.0,0.0,0.0,0.0,0.0,1.2614,1.2626,1.3088,1.409,1.4481,1.499,1.5719,1.5418,1.5389,0.0,1.454,1.3517,1.2519,1.2043,1.141,1.0711,0.9412,0.9327,1.0013,0.9375,0.9123,0.9221,0.9407,0.9463,0.9497,1.0122,1.0561,1.0886,1.1249,1.2012,1.2715,1.1999,1.1961,1.2124,1.2087,1.2358,1.2559,1.2101,1.2546,1.2969,1.2136,1.2425,1.296,1.3171,1.429,1.5387,1.5654,1.5545,1.549,1.5857,1.5504,1.5286,1.5811,1.5507,1.5535,1.6523,1.6722,1.6968,1.7408,1.7595,1.7681,1.7681,1.7766,1.7927,1.8249,1.8572,1.889,1.9201,1.9548,1.9762,1.9762,1.9423,1.9247,1.9247,1.9572,1.9771,1.9846,2.0169,2.0359,2.0391,2.0039,1.986,0.7649,0.0,0.0,1.1303,0.0,1.2164,1.2995,0.0,0.0,0.0,0.0,0.0,0.0,0.0,0.0,0.0,0.0,0.0,0.0,0.0,0.0,0.0,0.0,0.0,0.0,0.0,0.0,0.0,0.0,1.2508,1.2508,1.2508,1.2814,1.3547,1.396,1.4351,1.476,1.4758,1.4758,1.4774,1.4187,1.3259,1.2103,1.1394,1.0897,1.0556,0.9529,0.9286,0.9606,0.9085,0.886,0.881,0.9041,0.8974,0.881,0.9619,1.009,1.0355,1.0927,1.1765,1.2422,1.1533,1.143,1.1522,1.1166,1.1348,1.1675,1.1486,1.2117,1.2721,1.1994,1.2359,1.2817,1.2568,1.3517,1.4526,1.4701,1.476,1.4819,1.5018,1.4911,1.4833,1.5134,1.5285,1.5607,1.6432,1.6686,1.6917,1.7264,1.7579,1.7743,1.7743,1.8001,1.829,1.8547,1.8823,1.9102,1.9372,1.9745,1.9945,1.9945,2.0035,2.0035,1.9945,2.0082,2.0185,2.0284,2.0324,2.0272,2.0103,1.9823,1.9587,0.7731,0.0,1.0699,1.2456,1.2771,0.0,1.321,0.0,0.0,0.0,0.0,0.0,0.0,0.0,0.0,0.0,0.0,0.0,0.0,0.0,0.0,0.0,0.0,0.0,0.0,0.0,0.0,0.0,0.0,1.2508,1.2508,1.2508,1.2733,1.3198,1.3581,1.3835,1.3901,1.4084,1.4006,1.3742,1.3509,1.2812,1.1627,1.0736,1.0322,1.0391,0.9753,0.9418,0.9228,0.8822,0.8554,0.8391,0.8588,0.8357,0.8004,0.8955,0.9353,0.9602,1.0472,1.1433,1.2197,1.1309,1.1318,1.1577,1.0783,1.0872,1.1284,1.1269,1.198,1.2656,1.2179,1.2742,1.3343,1.2865,1.3436,1.4018,1.3808,1.4019,1.431,1.447,1.4627,1.4721,1.4693,1.5257,1.5918,1.647,1.6783,1.6986,1.7109,1.7551,1.7868,1.7877,1.834,1.8753,1.9031,1.9194,1.9397,1.9656,1.9973,2.0159,2.014,2.0289,2.0297,2.0111,2.0225,2.0352,2.046,2.041,2.0182,1.978,1.964,1.9339,0.6324,0.0,1.0279,0.0,1.2673,1.3015,0.0,0.0,0.0,0.0,0.0,0.0,0.0,0.0,0.0,0.0,0.0,0.0,0.0,0.0,0.0,0.0,0.0,0.0,0.0,0.0,0.0,0.0,1.2508,1.2508,1.2508,1.2508,1.2733,1.3198,1.3267,1.348,1.3901,1.3148,1.2916,1.3175,1.1961,1.1308,1.1094,1.0544,1.0478,1.076,0.9873,0.9654,0.9896,0.879,0.8357,0.8303,0.8119,0.7955,0.8024,0.9206,0.9908,1.0386,1.1163,1.2054,1.2646,1.1802,1.1777,1.2041,1.1587,1.2064,1.2748,1.2383,1.3064,1.38,1.332,1.3598,1.3978,1.3906,1.4346,1.4499,1.3503,1.3323,1.3615,1.4342,1.5104,1.558,1.5491,1.5864,1.6507,1.7396,1.7557,1.7776,1.8296,1.8432,1.8532,1.8646,1.8734,1.8919,1.9314,1.951,1.9713,1.9934,2.0212,2.0327,2.0288,2.0305,2.0251,2.0109,2.023,2.0305,2.0321,2.0314,2.0117,1.9707,1.9288,1.887,0.6991,0.8386,0.9967,0.0,1.2484,1.2757,1.3358,0.0,0.0,0.0,0.0,0.0,0.0,0.0,0.0,0.0,0.0,0.0,0.0,0.0,0.0,0.0,0.0,0.0,0.0,0.0,0.0,0.0,1.2908,1.2908,1.2908,1.2908,1.2978,1.3198,1.3198,1.3301,1.3514,1.3104,1.3,1.3135,1.2006,1.1431,1.1431,1.0659,1.0381,1.0547,1.0126,0.9858,0.9749,0.9334,0.8822,0.832,0.8547,0.8304,0.8085,0.9463,1.0144,1.0547,1.1573,1.2566,1.3307,1.2644,1.2796,1.3201,1.2754,1.2925,1.3288,1.3346,1.3997,1.4552,1.4317,1.463,1.4897,1.4641,1.4955,1.5205,1.4699,1.4595,1.4959,1.6081,1.598,1.5957,1.676,1.6991,1.723,1.7648,1.8358,1.8808,1.8619,1.9127,1.9381,1.9059,1.9167,1.9369,1.9658,1.9831,1.9983,2.0096,2.0322,2.0436,2.0355,2.0389,2.0311,2.0088,2.0149,2.0207,2.0243,2.02,2.0022,1.9678,1.9357,1.9047,0.7266,0.8381,0.9456,1.114,1.1801,1.2237,0.0,0.0,0.0,0.0,0.0,0.0,0.0,0.0,0.0,0.0,0.0,0.0,0.0,0.0,0.0,0.0,0.0,0.0,0.0,0.0,0.0,0.0,1.3459,1.3391,1.3391,1.3391,1.3391,1.3391,1.3493,1.3514,1.3514,1.331,1.3069,1.2826,1.1993,1.159,1.159,1.0697,1.0283,1.0283,1.0283,1.0079,0.9704,0.9794,0.9376,0.879,0.912,0.8889,0.8591,1.0037,1.0707,1.1078,1.2279,1.3263,1.395,1.3632,1.3961,1.4376,1.404,1.4122,1.441,1.4602,1.5233,1.5756,1.5565,1.5822,1.6026,1.5618,1.5802,1.6053,1.5932,1.6068,1.6487,1.7516,1.6894,1.667,1.8178,1.8209,1.8143,1.8573,1.953,2.0021,1.9487,2.0102,2.0349,1.9723,2.0029,2.0207,2.002,2.0515,2.0753,2.0593,2.0954,2.105,2.0742,2.0788,2.0577,2.0115,2.0057,2.0044,2.0092,2.0041,1.986,1.9571,1.963,1.952,0.6015,0.7255,0.8494,0.9114,0.0,0.0,0.0,0.0,0.0,0.0,0.0,0.0,0.0,0.0,0.0,0.0,0.0,0.0,0.0,0.0,0.0,0.0,0.0,0.0,0.0,0.0,0.0,0.0,1.4084,1.3868,1.3868,1.3868,1.3868,1.3868,1.4214,1.4438,1.4438,1.3557,1.2671,1.1884,1.1319,1.1046,1.1019,1.0544,1.0283,1.0283,1.0283,1.0283,1.0205,0.9744,0.9722,0.998,0.946,0.9504,0.9959,1.1173,1.1876,1.2357,1.3564,1.4306,1.4652,1.463,1.4982,1.5413,1.5389,1.6156,1.6881,1.6418,1.707,1.7799,1.7301,1.7205,1.7218,1.7192,1.7179,1.7077,1.6581,1.7069,1.7612,1.7676,1.7737,1.821,1.9656,1.9304,1.9371,2.0979,2.1257,2.1388,2.1605,2.1676,2.1512,2.096,2.167,2.1643,2.0392,2.1867,2.2507,2.1679,2.2527,2.2637,2.168,2.163,2.1143,2.0115,1.9916,1.9817,1.9824,1.9824,1.962,1.9243,2.0,2.0234,0.6167,0.693,0.0,0.8327,0.9505,0.0,0.0,0.0,0.0,0.0,0.0,0.0,0.0,0.0,0.0,0.0,0.0,0.0,0.0,0.0,0.0,0.0,0.0,0.0,0.0,0.0,0.0,0.0,0.0,1.4278,1.4278,1.4278,1.4278,1.4278,1.4648,1.4819,1.4819,1.4288,1.3716,1.3135,1.2601,1.2224,1.1945,1.1479,1.1255,1.1255,1.1255,1.1067,1.0725,1.0552,1.0764,1.1165,1.0728,1.0686,1.0919,1.2022,1.2506,1.2775,1.4056,1.4823,1.532,1.5696,1.6164,1.6705,1.7068,1.745,1.7813,1.7891,1.8218,1.8565,1.8622,1.846,1.8285,1.8327,1.8341,1.8369,1.8513,1.8397,1.8591,1.9624,1.952,1.9614,2.082,2.074,2.0695,2.1312,2.1799,2.1963,2.1533,2.2045,2.2201,2.1577,2.2111,2.2374,2.2056,2.2639,2.2893,2.2626,2.2987,2.3027,2.263,2.2596,2.2332,2.1787,2.1702,2.1051,1.979,1.9701,1.9638,1.9587,2.0321,2.066,0.5953,0.6594,0.0,0.0,0.0,0.0,0.0,0.0,0.0,0.0,0.0,0.0,0.0,0.0,0.0,0.0,0.0,0.0,0.0,0.0,0.0,0.0,0.0,0.0,0.0,0.0,0.0,0.0,0.0,0.0,1.4864,1.5002,1.5122,1.5256,1.5491,1.5476,1.5198,1.4988,1.4617,1.4084,1.3424,1.2948,1.2672,1.209,1.1811,1.1811,1.1811,1.159,1.1282,1.1282,1.1675,1.2246,1.2016,1.2138,1.254,1.3403,1.3835,1.415,1.5196,1.5959,1.6506,1.6844,1.7354,1.7933,1.8468,1.8722,1.8896,1.9185,1.9403,1.9546,1.9662,1.9373,1.9104,1.9302,1.9126,1.9118,1.9965,1.9756,1.9708,2.0799,2.0664,2.0755,2.1951,2.1856,2.1796,2.2279,2.2652,2.2697,2.2175,2.2677,2.285,2.2177,2.2788,2.3111,2.2796,2.3281,2.3542,2.3404,2.3719,2.3787,2.3548,2.3513,2.3283,2.281,2.2703,2.1999,2.0639,2.0474,2.0425,2.0498,2.1213,2.1711,0.0,0.0,0.0,0.0,0.0,0.0,0.0,0.0,0.0,0.0,0.0,0.0,0.0,0.0,0.0,0.0,0.0,0.0,0.0,0.0,0.0,0.0,0.0,0.0,0.0,0.0,0.0,0.0,1.5877,1.5605,1.5634,1.6013,1.6412,1.6789,1.6789,1.6427,1.5634,1.5649,1.5242,1.4533,1.3611,1.3162,1.3094,1.2247,1.1847,1.1847,1.1859,1.187,1.187,1.1833,1.2395,1.326,1.3283,1.3878,1.4835,1.5443,1.6003,1.6549,1.712,1.7706,1.8145,1.8171,1.8535,1.8991,1.9477,1.9939,2.0299,2.0255,2.0635,2.091,2.0389,1.9928,1.9748,2.0104,1.9555,1.9325,2.0682,2.0991,2.1023,2.1023,2.1172,2.1687,2.2994,2.2633,2.264,2.4003,2.3917,2.3714,2.3692,2.3714,2.3472,2.2813,2.3802,2.393,2.2493,2.3869,2.4581,2.4063,2.4822,2.5031,2.4453,2.4364,2.3945,2.3095,2.2791,2.2547,2.2362,2.2102,2.1906,2.1804,2.2612,2.3345,0.6131,0.0,0.0,0.0,0.0,0.0,0.0,0.0,0.0,0.0,0.0,0.0,0.0,0.0,0.0,0.0,0.0,0.0,0.0,0.0,0.0,0.0,0.0,0.0,0.0,0.0,0.0,0.0,1.6188,1.6227,1.6454,1.6575,1.6696,1.6789,1.6789,1.6696,1.6454,1.6227,1.5836,1.5301,1.4788,1.4237,1.3676,1.3441,1.3113,1.285,1.3632,1.3772,1.3435,1.3067,1.3739,1.4993,1.4937,1.5575,1.6553,1.668,1.7031,1.753,1.8152,1.8503,1.8717,1.9403,1.954,1.9549,2.0366,2.0715,2.0846,2.1149,2.1305,2.1399,2.1258,2.0911,2.0567,2.0317,2.0093,2.0024,2.0416,2.0975,2.1521,2.177,2.227,2.284,2.3464,2.3593,2.3741,2.4134,2.404,2.3848,2.3735,2.3948,2.4008,2.3676,2.4288,2.454,2.4143,2.4681,2.4975,2.4872,2.5229,2.5387,2.5279,2.5195,2.5057,2.4812,2.435,2.3999,2.3752,2.2391,2.1604,2.1441,2.2019,2.2686,0.7103,0.0,0.0,0.0,0.0,0.0,0.0,0.8655,0.0,0.0,0.0,0.0,0.0,0.0,0.0,0.0,0.0,0.0,0.0,0.0,0.0,0.0,0.0,0.0,0.0,1.608,1.6136,1.6474,1.6501,1.6712,1.7191,1.7216,1.7216,1.7216,1.7076,1.6926,1.6789,1.649,1.6077,1.568,1.5433,1.5,1.4406,1.4379,1.4303,1.4183,1.4581,1.4906,1.5072,1.4739,1.5184,1.6055,1.6244,1.6824,1.7572,1.7572,1.7981,1.8564,1.8754,1.9119,1.9504,1.9889,1.9849,1.9758,2.0483,2.0731,2.0813,2.143,2.1718,2.1853,2.1658,2.143,2.1181,2.091,2.0699,2.0732,2.1209,2.1576,2.1874,2.2068,2.2583,2.3141,2.3628,2.3921,2.4154,2.4303,2.421,2.4081,2.4008,2.4199,2.4262,2.4062,2.4457,2.4681,2.4565,2.4718,2.4901,2.5024,2.5142,2.5331,2.5598,2.5351,2.5266,2.5374,2.4823,2.4201,2.3513,2.2772,2.2292,2.2096,2.2054,2.2387,0.8373,0.85,0.0,0.0,0.0,0.0,0.8725,0.8751,0.0,0.0,0.0,0.0,0.0,0.0,0.0,0.0,0.0,0.0,0.0,0.0,0.0,0.0,0.0,0.0,1.6523,1.6394,1.6367,1.6712,1.6815,1.7093,1.7658,1.7726,1.7704,1.7635,1.7368,1.7076,1.6738,1.6448,1.6163,1.5898,1.5751,1.5506,1.515,1.512,1.5216,1.5399,1.5069,1.5524,1.652,1.6642,1.6689,1.6713,1.7277,1.7828,1.8302,1.8302,1.8887,1.9621,1.9214,1.96,2.0246,1.9945,1.9818,1.9839,2.0177,2.0333,2.055,2.1352,2.1869,2.2077,2.1688,2.1521,2.146,2.1521,2.1244,2.129,2.2361,2.2371,2.2201,2.2255,2.2565,2.3034,2.3699,2.3968,2.419,2.4489,2.4457,2.44,2.4415,2.4466,2.4398,2.4182,2.4436,2.4516,2.4266,2.4425,2.4606,2.4753,2.4759,2.4986,2.5525,2.5058,2.4895,2.5147,2.4511,2.3551,2.2306,2.3064,2.3267,2.3003,2.2398,2.2307,1.0753,1.08,1.077,0.9933,0.0,0.0,0.0,0.8798,0.0,0.0,0.0,0.0,0.0,0.0,0.0,0.0,0.0,0.0,0.0,0.0,0.0,0.0,0.0,0.0,1.536,1.5711,1.6039,1.6367,1.6901,1.715,1.7018,1.7248,1.715,1.6607,1.6773,1.6738,1.6394,1.6313,1.6394,1.6607,1.6297,1.5935,1.5491,1.5585,1.537,1.4905,1.5777,1.6292,1.6554,1.7445,1.7789,1.7855,1.8393,1.8904,1.9406,1.9406,1.9737,2.0162,2.0058,2.0143,2.0348,2.0665,2.0499,2.0177,2.0203,2.0503,2.0959,2.146,2.143,2.1323,2.1538,2.1102,2.0649,2.1023,2.1055,2.115,2.1685,2.2346,2.2911,2.3168,2.3512,2.393,2.4487,2.462,2.4669,2.4727,2.4894,2.4913,2.4606,2.4846,2.4891,2.4547,2.4706,2.4743,2.4531,2.4657,2.469,2.4567,2.4457,2.4664,2.5253,2.4927,2.4763,2.4876,2.3821,2.2772,2.1753,2.2513,2.2513,2.1903,2.2141,2.2304,1.2187,1.2105,1.2009,1.1434,0.0,0.0,0.0,0.0,0.9407,0.0,0.0,0.0,0.0,0.0,0.0,0.0,0.0,0.0,0.0,0.0,0.0,0.0,0.0,0.0,1.4169,1.4872,1.5579,1.6243,1.6586,1.6767,1.6789,1.6767,1.669,1.6554,1.6554,1.6351,1.5948,1.6188,1.627,1.6208,1.6628,1.6385,1.562,1.589,1.5667,1.5148,1.5748,1.6331,1.6946,1.7503,1.7848,1.8148,1.8422,1.865,1.8893,1.8893,1.9346,1.9904,1.9671,1.9919,2.0314,2.033,2.0208,1.9949,1.9641,1.9718,1.9947,2.0138,2.0206,2.0206,2.0206,2.0035,1.9982,2.0487,2.075,2.1207,2.2304,2.2935,2.3464,2.4155,2.4429,2.4592,2.4763,2.4877,2.4955,2.4943,2.5143,2.5227,2.5029,2.5205,2.5239,2.4927,2.5018,2.4899,2.44,2.4497,2.4429,2.4026,2.3497,2.3742,2.4943,2.4126,2.3836,2.419,2.3109,2.2238,2.1582,2.2248,2.2337,2.1957,2.2224,2.246,0.0,0.0,0.0,0.0,0.0,1.1604,0.0,0.0,0.0,1.0136,0.0,0.0,0.0,0.0,0.0,0.0,0.0,0.0,0.0,0.0,0.0,0.0,0.0,0.0,0.0,1.3835,1.4674,1.5552,1.5687,1.584,1.6186,1.6049,1.6083,1.6347,1.609,1.5766,1.5389,1.5766,1.5794,1.549,1.6418,1.6418,1.5605,1.5868,1.58,1.5474,1.5406,1.6064,1.7123,1.7023,1.737,1.7947,1.8066,1.8185,1.8263,1.8263,1.8873,1.9692,1.931,1.9671,2.0246,1.9909,1.9624,1.9332,1.8893,1.866,1.8565,1.8754,1.8972,1.909,1.8838,1.8957,1.9343,2.0039,2.0442,2.1154,2.2971,2.3479,2.3842,2.4774,2.5072,2.5129,2.4964,2.5072,2.5193,2.5176,2.5325,2.5429,2.5343,2.5455,2.5449,2.5214,2.5207,2.4946,2.4234,2.4051,2.3748,2.3213,2.2218,2.25,2.438,2.335,2.301,2.3547,2.2526,2.1886,2.1685,2.2271,2.2461,2.2337,2.2579,2.2852,0.0,0.0,0.0,0.0,1.3159,0.0,0.0,0.0,1.0419,0.9743,0.0,0.0,0.0,0.0,0.0,0.0,0.0,0.0,0.0,0.0,0.0,0.0,0.0,0.0,0.0,1.2488,1.2744,1.3175,1.3683,1.3986,1.4041,1.4746,1.5018,1.4755,1.4707,1.4676,1.4645,1.4676,1.4833,1.5049,1.5198,1.5374,1.5591,1.5392,1.5327,1.5305,1.5051,1.5595,1.6571,1.6068,1.6458,1.7422,1.7907,1.838,1.8817,1.8817,1.9419,2.0196,2.0162,2.0212,2.028,2.0246,1.9332,1.8263,1.8224,1.7854,1.7639,1.8565,1.8541,1.8338,1.8717,1.8517,1.8579,1.9882,2.0224,2.0719,2.2426,2.3355,2.3987,2.4389,2.5004,2.5449,2.5418,2.5492,2.552,2.5466,2.5524,2.5476,2.517,2.5411,2.5486,2.5232,2.5048,2.4814,2.4491,2.3235,2.2329,2.2004,2.0833,2.1086,2.312,2.328,2.3333,2.3417,2.2245,2.1786,2.204,2.2706,2.281,2.2401,2.3315,2.3745,0.0,0.0,0.0,0.0,0.0,0.0,1.1093,0.0,1.0261,0.0,0.0,0.0,0.0,0.0,0.0,0.0,0.0,0.0,0.0,0.0,0.0,0.0,0.0,0.0,0.0,0.0,0.0,0.0,1.252,1.2758,1.3666,1.3797,1.3919,1.4082,1.4095,1.3822,1.3289,1.4009,1.4178,1.3792,1.4829,1.4992,1.4463,1.4657,1.4492,1.4119,1.4675,1.5145,1.5595,1.5989,1.6422,1.6879,1.7422,1.7787,1.7987,1.7987,1.8797,1.9904,1.9904,2.0265,2.0731,2.0731,1.9924,1.891,1.8593,1.7946,1.7299,1.7436,1.7327,1.7229,1.7395,1.7327,1.749,1.8622,1.9343,2.0167,2.1737,2.2914,2.3841,2.4444,2.4975,2.5379,2.5527,2.5573,2.5595,2.5562,2.559,2.5538,2.5357,2.5342,2.5273,2.4999,2.4785,2.4182,2.2977,2.2287,2.08,1.8186,1.7771,1.8922,2.1776,2.2986,2.3383,2.2934,2.1826,2.1639,2.2451,2.2958,2.3342,2.3565,2.4157,2.4416,1.4756,0.0,0.0,0.0,0.0,0.0,0.0,0.0,0.0,0.0,0.0,0.0,0.0,0.0,0.0,0.0,0.0,0.0,0.0,0.0,0.0,0.0,0.0,0.0,0.0,0.0,0.0,0.0,0.0,1.1442,1.2834,1.2755,1.2826,1.323,1.3103,1.2773,1.2224,1.2973,1.3011,1.2363,1.3648,1.3821,1.3078,1.3487,1.3478,1.3223,1.4224,1.4765,1.4979,1.5906,1.6384,1.6552,1.7076,1.7394,1.7544,1.784,1.8867,2.015,2.0255,2.0783,2.1379,2.1131,2.0424,1.9566,1.8891,1.8048,1.7188,1.6637,1.638,1.6238,1.6238,1.6238,1.6502,1.7505,1.8389,1.9401,2.0815,2.2125,2.3211,2.3883,2.4488,2.4921,2.5123,2.5421,2.56,2.5505,2.5427,2.533,2.5187,2.4751,2.44,2.4196,2.3511,2.2608,2.1421,2.0772,1.9057,1.583,1.5523,1.6112,1.7534,2.068,2.2502,2.2702,2.2295,2.2466,2.3284,2.3619,2.4169,2.4898,2.4975,2.5023,0.0,0.0,0.0,1.1499,0.0,0.0,0.0,0.0,1.0512,0.0,0.0,0.0,0.0,0.0,0.0,0.0,0.0,0.0,0.0,0.0,0.0,0.0,0.0,0.0,0.0,0.0,0.0,0.0,0.0,0.0,1.0844,1.1426,1.179,1.1861,1.1302,1.1265,1.1811,1.1302,1.101,1.0972,1.1036,1.1263,1.168,1.1759,1.226,1.3132,1.3821,1.4412,1.4953,1.5492,1.6032,1.6552,1.7076,1.7626,1.821,1.917,2.0387,2.1565,2.1898,2.2265,2.2392,2.1404,2.0575,1.9802,1.871,1.7885,1.7188,1.6637,1.6095,1.5632,1.5632,1.5632,1.5891,1.6896,1.7611,1.8389,1.9691,2.0895,2.184,2.2202,2.3233,2.4039,2.4052,2.4962,2.5584,2.5256,2.4989,2.4701,2.4374,2.3309,2.2593,2.2559,2.072,1.9693,2.0303,1.8446,1.7021,1.6504,1.5004,1.2518,0.8868,1.5378,2.0305,2.2944,2.4153,2.476,2.4728,2.4924,2.5432,2.6128,2.5751,2.5576,0.0,0.0,1.1934,1.0296,0.0,0.0,0.0,0.0,0.0,0.0,0.0,0.0,0.0,0.0,0.0,0.0,0.0,0.0,0.0,0.0,0.0,0.0,0.0,0.0,0.0,0.0,0.0,0.0,0.8576,0.0,0.0,1.0303,1.0259,1.0345,1.0049,0.9847,0.9767,0.9847,0.9769,0.9433,1.006,1.0299,1.0146,1.0724,1.1404,1.2162,1.2958,1.3648,1.4308,1.5253,1.575,1.5996,1.6925,1.7599,1.8154,1.9229,2.0268,2.1321,2.218,2.2712,2.2902,2.2331,2.1616,2.0814,1.9878,1.8757,1.7706,1.7188,1.633,1.5588,1.5588,1.4971,1.4437,1.4767,1.5124,1.5652,1.6531,1.7719,1.8805,1.9494,2.049,2.1253,2.1405,2.2401,2.3252,2.3449,2.3016,2.2417,2.1675,2.0714,1.9866,1.9194,1.833,1.7527,1.6916,1.3019,1.075,1.1054,0.3527,0.0199,0.2692,0.8664,1.628,2.5672,2.5666,2.5393,2.5056,2.6113,2.6571,2.6469,2.6515,2.6191,1.0483,1.0726,0.0,0.9219,0.9179,0.0,0.8436,0.0,0.0,0.0,0.0,0.0,0.0,0.0,0.0,0.0,0.0,0.0,0.0,0.0,0.0,0.0,0.0,0.0,0.0,0.0,0.734,0.8787,0.0,0.0,0.0,0.0,0.9234,0.9326,0.882,0.8504,0.8366,0.8278,0.8067,0.7777,0.8447,0.8577,0.8328,0.9096,0.9761,1.04,1.162,1.2538,1.3256,1.4429,1.5073,1.541,1.6532,1.7164,1.7598,1.9221,2.0555,2.1711,2.2485,2.294,2.3165,2.2947,2.2255,2.133,2.0379,1.9177,1.7947,1.7229,1.633,1.5499,1.5061,1.431,1.3543,1.2791,1.2943,1.324,1.3432,1.4363,1.5358,1.5903,1.7239,1.839,1.873,1.9996,2.1182,2.1836,2.1651,2.1034,1.9934,1.8468,1.7256,1.638,1.52,1.396,1.2848,0.9176,0.7044,0.7288,-0.0775,-0.6629,-0.9051,0.3707,1.6416,2.834,2.7441,2.6689,2.6399,2.7048,2.7252,2.7011,2.6688,2.6186]}]]